[[{"header":{"parameterUnit":"m.s-1","parameterCategory":1,"la1":30.6,"la2":29.2853,"lo1":-89.7004,"lo2":-87.6739,"dx":0.0162,"dy":0.0183,"nx":112,"ny":82,"refTime":"2023-01-26T06:00:00:Z","depth":0,"parameterNumber":2,"parameterNumberName":"U-component_of_WINDS"},"data":[0.0,0.0,0.0,0.0,0.0,0.0,0.0,0.0,0.0,0.0,0.0,0.0,0.0,0.0,0.0,0.0,0.0,0.0,0.0,0.0,0.0,0.0,0.0,0.0,0.0,0.0,0.0,0.0,0.0,0.0,0.0,0.0,0.0,0.0,0.0,0.0,0.0,0.0,0.0,0.0,0.0,0.0,0.0,0.0,0.0,0.0,0.0,0.0,0.0,0.0,0.0,0.0,0.0,0.0,0.0,0.0,0.0,0.0,0.0,0.0,0.0,0.0,0.0,0.0,0.0,0.0,0.0,0.0,0.0,0.0,0.0,0.0,0.0,0.0,0.0,0.0,0.0,0.0,0.0,0.0,0.0,0.0,0.0,0.0,0.0,0.0,0.0,0.0,0.0,0.0,0.0,-2.6268,-2.7452,-2.7839,-2.7023,-2.6931,-2.5741,-2.2934,0.0,0.0,0.0,0.0,0.0,0.0,0.0,0.0,0.0,0.0,0.0,0.0,0.0,0.0,0.0,0.0,0.0,0.0,0.0,0.0,0.0,0.0,0.0,0.0,0.0,0.0,0.0,0.0,0.0,0.0,0.0,0.0,0.0,0.0,0.0,0.0,0.0,0.0,0.0,0.0,0.0,0.0,0.0,0.0,0.0,0.0,0.0,0.0,0.0,0.0,0.0,0.0,0.0,0.0,0.0,0.0,0.0,0.0,0.0,0.0,0.0,0.0,0.0,0.0,0.0,0.0,0.0,0.0,0.0,0.0,0.0,0.0,0.0,0.0,0.0,0.0,0.0,0.0,0.0,0.0,0.0,0.0,0.0,0.0,0.0,0.0,0.0,0.0,0.0,0.0,0.0,0.0,0.0,0.0,0.0,0.0,0.0,0.0,0.0,0.0,0.0,0.0,0.0,0.0,-2.5657,-2.7117,-2.7965,-2.8215,-2.7713,-2.7001,-2.5824,-2.4068,0.0,0.0,0.0,0.0,0.0,0.0,0.0,0.0,0.0,0.0,0.0,0.0,0.0,0.0,0.0,0.0,0.0,0.0,0.0,0.0,0.0,0.0,0.0,0.0,0.0,0.0,0.0,0.0,0.0,0.0,0.0,0.0,0.0,0.0,0.0,0.0,0.0,0.0,0.0,0.0,0.0,0.0,0.0,0.0,0.0,0.0,0.0,0.0,0.0,0.0,0.0,0.0,0.0,0.0,0.0,0.0,0.0,0.0,0.0,0.0,0.0,0.0,0.0,0.0,0.0,0.0,0.0,0.0,0.0,0.0,0.0,0.0,0.0,0.0,0.0,0.0,0.0,0.0,0.0,0.0,0.0,0.0,0.0,0.0,0.0,0.0,0.0,0.0,0.0,0.0,0.0,0.0,0.0,0.0,0.0,0.0,0.0,0.0,0.0,0.0,0.0,0.0,0.0,-2.5378,-2.6326,-2.7277,-2.7953,-2.8249,-2.8026,-2.6875,-2.5578,-2.4272,-2.3229,0.0,0.0,0.0,0.0,0.0,0.0,0.0,0.0,0.0,0.0,0.0,0.0,0.0,0.0,0.0,0.0,0.0,0.0,0.0,0.0,0.0,0.0,0.0,0.0,0.0,0.0,0.0,0.0,0.0,0.0,0.0,0.0,0.0,0.0,0.0,0.0,0.0,0.0,0.0,0.0,0.0,0.0,0.0,0.0,0.0,0.0,0.0,0.0,0.0,0.0,0.0,0.0,0.0,0.0,0.0,0.0,0.0,0.0,0.0,0.0,0.0,0.0,0.0,0.0,0.0,0.0,0.0,0.0,0.0,0.0,0.0,0.0,0.0,0.0,0.0,0.0,0.0,0.0,0.0,0.0,0.0,0.0,0.0,0.0,0.0,0.0,0.0,0.0,0.0,0.0,0.0,0.0,0.0,0.0,0.0,0.0,0.0,0.0,0.0,0.0,0.0,0.0,-2.5958,-2.6957,-2.7413,-2.8037,-2.8339,-2.8164,-2.6805,-2.5542,-2.4431,-2.3188,0.0,0.0,0.0,0.0,0.0,0.0,0.0,0.0,0.0,0.0,0.0,0.0,0.0,0.0,0.0,0.0,0.0,0.0,0.0,0.0,0.0,0.0,0.0,0.0,0.0,0.0,0.0,0.0,0.0,0.0,0.0,0.0,0.0,0.0,0.0,0.0,0.0,0.0,0.0,0.0,0.0,0.0,0.0,0.0,0.0,0.0,0.0,0.0,0.0,0.0,0.0,0.0,0.0,0.0,0.0,0.0,0.0,0.0,0.0,0.0,0.0,0.0,0.0,0.0,0.0,0.0,0.0,0.0,0.0,0.0,0.0,0.0,0.0,0.0,0.0,0.0,0.0,0.0,0.0,0.0,0.0,0.0,0.0,0.0,0.0,0.0,0.0,0.0,0.0,0.0,0.0,0.0,0.0,0.0,0.0,0.0,0.0,0.0,0.0,0.0,0.0,0.0,-2.6667,-2.7434,-2.7821,-2.8661,-2.8867,-2.7999,-2.7049,-2.6028,-2.49,-2.3939,0.0,0.0,0.0,0.0,0.0,0.0,0.0,0.0,0.0,0.0,0.0,0.0,0.0,0.0,0.0,0.0,0.0,0.0,0.0,0.0,0.0,0.0,0.0,0.0,0.0,0.0,0.0,0.0,0.0,0.0,0.0,0.0,0.0,0.0,0.0,0.0,0.0,0.0,0.0,0.0,0.0,0.0,0.0,0.0,0.0,0.0,0.0,0.0,0.0,0.0,0.0,0.0,0.0,0.0,0.0,0.0,0.0,0.0,0.0,0.0,0.0,0.0,0.0,0.0,0.0,0.0,0.0,0.0,0.0,0.0,0.0,0.0,0.0,0.0,0.0,0.0,0.0,0.0,0.0,0.0,0.0,0.0,0.0,0.0,0.0,0.0,0.0,0.0,0.0,0.0,0.0,0.0,0.0,0.0,0.0,0.0,0.0,0.0,0.0,0.0,0.0,0.0,-2.602,-2.6729,0.0,-2.7821,-2.7883,-2.7531,-2.6708,-2.5785,-2.4945,0.0,0.0,0.0,0.0,0.0,0.0,0.0,0.0,0.0,0.0,0.0,0.0,0.0,0.0,0.0,0.0,0.0,0.0,0.0,0.0,0.0,0.0,0.0,0.0,0.0,0.0,0.0,0.0,0.0,0.0,0.0,0.0,0.0,0.0,0.0,0.0,0.0,0.0,0.0,0.0,0.0,0.0,0.0,0.0,0.0,0.0,0.0,0.0,0.0,0.0,0.0,0.0,0.0,0.0,0.0,0.0,0.0,0.0,0.0,0.0,0.0,0.0,0.0,0.0,0.0,0.0,0.0,0.0,0.0,0.0,0.0,0.0,0.0,0.0,0.0,0.0,0.0,0.0,0.0,0.0,0.0,0.0,0.0,0.0,0.0,0.0,0.0,0.0,0.0,0.0,0.0,0.0,0.0,0.0,0.0,0.0,0.0,0.0,0.0,0.0,0.0,0.0,-2.5446,-2.5813,-2.6438,0.0,-2.7434,-2.7392,-2.7102,-2.6376,-2.5644,-2.5033,0.0,0.0,0.0,0.0,0.0,0.0,0.0,0.0,0.0,0.0,0.0,0.0,0.0,0.0,0.0,0.0,0.0,0.0,0.0,0.0,0.0,0.0,0.0,0.0,0.0,0.0,0.0,0.0,0.0,0.0,0.0,0.0,0.0,0.0,0.0,0.0,0.0,0.0,0.0,0.0,0.0,0.0,0.0,0.0,0.0,0.0,0.0,0.0,0.0,0.0,0.0,0.0,0.0,0.0,0.0,0.0,0.0,0.0,0.0,0.0,0.0,0.0,0.0,0.0,0.0,0.0,0.0,0.0,0.0,0.0,0.0,0.0,0.0,0.0,0.0,0.0,0.0,0.0,0.0,0.0,0.0,0.0,0.0,0.0,0.0,0.0,0.0,0.0,0.0,0.0,0.0,0.0,0.0,0.0,0.0,0.0,0.0,0.0,0.0,0.0,0.0,0.0,-2.5885,-2.6335,-2.6791,-2.7268,-2.7655,-2.7552,-2.6641,-2.619,-2.5689,0.0,0.0,0.0,0.0,0.0,0.0,0.0,0.0,0.0,0.0,0.0,0.0,0.0,0.0,0.0,0.0,0.0,0.0,0.0,0.0,0.0,0.0,0.0,0.0,0.0,0.0,0.0,0.0,0.0,0.0,0.0,0.0,0.0,0.0,0.0,0.0,0.0,0.0,0.0,0.0,0.0,0.0,0.0,0.0,0.0,0.0,0.0,0.0,0.0,0.0,0.0,0.0,0.0,0.0,0.0,0.0,0.0,0.0,0.0,0.0,0.0,0.0,0.0,0.0,0.0,0.0,0.0,0.0,0.0,0.0,0.0,0.0,0.0,0.0,0.0,0.0,0.0,0.0,0.0,0.0,0.0,0.0,0.0,0.0,0.0,0.0,0.0,0.0,0.0,0.0,0.0,0.0,0.0,0.0,0.0,0.0,0.0,0.0,0.0,0.0,0.0,0.0,0.0,-2.7363,-2.7417,-2.7675,-2.8139,-2.8048,-2.7552,-2.6641,-2.619,-2.5544,-2.4755,0.0,0.0,0.0,0.0,0.0,0.0,0.0,0.0,0.0,0.0,0.0,0.0,0.0,0.0,0.0,0.0,0.0,0.0,0.0,0.0,0.0,0.0,0.0,0.0,0.0,0.0,0.0,0.0,0.0,0.0,0.0,0.0,0.0,0.0,0.0,0.0,0.0,0.0,0.0,0.0,0.0,0.0,0.0,0.0,0.0,0.0,0.0,0.0,0.0,0.0,0.0,0.0,0.0,0.0,0.0,0.0,0.0,0.0,0.0,0.0,0.0,0.0,0.0,0.0,0.0,0.0,0.0,0.0,0.0,0.0,0.0,0.0,0.0,0.0,0.0,0.0,0.0,0.0,0.0,0.0,0.0,0.0,0.0,0.0,0.0,0.0,0.0,0.0,0.0,0.0,0.0,0.0,0.0,0.0,0.0,0.0,0.0,0.0,0.0,0.0,0.0,0.0,-2.8566,-2.8184,-2.8247,-2.9133,-2.8439,-2.7634,-2.6957,-2.6293,-2.5564,-2.4817,0.0,0.0,0.0,0.0,0.0,0.0,0.0,0.0,0.0,0.0,0.0,0.0,0.0,0.0,0.0,0.0,0.0,0.0,0.0,0.0,0.0,0.0,0.0,0.0,0.0,0.0,0.0,0.0,0.0,0.0,0.0,0.0,0.0,0.0,0.0,0.0,0.0,0.0,0.0,0.0,0.0,0.0,0.0,0.0,0.0,0.0,0.0,0.0,0.0,0.0,0.0,0.0,0.0,0.0,0.0,0.0,0.0,0.0,0.0,0.0,0.0,0.0,0.0,0.0,0.0,0.0,0.0,0.0,0.0,0.0,0.0,0.0,0.0,0.0,0.0,0.0,0.0,0.0,0.0,0.0,0.0,0.0,0.0,0.0,0.0,0.0,0.0,0.0,0.0,0.0,0.0,0.0,0.0,0.0,0.0,0.0,0.0,0.0,0.0,0.0,0.0,0.0,-2.9512,-2.8746,-2.8734,-3.0163,-2.8976,-2.7925,-2.7494,-2.6547,-2.5751,-2.521,0.0,0.0,0.0,0.0,0.0,0.0,0.0,0.0,0.0,0.0,0.0,0.0,0.0,0.0,0.0,0.0,0.0,0.0,0.0,0.0,0.0,0.0,0.0,0.0,0.0,0.0,0.0,0.0,0.0,0.0,0.0,0.0,0.0,0.0,0.0,0.0,0.0,0.0,0.0,0.0,0.0,0.0,0.0,0.0,0.0,0.0,0.0,0.0,0.0,0.0,0.0,0.0,0.0,0.0,0.0,0.0,0.0,0.0,0.0,0.0,-3.5051,0.0,0.0,0.0,0.0,0.0,0.0,0.0,0.0,0.0,0.0,0.0,0.0,0.0,0.0,0.0,0.0,0.0,0.0,0.0,0.0,0.0,0.0,0.0,0.0,0.0,0.0,0.0,0.0,0.0,0.0,0.0,0.0,0.0,0.0,0.0,0.0,0.0,0.0,0.0,0.0,0.0,-3.0315,-3.0158,-3.0345,-3.1122,-3.0251,-2.93,-2.8484,-2.7189,-2.6082,-2.523,0.0,0.0,0.0,0.0,0.0,0.0,0.0,0.0,0.0,0.0,0.0,0.0,0.0,0.0,0.0,0.0,0.0,0.0,0.0,0.0,0.0,0.0,0.0,0.0,0.0,0.0,0.0,0.0,0.0,0.0,0.0,0.0,0.0,0.0,0.0,0.0,0.0,0.0,0.0,0.0,0.0,0.0,0.0,0.0,0.0,0.0,0.0,0.0,0.0,0.0,0.0,0.0,0.0,0.0,0.0,0.0,0.0,0.0,0.0,0.0,0.0,-3.5643,0.0,0.0,0.0,0.0,0.0,0.0,0.0,0.0,0.0,0.0,0.0,0.0,0.0,0.0,0.0,0.0,0.0,0.0,0.0,0.0,0.0,0.0,0.0,0.0,0.0,0.0,0.0,0.0,0.0,0.0,0.0,0.0,0.0,0.0,0.0,0.0,0.0,0.0,0.0,0.0,-3.1669,-3.1346,-3.1342,-3.2183,-3.1172,-3.0354,-3.018,-2.8364,-2.7265,-2.7282,-2.576,0.0,0.0,0.0,0.0,0.0,0.0,0.0,0.0,0.0,0.0,0.0,0.0,0.0,0.0,0.0,0.0,0.0,0.0,0.0,0.0,0.0,0.0,0.0,0.0,0.0,0.0,0.0,0.0,0.0,0.0,0.0,0.0,0.0,0.0,0.0,0.0,0.0,0.0,0.0,0.0,0.0,0.0,0.0,0.0,0.0,0.0,0.0,0.0,0.0,0.0,0.0,0.0,0.0,-3.7665,-3.8031,-3.8501,-3.8501,-3.8736,-3.9076,-3.7639,-3.6784,-3.6523,0.0,0.0,0.0,0.0,0.0,0.0,0.0,0.0,0.0,0.0,0.0,0.0,0.0,0.0,0.0,0.0,0.0,0.0,0.0,0.0,0.0,0.0,0.0,0.0,0.0,-3.4726,-3.4394,0.0,0.0,0.0,0.0,0.0,0.0,0.0,0.0,0.0,0.0,0.0,0.0,-3.2742,-3.2332,-3.224,-3.3131,-3.2112,-3.1506,-3.1808,-2.9871,-2.888,-2.9456,-2.7305,-2.6346,0.0,0.0,0.0,0.0,0.0,0.0,0.0,0.0,0.0,0.0,0.0,0.0,0.0,0.0,0.0,0.0,0.0,0.0,0.0,0.0,0.0,0.0,0.0,0.0,0.0,0.0,0.0,0.0,0.0,0.0,0.0,0.0,-3.7142,-3.7821,0.0,0.0,0.0,0.0,0.0,0.0,0.0,0.0,0.0,0.0,0.0,0.0,0.0,0.0,-3.7769,-3.8684,-3.9181,-3.9285,-4.0278,-4.0775,-4.0853,-4.0853,-4.0906,-4.0958,-4.0723,0.0,-3.8065,-3.7756,0.0,0.0,0.0,0.0,0.0,0.0,0.0,0.0,0.0,0.0,0.0,0.0,0.0,0.0,0.0,0.0,0.0,0.0,0.0,0.0,0.0,0.0,-3.4469,-3.4294,-3.4861,-3.5273,0.0,-3.4477,-3.4148,-3.3671,0.0,0.0,0.0,0.0,0.0,0.0,0.0,0.0,-3.229,-3.3039,-3.367,-3.3795,-3.3655,-3.3241,-3.2357,-3.1693,-3.0766,-2.9569,-2.9186,-2.8706,-2.7916,-2.7661,0.0,0.0,0.0,0.0,0.0,0.0,0.0,0.0,0.0,0.0,0.0,0.0,0.0,0.0,0.0,0.0,0.0,0.0,0.0,0.0,0.0,0.0,0.0,0.0,0.0,0.0,0.0,0.0,0.0,-3.675,-3.7612,-3.7874,-3.7142,-3.6619,0.0,0.0,0.0,0.0,0.0,0.0,0.0,0.0,0.0,-3.8423,-3.8762,-3.9207,-3.9808,-4.0958,-4.1533,-4.1533,-4.2369,-4.2918,-4.3258,-4.3232,-4.3049,-4.2762,-4.2762,-4.19,-4.0468,-3.9316,-3.822,-3.7253,0.0,0.0,0.0,0.0,0.0,-3.6636,-3.7248,0.0,0.0,0.0,0.0,0.0,0.0,0.0,0.0,0.0,0.0,0.0,0.0,0.0,0.0,-3.539,-3.5747,-3.5977,-3.5844,-3.5974,-3.568,0.0,-3.3445,-3.2893,-3.2315,0.0,0.0,0.0,0.0,0.0,-3.3068,-3.3596,-3.4022,-3.4324,-3.4367,-3.4336,-3.4163,-3.3236,-3.2434,-3.2015,-3.0746,-2.998,-2.9891,-2.8667,-2.8004,0.0,0.0,0.0,0.0,0.0,0.0,0.0,0.0,0.0,0.0,0.0,0.0,0.0,0.0,0.0,0.0,0.0,0.0,0.0,0.0,0.0,0.0,0.0,0.0,0.0,0.0,0.0,0.0,-3.7011,-3.7743,-3.7874,-3.7508,-3.7168,0.0,0.0,0.0,0.0,0.0,0.0,-3.7848,-3.8161,-3.905,-4.0644,-4.1089,-4.1585,-4.2186,-4.318,-4.3702,-4.3702,-4.4278,-4.4828,-4.5218,-4.5192,-4.4853,-4.433,-4.433,-4.3676,-4.2525,-4.0906,-3.9689,-3.8769,-3.8152,-3.7702,-3.7416,-3.8075,-3.8023,-3.7762,-3.8614,-3.863,-3.8239,-3.7865,0.0,-3.7422,-3.6865,0.0,0.0,0.0,0.0,-3.5193,-3.5203,0.0,-3.5805,-3.6081,-3.6358,-3.6581,-3.643,-3.6732,-3.6408,0.0,-3.3897,-3.3445,-3.2591,0.0,0.0,0.0,0.0,-3.347,-3.4048,-3.4474,-3.4801,-3.4881,-3.5052,-3.5253,-3.5483,-3.4607,-3.4072,-3.4104,-3.2406,-3.1529,-3.1822,-3.0067,-2.9279,-2.9694,0.0,0.0,0.0,0.0,0.0,0.0,0.0,0.0,0.0,0.0,0.0,0.0,0.0,0.0,0.0,0.0,0.0,0.0,0.0,0.0,0.0,0.0,0.0,0.0,0.0,0.0,0.0,0.0,0.0,-3.7821,-3.7874,0.0,0.0,0.0,0.0,-3.6959,-3.8501,-3.9677,-4.0226,-4.1298,-4.2499,-4.3677,-4.3729,-4.3964,-4.4485,-4.5111,-4.5506,-4.5506,-4.6081,-4.6369,-4.6395,-4.6395,-4.6081,-4.5477,-4.5477,-4.4879,-4.3755,-4.2578,-4.1276,-3.9936,-3.9343,-3.8656,-3.8053,-3.8859,-3.9136,-3.9188,-4.005,-4.0282,-4.0177,-3.9655,-3.8964,-3.8256,-3.764,-3.7248,0.0,0.0,-3.6633,-3.6413,-3.5676,-3.5906,-3.6207,-3.5658,-3.6383,-3.701,-3.6531,-3.643,-3.6103,0.0,-3.5031,-3.4856,-3.3294,0.0,-3.3822,-3.3822,-3.5152,-3.5852,-3.4801,-3.6056,-3.6634,-3.5558,-3.5956,-3.6081,-3.5533,-3.5959,-3.5784,-3.4751,-3.456,-3.4059,-3.3043,-3.2356,-3.1568,-3.0759,-3.0515,0.0,0.0,0.0,0.0,0.0,0.0,0.0,0.0,0.0,0.0,0.0,0.0,0.0,0.0,0.0,0.0,0.0,0.0,0.0,0.0,0.0,0.0,0.0,0.0,0.0,0.0,0.0,0.0,-4.0043,-4.0435,0.0,-4.0357,-3.9991,-3.9939,-4.0305,-4.1246,-4.2056,-4.2605,-4.3049,-4.3807,-4.4957,-4.5349,-4.5637,-4.5846,-4.6787,-4.71,-4.6678,-4.731,-4.7571,-4.7571,-4.7571,-4.7257,-4.6652,-4.6342,-4.5741,-4.4931,-4.4147,-4.2866,-4.138,-4.0783,-4.0369,-4.0216,-4.0887,-4.0627,-4.0054,-4.0726,-4.0601,-4.0115,-3.9786,-3.9481,-3.91,-3.8508,-3.828,-3.8156,-3.7844,-3.7903,-3.8038,-3.7906,-3.8049,-3.831,-3.8413,-3.839,-3.8165,-3.7538,-3.7713,-3.7437,-3.5558,-3.5082,-3.4906,-3.4655,-3.4525,-3.455,-3.4856,-3.5152,-3.5303,-3.5207,-3.5734,-3.6107,-3.6081,-3.6279,-3.648,-3.6584,-3.6458,-3.6254,-3.583,-3.5127,-3.4374,-3.3646,-3.2717,-3.2047,-3.1709,-3.1322,-3.1023,0.0,0.0,0.0,0.0,0.0,0.0,0.0,0.0,0.0,0.0,0.0,0.0,0.0,0.0,0.0,0.0,0.0,0.0,0.0,0.0,0.0,0.0,0.0,0.0,0.0,0.0,-4.1219,-4.1821,-4.2735,-4.3258,-4.3049,-4.2866,-4.2918,-4.331,-4.4042,-4.4722,-4.5297,-4.5323,-4.5767,-4.6761,-4.697,-4.7048,-4.7048,-4.7806,-4.7989,-4.7623,-4.8015,-4.8172,-4.8172,-4.8172,-4.7885,-4.7252,-4.6734,-4.6159,-4.5529,-4.4929,-4.4068,-4.2971,-4.2186,-4.1768,-4.1638,-4.2081,-4.1794,-4.135,-4.1742,-4.1095,-4.0091,-3.9992,-3.984,-3.9607,-3.922,-3.9091,-3.9013,-3.8748,-3.8936,-3.9277,-3.9352,-3.9517,-3.9803,-4.0033,-3.9753,-3.9297,-3.8566,-3.8994,-3.8892,-3.6972,-3.6024,-3.5504,-3.5395,-3.5219,-3.5239,-3.5571,-3.5646,-3.5722,-3.5805,-3.5981,-3.6157,-3.638,-3.6405,-3.6556,-3.6933,-3.6631,-3.6282,-3.6132,-3.5253,-3.4474,-3.3922,-3.3169,-3.2767,-3.2767,-3.224,-3.1763,-3.1386,0.0,0.0,0.0,0.0,0.0,0.0,0.0,0.0,0.0,0.0,0.0,0.0,0.0,0.0,0.0,0.0,0.0,0.0,0.0,0.0,0.0,0.0,0.0,-3.8919,-4.0827,-4.2526,-4.3127,-4.4696,-4.5506,-4.4905,-4.5401,-4.5741,-4.5741,-4.673,-4.7649,-4.8198,-4.8224,-4.8486,-4.9061,-4.8512,-4.8198,-4.8172,-4.8172,-4.8172,-4.8172,-4.8172,-4.8172,-4.8172,-4.8172,-4.7885,-4.7278,-4.6761,-4.6186,-4.5555,-4.5009,-4.4748,-4.4563,-4.3493,-4.2735,-4.229,-4.229,-4.2579,-4.3049,-4.2997,-4.1899,-4.0488,-4.0488,-4.0122,-3.9677,-3.9677,-3.9677,-3.9629,-3.9388,-3.9728,-4.0119,-3.9897,-4.0259,-4.0619,-4.0236,-4.044,-4.0414,-3.9575,-4.0007,-4.031,-3.9105,-3.8028,-3.6855,-3.5446,-3.5593,-3.5968,-3.5968,-3.6908,0.0,-3.6528,-3.6883,-3.7008,-3.6455,-3.6405,-3.6405,-3.643,-3.6405,-3.6107,-3.5558,-3.4981,-3.4449,-3.3922,-3.3872,-3.3872,-3.3872,-3.3345,-3.2541,-3.1461,0.0,0.0,0.0,0.0,0.0,0.0,0.0,0.0,0.0,0.0,0.0,0.0,0.0,0.0,0.0,0.0,0.0,0.0,0.0,0.0,0.0,0.0,-4.203,-4.1873,-4.3833,-4.5663,-4.6656,-4.7571,-4.8068,-4.7911,-4.8041,-4.8146,-4.8146,-4.8799,-4.9244,-4.9401,-4.9427,-4.9322,-4.9087,-4.893,-4.8616,-4.8172,-4.8172,-4.8172,-4.8172,-4.8172,-4.8172,-4.8172,-4.8172,-4.8094,-4.7911,-4.7336,-4.6787,-4.6212,-4.5611,-4.5059,-4.4642,-4.4328,-4.4147,-4.4016,-4.4016,-4.3859,-4.352,-4.2683,-4.2369,-4.2239,-4.1821,-4.1585,-4.1455,-4.1455,-4.1455,-4.1455,-4.1404,-4.1771,-4.2215,-4.2112,-4.2372,-4.2525,-4.2033,-4.2134,-4.2054,-4.1054,-4.1311,-4.144,-4.0285,-4.0184,-3.9726,-3.8063,-3.722,-3.6913,-3.7275,0.0,0.0,-3.6947,-3.7049,-3.7006,-3.664,-3.6615,-3.6698,-3.6958,-3.6232,-3.5881,0.0,-3.4876,-3.4048,-3.3897,-3.352,-3.3294,-3.3294,-3.3187,-3.3119,0.0,0.0,0.0,0.0,0.0,0.0,0.0,0.0,0.0,0.0,0.0,0.0,0.0,0.0,0.0,0.0,0.0,0.0,0.0,0.0,0.0,0.0,-4.3363,-4.5088,-4.5794,-4.6865,-4.7989,-4.9139,-5.0002,-5.0498,-5.0498,-5.0498,-5.0498,-5.0498,-5.0577,-5.0603,-5.0603,-5.0394,-5.0132,-4.9819,-4.9557,-4.9244,-4.8904,-4.8669,-4.8564,-4.8564,-4.8303,-4.8172,-4.8172,-4.8172,-4.8172,0.0,-4.7571,-4.7022,-4.6421,-4.5872,-4.5216,0.0,0.0,0.0,0.0,0.0,-4.4225,-4.3415,-4.2762,-4.2579,-4.2579,-4.2004,-4.1794,-4.1794,-4.1794,-4.1794,-4.1794,-4.1794,-4.2213,-4.2657,-4.2657,-4.3153,-4.3515,-4.3018,-4.3327,-4.3454,-4.2445,-4.2602,-4.2578,-4.1465,0.0,0.0,-3.9682,-3.8836,-3.8479,-3.874,-3.8328,-3.7968,0.0,-3.78,-3.7753,-3.761,-3.7562,-3.7566,-3.7523,-3.6941,0.0,0.0,0.0,-3.4787,-3.4515,-3.4458,0.0,0.0,0.0,-3.4281,0.0,0.0,0.0,0.0,-3.2541,-3.2566,0.0,0.0,0.0,0.0,0.0,0.0,0.0,0.0,0.0,0.0,0.0,0.0,0.0,0.0,0.0,0.0,-4.5816,-4.8329,-5.0054,-4.9871,-4.9949,-5.0969,-5.1988,-5.2563,-5.2511,-5.2485,-5.2459,-5.2406,-5.191,-5.1596,-5.1596,0.0,0.0,0.0,0.0,-4.9897,-4.9688,-4.9296,-4.9061,-4.8982,-4.8433,-4.8172,-4.8172,-4.8172,-4.8172,-4.8146,-4.7649,-4.71,-4.6525,-4.6029,-4.5373,-4.4772,-4.4748,-4.4668,-4.4668,-4.4668,-4.4095,0.0,0.0,0.0,0.0,-4.1768,-4.1559,-4.1507,-4.1585,-4.1559,-4.1507,-4.1507,-4.1925,-4.2395,-4.2342,-4.3101,-4.378,-4.3384,-4.388,-4.4274,-4.3462,-4.3569,-4.3467,-4.2499,-4.1847,-4.135,-4.0801,-4.0317,-4.0037,-4.0037,-3.9573,0.0,-3.8946,-3.8897,-3.8897,-3.8823,0.0,0.0,-3.8133,-3.798,-3.7373,-3.6141,-3.6146,-3.5955,-3.5424,-3.5904,-3.5865,-3.5156,-3.5587,-3.5547,-3.4891,-3.4891,-3.4896,-3.4947,-3.4274,-3.4248,0.0,0.0,0.0,0.0,0.0,0.0,0.0,0.0,0.0,0.0,0.0,0.0,0.0,0.0,0.0,-4.6077,-4.8538,-5.0734,-5.2485,-5.2642,-5.2642,-5.2877,-5.3086,-5.3034,-5.2537,-5.2485,-5.2302,-5.1805,-5.1675,-5.1596,-5.1596,-5.1492,0.0,-5.0106,-5.042,-4.9949,-4.8538,-4.8904,-4.8852,-4.8355,0.0,0.0,-4.8172,-4.8172,-4.8172,-4.8172,-4.8068,-4.7702,-4.7153,-4.6991,-4.6338,-4.5401,-4.4905,-4.4668,-4.4668,-4.4668,-4.4591,-4.433,-4.3859,-4.3624,-4.3572,-4.3415,-4.3075,-4.2788,-4.3232,-4.3049,0.0,-4.2683,-4.3101,-4.3441,-4.2971,-4.3363,-4.3624,-4.2657,-4.2892,-4.3127,-4.2553,-4.2814,-4.3127,-4.2892,-4.2762,-4.2657,-4.2526,-4.0934,-3.9734,-3.9734,-3.9581,-3.9503,-3.9455,-3.9455,-3.9358,-3.9139,-3.9139,-3.8991,-3.8694,-3.7873,-3.7211,-3.6959,-3.6154,-3.559,-3.5487,-3.559,-3.559,-3.5442,-3.5545,-3.5705,-3.5973,-3.5973,-3.6202,-3.6565,-3.5209,-3.4625,0.0,0.0,0.0,0.0,0.0,0.0,0.0,0.0,0.0,0.0,0.0,-4.0958,0.0,0.0,-4.6708,-4.8721,-5.076,-5.2485,-5.3635,-5.4053,-5.4131,-5.3844,-5.3556,-5.34,-5.3347,-5.2825,-5.2485,-5.2485,-5.1936,-5.1596,-5.1596,-5.1596,-5.1335,-5.076,-5.1047,-5.076,-4.9897,-4.9923,-4.9636,-4.9035,-4.8773,-4.8486,-4.8172,-4.8172,-4.8172,-4.8172,-4.8172,-4.7858,-4.7226,-4.6652,-4.6077,-4.5558,-4.4957,-4.4668,-4.4668,-4.4668,-4.4668,-4.4643,-4.4068,-4.3912,-4.3833,-4.3546,-4.3258,-4.3075,-4.3363,-4.3258,-4.3023,-4.3023,-4.3232,-4.3389,-4.3101,-4.3441,-4.365,-4.2788,-4.3023,-4.3284,-4.2709,-4.2605,-4.2683,-4.2971,-4.2552,-4.2265,-4.2552,-4.1402,-4.0566,-4.0853,-4.0644,-4.0461,-4.0461,-4.0461,-4.0412,-4.0265,-4.0239,-4.0086,-3.9628,-3.8729,-3.8265,-3.8385,-3.7723,-3.7284,-3.7111,-3.7111,-3.6936,-3.6515,-3.6515,-3.6553,-3.6698,-3.6698,-3.6826,-3.7108,-3.6269,-3.5897,0.0,0.0,0.0,0.0,0.0,0.0,0.0,0.0,-3.973,-4.101,-4.2186,-4.3676,-4.5898,-4.7702,-4.9401,-5.1021,-5.2668,-5.387,-5.4314,-5.4785,-5.4889,-5.4262,-5.3818,-5.3687,-5.4001,-5.3112,-5.2642,-5.3008,-5.2145,-5.1596,-5.1596,-5.1596,-5.1544,-5.1439,-5.1544,-5.1492,-5.1256,-5.0838,-5.0315,-4.974,-4.9165,-4.8643,-4.8172,-4.8172,-4.8172,-4.8172,-4.8172,-4.7911,-4.7357,-4.6395,-4.5898,-4.5741,-4.514,-4.4826,-4.4668,-4.4668,-4.4668,-4.467,-4.4199,-4.4042,-4.3964,-4.3493,-4.3363,-4.3363,-4.3363,-4.3284,-4.318,-4.318,-4.318,-4.3232,-4.3441,-4.3677,-4.3808,-4.3546,-4.3599,-4.3572,-4.3127,-4.2657,-4.2474,-4.2944,-4.2265,-4.1794,-4.2265,-4.1951,-4.1716,-4.1977,-4.1611,-4.1324,-4.1324,-4.1324,-4.1324,-4.1324,-4.1324,-4.1063,-4.0461,-3.9797,-3.9462,-3.9577,-3.9407,-3.9151,-3.8893,-3.8893,-3.859,-3.7888,-3.7759,-3.7614,-3.7402,-3.7299,-3.7248,-3.7248,-3.7201,-3.7155,-4.1115,-3.973,-3.8972,-3.9337,-3.905,-3.9102,0.0,0.0,-4.2265,-4.3938,-4.5192,-4.6552,-4.8355,-5.008,-5.1622,-5.2903,-5.4131,-5.4942,-5.4994,-5.5072,-5.4889,-5.4262,-5.4158,-5.3949,-5.353,-5.2877,-5.2302,-5.1831,-5.1675,-5.1596,-5.1596,-5.1596,-5.1361,-5.089,-5.1335,-5.11,-5.008,-5.0028,-4.9714,-4.9165,-4.8564,-4.825,-4.8172,-4.8172,-4.8172,-4.8172,-4.8172,-4.8146,-4.8041,-4.7414,-4.6839,-4.6316,-4.5741,-4.5192,-4.4668,-4.4668,-4.4668,-4.4668,-4.4643,-4.4643,-4.4617,-4.4511,-4.4485,-4.4485,-4.4485,-4.4173,-4.3781,-4.3781,-4.3781,-4.4019,-4.4985,-4.4597,-4.4098,-4.5012,-4.4146,-4.3101,-4.3023,-4.2971,-4.2944,-4.3023,-4.2918,-4.284,-4.2918,-4.2866,-4.25,-4.1559,-4.135,-4.1324,-4.1324,-4.1324,-4.1324,-4.1324,-4.1324,-4.1063,-4.0461,-4.0308,-4.0073,-3.9651,-3.9551,-3.9525,-3.952,-3.952,-3.9494,-3.9368,-3.8846,-3.8559,-3.8512,-3.8043,-3.7808,-3.7808,-3.7551,-3.732,-4.0383,-3.9834,-3.9756,0.0,-4.0644,-4.1585,-4.2997,-4.4016,-4.5166,-4.6917,-4.8198,-4.9531,-5.1282,-5.2433,-5.34,0.0,-5.4785,-5.5099,-5.5099,-5.4811,-5.4236,-5.3321,-5.2903,-5.2877,-5.3347,-5.2537,-5.2014,-5.2119,-5.2501,-5.2377,-5.1659,-5.2315,-5.2271,-5.1318,-5.1465,-5.1733,-5.1997,-5.1997,-5.1703,-5.1142,-5.0527,-5.0072,-4.9667,-4.9377,-4.9217,-4.916,-4.8521,-4.8553,-4.9164,-4.8602,-4.8592,-4.8954,-4.8407,-4.7997,-4.7537,-4.5445,-4.5127,-4.5715,-4.5715,-4.6111,-4.6608,-4.6608,-4.6608,-4.6662,-4.7097,-4.7042,-4.6958,-4.7366,-4.7149,-4.698,-4.7395,-4.6912,-4.638,-4.6892,-4.6495,-4.5864,-4.5586,-4.5532,-4.5563,-4.5891,-4.57,-4.5751,-4.6408,-4.597,-4.5477,-4.5335,-4.3312,-4.169,-4.135,-4.1324,-4.1324,-4.1324,-4.1324,-4.1219,-4.0958,-4.0932,-4.0853,-4.0618,-4.0592,-4.0592,-4.0592,-4.0252,-4.0069,-4.0069,-3.952,-3.9233,-3.9233,-3.8998,-3.8893,-3.8893,-3.8434,-3.8111,-4.0351,0.0,0.0,-4.1193,-4.2448,-4.3938,-4.5584,-4.6708,-4.7963,-4.9871,-5.0943,-5.1988,-5.3583,-5.4053,-5.4393,-5.4994,-5.5099,-5.5046,-5.4889,-5.421,-5.3243,-5.1936,-5.1347,-5.14,-5.2332,-5.213,-5.197,-5.2197,-5.3048,-5.3086,-5.2192,-5.2658,-5.2903,-5.2658,-5.2315,-5.2719,-5.4024,-5.386,-5.3558,-5.312,-5.2575,-5.1999,-5.1311,-5.0708,-5.0406,-5.035,-4.9502,-4.9646,-5.0379,-4.9803,-5.002,-5.0772,-5.0206,-5.0005,-4.9683,-4.6892,-4.6407,-4.709,-4.6776,-4.7374,-4.8246,-4.794,-4.8154,-4.8635,-4.9113,-4.9305,-4.939,-4.984,-4.9643,-4.9357,-4.9666,-4.9144,-4.8652,-4.9007,-4.8855,-4.8539,-4.8117,-4.8004,-4.8145,-4.8568,-4.8314,-4.8286,-4.9211,-4.8647,-4.8167,-4.8393,-4.5938,-4.3761,-4.2801,-4.2351,-4.2016,-4.172,-4.172,-4.1597,-4.1298,-4.1324,-4.1324,-4.1324,-4.1324,-4.1398,-4.167,-4.1297,-4.1205,-4.1448,-4.0935,-4.0642,-4.0642,-4.0481,-4.0428,-4.0401,-3.9974,-3.9807,0.0,0.0,-4.0958,-4.3206,-4.4251,-4.5454,-4.8303,-4.9401,-5.0446,-5.2772,-5.3295,-5.3661,-5.4837,-5.4576,-5.4393,-5.4994,-5.5099,-5.4889,-5.4314,-5.3269,-5.191,-5.0185,-4.9813,-4.9781,0.0,-5.158,-5.2312,-5.1695,-5.2807,-5.351,-5.345,-5.2315,-5.278,-5.5208,-5.4084,-5.4024,-5.5353,-5.4765,-5.4456,-5.4428,-5.3895,-5.3276,-5.2629,-5.1955,-5.162,-5.162,-5.162,-5.162,-5.1592,-5.1028,-5.0775,-5.0772,-5.0206,-5.0005,-4.9896,-4.9145,-4.8921,-4.8766,-4.7745,-4.8061,-4.8817,-4.7773,-4.8581,-4.9949,-4.9977,-4.9977,-4.9977,-5.0005,-5.0005,-5.0186,-5.1215,-5.0755,-5.0209,-5.1266,-5.0675,-4.9949,-4.9921,-4.9921,-4.9921,-4.9949,-4.9949,-4.9949,-4.9977,-4.9949,-4.9723,-4.9154,-4.8962,-4.8235,-4.6356,-4.4995,-4.3843,-4.284,-4.2744,-4.2382,-4.1348,-4.1324,-4.1324,-4.1324,-4.1324,-4.172,-4.2695,-4.2716,-4.3197,-4.4144,-4.3592,-4.3283,-4.3283,-4.2767,-4.2531,-4.2531,-4.2503,-4.2503,0.0,0.0,-4.3833,-4.6159,-4.7754,-4.9322,-5.1465,-5.2354,-5.2981,-5.3766,-5.3008,-5.245,-5.3112,-5.22,-5.2015,-5.406,-5.4951,-5.5464,-5.6038,-5.584,-5.4633,-5.1941,-5.1595,0.0,0.0,0.0,0.0,-5.3371,-5.465,-5.5193,-5.4769,-5.5122,-5.5355,-5.5412,-5.4973,-5.5325,-5.6594,-5.6421,-5.6306,-5.6306,-5.5702,-5.4639,-5.3202,-5.3403,-5.3259,-5.2779,-5.2,-5.2108,-5.2804,-5.2603,-5.299,-5.3693,-5.3539,-5.3451,-5.3422,-5.3216,-5.2864,-5.2105,-4.9717,-4.9845,-5.1062,-5.0717,-5.1303,-5.2218,-5.2687,-5.2805,-5.2893,-5.3334,-5.3157,-5.2855,-5.3237,-5.2732,-5.2297,-5.3118,-5.3086,-5.2805,-5.2805,-5.2805,-5.2805,-5.2805,-5.2805,-5.2952,-5.3363,-5.3099,-5.257,-5.1894,-4.9954,-4.8252,-4.7631,-4.682,-4.6167,-4.5825,-4.5386,-4.4823,-4.4001,-4.3973,-4.376,-4.33,-4.3273,-4.3416,-4.3796,-4.3796,-4.3937,-4.4312,-4.4088,-4.3975,-4.3975,-4.3825,-4.374,-4.374,-4.329,-4.3138,0.0,-4.4624,-4.6525,-4.8826,-5.0759,-5.2501,-5.4065,-5.4677,-5.4734,-5.4103,-5.2828,-5.1776,-5.1422,-5.0435,-5.0401,-5.2683,-5.3306,-5.407,-5.551,-5.5211,-5.4202,-5.2434,-5.2226,-5.1676,0.0,0.0,0.0,-5.3585,-5.5276,-5.6128,-5.5737,-5.6251,-5.6594,-5.6736,-5.6251,-5.6651,-5.786,-5.786,-5.7742,-5.7508,-5.6862,-5.5806,-5.442,-5.4596,-5.445,-5.4016,-5.3256,-5.3361,-5.4016,-5.4016,-5.4509,-5.5179,-5.5179,-5.5179,-5.5149,-5.491,-5.4581,-5.3863,-5.1491,-5.169,-5.2856,-5.2486,-5.303,-5.3982,-5.4431,-5.4551,-5.464,-5.5059,-5.488,-5.4551,-5.4551,-5.4221,-5.4072,-5.476,-5.473,-5.461,-5.485,-5.473,-5.464,-5.485,-5.491,-5.5119,-5.5748,-5.5329,-5.461,-5.3683,-5.1727,-5.0067,-4.9375,-4.8519,-4.7856,-4.7518,-4.7099,-4.6528,-4.5721,-4.5645,-4.5391,-4.4678,-4.465,-4.4724,-4.4823,-4.4823,-4.5007,-4.5372,-4.5372,-4.5372,-4.5372,-4.5372,-4.5372,-4.5372,-4.4985,-4.4784,-4.6328,-4.7814,-4.9049,-5.1276,-5.3245,-5.4936,-5.5997,-5.6154,-5.5555,-5.3904,-5.2727,-5.1572,0.0,0.0,-4.9596,-5.1039,-5.0791,-5.1208,-5.336,-5.218,-5.1389,0.0,0.0,0.0,0.0,0.0,0.0,-5.2683,0.0,-5.6427,-5.6456,-5.5909,-5.6708,-5.9045,-5.7915,-5.786,-5.9099,-5.9099,-5.877,-5.8052,-5.7483,-5.6825,-5.6188,-5.5568,-5.5299,-5.5269,-5.5209,-5.5209,-5.5239,-5.5209,-5.5179,-5.5179,-5.5179,-5.5179,-5.5119,-5.4491,-5.4251,-5.4102,-5.3106,-5.336,-5.4042,-5.2997,-5.3824,-5.5179,-5.5179,-5.5179,-5.5179,-5.5179,-5.5209,-5.5239,-5.5239,-5.5269,-5.5448,-5.6077,-5.5748,-5.5448,-5.6077,-5.5718,-5.5478,-5.6107,-5.6278,-5.6406,-5.7004,-5.6615,-5.5777,-5.4491,-5.4311,-5.3593,-5.1588,-5.0212,-4.9086,-4.8132,-4.7981,-4.7546,-4.6583,-4.6486,-4.6231,-4.5562,-4.5505,-4.5673,-4.5969,-4.5956,-4.6358,-4.7296,-4.7309,-4.7309,-4.7309,-4.7309,-4.7309,-4.7309,-4.7309,-4.7309,-4.8065,-5.067,-5.3254,-5.4674,-5.5763,-5.6477,-5.6809,-5.5304,-5.3653,-5.2816,-5.0597,-4.8874,0.0,0.0,0.0,-5.2004,-5.321,0.0,-5.7889,-5.8401,0.0,-5.6686,0.0,-5.5894,-5.4437,-5.5534,0.0,0.0,-5.6699,-5.7892,-5.8367,-5.8715,-5.8974,-5.9129,-5.8798,-5.8743,-5.9099,-5.9099,-5.853,-5.7363,-5.8201,-5.7752,-5.6248,-5.6466,-5.6615,-5.6555,-5.5598,-5.5478,-5.5897,-5.5388,-5.5179,-5.5179,-5.5179,-5.5179,-5.5179,-5.4999,-5.494,-5.4889,-5.4607,-5.441,-5.4142,-5.3893,-5.444,-5.5179,-5.5179,-5.5179,-5.5179,-5.5179,-5.5538,-5.5927,-5.5927,-5.6256,-5.6645,-5.6825,-5.6735,-5.6645,-5.6825,-5.6735,-5.6645,-5.6825,-5.6855,-5.6915,-5.7064,-5.6974,-5.6585,-5.5777,-5.5658,-5.494,-5.2935,-5.1947,-5.1344,-5.1107,-5.0614,-5.0016,-4.928,-4.9203,-4.8938,-4.8335,-4.8276,-4.8308,-4.8432,-4.7956,-4.7777,-4.8027,-4.7549,-4.7309,-4.7309,-4.7309,-4.7309,-4.7309,-4.7309,-4.7309,-5.1207,-5.3754,-5.619,-5.6523,-5.7492,-5.8132,-5.6927,-5.5508,-5.3725,-5.125,-4.9467,0.0,0.0,0.0,0.0,0.0,0.0,0.0,-5.822,-5.886,-5.8949,0.0,-5.8979,0.0,-5.7034,-5.7812,-5.8261,0.0,-5.8022,-5.8411,-5.9069,-5.9458,-5.9608,-5.9548,-5.9249,-5.9099,-5.9099,-5.9099,-5.859,-5.7543,-5.8321,-5.7932,-5.6585,-5.6944,-5.7094,-5.7064,0.0,-5.6077,-5.6188,-5.5777,-5.5448,-5.5179,-5.5179,-5.5179,-5.5179,-5.5179,-5.5179,-5.5179,-5.5179,-5.476,-5.4251,-5.4551,-5.488,-5.5239,-5.5538,-5.5628,-5.5688,-5.5957,-5.6286,-5.6585,-5.6585,-5.6825,-5.7184,-5.7483,-5.7304,-5.7184,-5.7483,-5.7304,-5.7184,-5.7483,-5.7782,-5.7872,-5.7603,-5.7543,-5.7244,-5.6368,-5.6218,-5.5658,-5.4251,-5.3234,-5.2396,-5.1828,-5.1439,-5.1079,-5.0644,-5.0614,-5.0391,-4.9733,-4.9673,-4.9583,-4.9329,-4.897,-4.876,-4.876,-4.8057,-4.7728,-4.7728,-4.7429,-4.7309,-4.7309,-4.7309,-4.7309,-5.4974,-5.6854,-5.839,-5.776,-5.872,-5.919,-5.6805,-5.5725,-5.403,-4.9578,0.0,-4.8015,-4.5449,-4.6152,-4.7686,-4.9404,0.0,-5.2162,-5.6907,-5.6997,-5.7566,-6.0166,-6.0376,-6.0052,-5.9537,-6.0076,-6.0351,-6.0291,-5.9159,-5.877,-5.9338,-5.9458,-5.9668,-6.0086,-5.9548,-5.9189,-5.9099,-5.9099,-5.877,-5.8112,-5.8201,-5.7902,-5.7244,-5.7244,-5.7274,-5.7334,0.0,0.0,-5.6338,-5.6209,-5.582,-5.528,-5.528,-5.5229,-5.5229,-5.5179,-5.5179,-5.5179,-5.5179,-5.488,-5.4551,-5.5029,-5.5179,-5.5329,-5.5987,-5.6278,-5.6406,-5.6944,-5.7154,-5.7244,-5.7244,-5.7304,-5.7513,-5.8112,-5.7812,-5.7513,-5.8112,-5.7782,-5.7573,-5.8261,-5.877,-5.8949,-5.8471,-5.8321,-5.7872,-5.6735,-5.6555,-5.6286,-5.5538,-5.4192,-5.2875,-5.1738,-5.1528,-5.1468,-5.1468,-5.1468,-5.1229,-5.0614,-5.0495,-5.0242,-4.9719,-4.9494,-4.9449,-4.9449,-4.8745,-4.8416,-4.8416,-4.7848,-4.7519,-4.7429,-4.7429,-4.7399,-5.7958,-5.9493,-6.0572,-6.0445,-5.9417,-5.8171,-5.7191,-5.3561,0.0,0.0,-4.7103,-4.601,-4.6049,-4.6006,-4.7222,-5.1058,0.0,0.0,0.0,0.0,-5.9531,0.0,0.0,0.0,0.0,0.0,0.0,0.0,0.0,-6.0655,-6.0775,-6.1283,-6.1104,-6.0116,-5.9967,-5.9668,-5.9099,-5.9099,-5.877,-5.8141,-5.868,-5.859,-5.7932,-5.7932,-5.8231,-5.865,0.0,0.0,-5.7196,-5.6163,-5.5802,-5.583,-5.5631,-5.5531,-5.5481,-5.528,-5.5179,-5.5179,-5.5179,-5.5478,-5.5748,-5.5329,-5.5179,-5.5329,-5.5987,-5.6526,-5.6944,-5.7064,-5.7513,-5.7932,-5.7932,-5.8351,-5.877,-5.8919,-5.883,-5.877,-5.8919,-5.883,-5.8949,-5.9608,-5.9398,-5.9249,-5.9668,-5.9279,-5.886,-5.862,-5.859,-5.8141,-5.6915,-5.5149,-5.3952,-5.3713,-5.3174,-5.2845,-5.2845,-5.2845,-5.2785,-5.2665,-5.2157,-5.1828,-5.1708,-5.0631,-5.0016,-5.0016,-4.9434,-4.9149,-4.9149,-4.903,-4.87,-4.8117,-4.8117,-4.7818,-6.0241,-6.1369,-6.2351,-6.1344,-5.9624,-5.7567,-5.5556,0.0,0.0,0.0,-4.5723,-4.5274,-4.5274,-4.5954,0.0,0.0,0.0,0.0,0.0,0.0,0.0,0.0,0.0,0.0,0.0,0.0,0.0,0.0,0.0,-6.2311,-6.1642,-6.2081,-6.1687,-6.0336,-6.047,-6.0277,-5.956,-5.9369,-5.9218,-5.9077,-5.9218,-5.9218,-5.9077,-5.9077,-5.9258,-5.9499,-5.8618,0.0,-5.8231,-5.7647,-5.7031,-5.6525,-5.6789,-5.6547,-5.6154,-5.6383,-5.6453,-5.6453,-5.6453,-5.6453,-5.6423,-5.6453,-5.635,-5.6316,-5.6974,-5.7393,-5.7693,-5.8052,-5.8381,-5.856,-5.8201,-5.862,-5.9099,-5.9099,-5.9638,-6.0146,-6.0146,-6.0146,-6.0146,-6.0086,-5.9817,-5.9608,-5.9578,-5.9308,-5.9099,-5.9099,-5.9099,-5.886,-5.8231,-5.7034,-5.5837,-5.482,-5.4431,-5.4102,-5.3743,-5.3713,-5.3563,-5.3204,-5.2875,-5.2725,-5.2725,-5.1768,-5.1259,-5.1259,-5.0272,-4.9763,-4.9763,-4.9075,-4.8596,-4.8267,-4.7938,-4.7608,-6.2145,-6.2795,-6.3414,-6.1733,-5.9484,-5.6915,-5.3862,-5.081,0.0,0.0,-4.4616,-4.4766,-4.4417,-4.5603,-4.7096,0.0,-4.9359,0.0,0.0,0.0,0.0,0.0,0.0,0.0,0.0,0.0,0.0,0.0,0.0,0.0,-6.2558,-6.2548,-6.2143,-6.1086,-6.1152,-6.092,-6.0198,-5.9955,-5.9894,-6.0016,-5.972,-5.9773,-6.0016,-6.0016,-6.0016,-5.9986,-5.9834,0.0,0.0,-5.8906,-5.8288,-5.7425,-5.7923,-5.7648,-5.7051,-5.7514,-5.7725,-5.7725,-5.7725,-5.7402,-5.7191,-5.7704,-5.7557,-5.7214,-5.7932,-5.8231,-5.8441,-5.8949,-5.9153,-5.9063,-5.865,-5.8973,-5.9393,-5.9488,-6.0356,-6.1104,-6.1104,-6.1104,-6.0984,-6.0595,-6.0386,-6.0176,-5.9817,-5.9638,-5.9488,-5.9338,-5.9308,-5.9249,-5.9129,-5.865,-5.7752,-5.6196,-5.5777,-5.5329,-5.467,-5.464,-5.4341,-5.3653,-5.3473,-5.3384,-5.3384,-5.2636,-5.2187,-5.2187,-5.1003,-5.0405,-5.0405,-4.9404,-4.8835,-4.8686,-4.8177,-4.7848,-6.3938,-6.3674,-6.2989,-6.2216,-5.9194,-5.5807,-5.3683,0.0,0.0,-4.4616,-4.3858,-4.3728,-4.4439,-4.4588,-4.5518,0.0,0.0,-5.0563,0.0,0.0,0.0,0.0,0.0,0.0,0.0,0.0,0.0,0.0,0.0,0.0,0.0,-6.3239,-6.2845,-6.2754,-6.2202,-6.1564,-6.092,-6.0866,-6.0563,-6.0016,-5.9963,-5.9963,-6.0016,-6.0016,-6.0016,-5.9986,0.0,0.0,0.0,-5.8726,-5.8541,-5.865,-5.846,-5.8329,-5.8197,-5.8054,-5.7982,-5.7982,-5.7982,-5.8316,-5.8802,-5.8863,-5.8075,-5.7214,-5.7932,-5.853,-5.9039,-5.9099,-5.9261,-5.9543,-5.9812,-6.0156,-6.0475,-6.083,-6.1014,-6.1104,-6.1104,-6.1104,-6.1283,-6.1822,-6.1433,-6.1194,-6.1732,-6.1313,-6.0715,-6.0086,-5.9997,-5.9787,-5.9189,-5.9069,-5.8949,-5.877,-5.7663,-5.6675,-5.6047,-5.6038,-5.5718,-5.5059,-5.4431,-5.4132,-5.4132,-5.2875,-5.2187,-5.2187,-5.1498,-5.1139,-5.1139,-5.102,-5.0631,-5.0016,-4.9956,-4.9643,-6.2845,-6.3746,-6.3897,-6.2645,-5.8874,-5.4967,-5.3224,0.0,-4.4978,-4.3928,-4.3618,-4.3647,-4.4007,-4.4408,-4.5284,-4.7026,0.0,0.0,0.0,0.0,0.0,0.0,0.0,0.0,0.0,0.0,0.0,0.0,0.0,0.0,0.0,-6.3049,-6.2787,-6.3238,-6.2761,-6.238,-6.2105,-6.1516,-6.121,-6.1094,-6.0486,-6.0355,-6.0512,-6.0512,-6.0512,-6.0481,0.0,0.0,0.0,-5.9962,-5.9645,-5.9439,-5.9737,-5.9492,-5.9032,-5.9326,-5.9427,-5.9427,-5.9427,-5.961,-5.9823,-5.9823,-5.9652,-5.9485,-5.9757,-5.9757,-5.9818,-6.0603,-6.076,-6.065,-6.0475,-6.0636,-6.0976,-6.1553,-6.2002,-6.2301,-6.2301,-6.2301,-6.2241,-6.2121,-6.1882,-6.1672,-6.1523,-6.1283,-6.0894,-6.0176,-6.0446,-6.0326,-5.9249,-5.9458,-5.9548,-5.9129,-5.862,-5.8052,-5.7393,-5.6974,-5.6466,-5.5837,-5.5149,-5.479,-5.479,-5.3892,-5.3414,-5.3414,-5.2366,-5.1798,-5.1798,-5.102,-5.0435,-5.0196,-4.9853,-4.9523,-6.1135,-6.3062,-6.427,-6.2742,-5.8767,-5.4746,0.0,0.0,-4.467,-4.3549,-4.3557,-4.3793,-4.3793,-4.4455,-4.5321,0.0,0.0,-4.7546,0.0,0.0,0.0,0.0,0.0,0.0,0.0,0.0,0.0,0.0,0.0,0.0,0.0,-6.2979,-6.2931,-6.3844,-6.3363,-6.301,-6.2825,-6.212,-6.169,-6.1502,-6.0801,-6.0638,-6.0794,-6.0794,-6.0794,-6.0794,0.0,0.0,0.0,-6.0794,-6.0517,-6.0116,-6.0609,-6.0413,-5.989,-6.035,-6.0534,-6.0534,-6.0534,-6.0656,-6.084,-6.084,-6.0866,-6.1012,-6.1378,-6.1088,-6.0775,-6.174,-6.1916,-6.17,-6.1278,-6.1417,-6.1822,-6.2271,-6.275,-6.3079,-6.3079,-6.3079,-6.2929,-6.248,-6.2391,-6.2241,-6.1762,-6.1702,-6.1463,-6.0775,-6.1104,-6.0924,-5.9578,-5.9787,-5.9817,-5.9189,-5.9099,-5.883,-5.8171,-5.7693,-5.7124,-5.6496,-5.5837,-5.5478,-5.5478,-5.467,-5.4221,-5.4221,-5.3084,-5.2486,-5.2486,-5.1379,-5.0764,-5.0764,-5.0152,-4.9733,-5.9164,-6.1605,-6.3689,-6.2354,-5.8954,-5.5232,0.0,0.0,-4.5445,-4.3678,-4.3675,-4.3988,-4.3988,-4.4534,-4.5361,-4.6401,-4.6996,0.0,0.0,0.0,0.0,0.0,0.0,0.0,0.0,0.0,0.0,0.0,0.0,0.0,0.0,-6.3195,-6.3472,-6.4826,-6.418,-6.3502,-6.2825,-6.2825,-6.2148,-6.0824,-6.0794,-6.0794,-6.0794,-6.0794,-6.0794,0.0,0.0,0.0,0.0,-6.0794,-6.0794,-6.0794,-6.0794,-6.0794,-6.0794,-6.0794,-6.0794,-6.0794,-6.0794,-6.1225,-6.1809,-6.1809,-6.1348,-6.1071,-6.2394,-6.2418,-6.1983,-6.2014,-6.2249,-6.2483,-6.2457,-6.2799,-6.3049,-6.3079,-6.3079,-6.3079,-6.3079,-6.3079,-6.3079,-6.3079,-6.3079,-6.3079,-6.3049,-6.3049,-6.2839,-6.2181,-6.2091,-6.1613,-6.0236,-6.0086,-5.9817,-5.9189,-5.9099,-5.883,-5.8171,-5.8112,-5.7812,-5.7124,-5.6496,-5.6218,-5.6218,-5.491,-5.4221,-5.4221,-5.3533,-5.3174,-5.3174,-5.2516,-5.2187,-5.2157,-5.1498,-5.0794,-5.4643,-5.6372,-5.7492,-5.6865,-5.4568,-5.1999,-5.0388,0.0,-4.5879,-4.4719,-4.5059,-4.544,-4.4983,-4.5559,-4.6199,-4.6573,-4.7117,0.0,0.0,0.0,0.0,0.0,0.0,0.0,0.0,0.0,0.0,0.0,0.0,0.0,0.0,-6.3626,-6.3933,-6.4857,-6.421,-6.3718,-6.3502,-6.3041,-6.2364,-6.1471,-6.1009,-6.0794,-6.0794,-6.0794,0.0,0.0,0.0,0.0,0.0,-6.0794,-6.0794,-6.0794,-6.0794,-6.0794,-6.0794,-6.0794,-6.0794,-6.0794,-6.0794,-6.0948,-6.1132,-6.1132,-6.1286,-6.1656,-6.2548,-6.238,-6.2105,-6.3318,-6.3589,-6.349,-6.3264,-6.3129,-6.3079,-6.3079,-6.3079,-6.3079,-6.3079,-6.3079,-6.3079,-6.3079,-6.3079,-6.3079,-6.3079,-6.3079,-6.2839,-6.2181,-6.248,-6.2301,-6.0954,-6.1194,-6.1014,-5.9907,-5.9787,-5.9518,-5.886,-5.8381,-5.8022,-5.7812,-5.6765,-5.6218,-5.6218,-5.5329,-5.488,-5.488,-5.4221,-5.3892,-5.3892,-5.2755,-5.1977,-5.1528,-5.1319,-5.1109,0.0,-5.33,-5.4636,-5.4496,-5.2747,0.0,0.0,0.0,-4.6385,-4.4917,-4.5563,-4.619,-4.5437,-4.6023,-4.6665,-4.6942,-4.7342,0.0,0.0,0.0,0.0,0.0,0.0,0.0,0.0,0.0,0.0,0.0,0.0,0.0,0.0,0.0,-6.4303,-6.4487,-6.381,-6.3441,-6.3441,-6.2764,-6.2086,-6.1409,-6.1009,-6.0794,-6.0794,-6.0794,0.0,0.0,0.0,0.0,0.0,-6.0794,-6.0794,-6.0794,-6.0794,-6.0794,-6.0794,-6.0794,-6.0794,-6.0824,-6.1101,-6.1194,-6.1225,-6.1471,-6.184,-6.2302,-6.2979,-6.3102,-6.3171,-6.4156,-6.43,-6.4075,-6.3766,-6.3595,-6.3424,-6.3309,-6.3252,-6.3252,-6.3137,-6.3079,-6.3079,-6.3079,-6.3079,-6.3079,-6.3079,-6.3079,-6.2929,-6.254,-6.281,-6.269,-6.1613,-6.1852,-6.1672,-6.0595,-6.0236,-5.9907,-5.9518,-5.886,-5.8501,-5.8501,-5.7513,-5.6915,-5.6915,-5.6047,-5.5568,-5.5568,-5.491,-5.4581,-5.4581,-5.3234,-5.2247,-5.1588,-5.1319,-5.1229,0.0,0.0,0.0,0.0,0.0,0.0,0.0,0.0,0.0,-4.46,-4.5437,-4.6348,-4.5537,-4.6085,-4.688,-4.7496,-4.765,0.0,0.0,0.0,0.0,0.0,0.0,0.0,0.0,0.0,0.0,0.0,0.0,0.0,0.0,0.0,-6.4487,-6.3779,-6.3102,-6.2764,-6.2825,-6.2148,-6.1471,-6.0794,-6.0794,-6.0794,-6.0794,-6.0794,0.0,0.0,0.0,0.0,0.0,-6.0794,-6.0794,-6.0794,-6.0794,-6.0794,-6.0794,-6.0794,-6.0824,-6.0948,-6.1532,-6.1779,-6.1902,-6.2548,-6.2794,-6.301,-6.3626,-6.4303,-6.4771,-6.4493,-6.4437,-6.4326,-6.4075,-6.3993,-6.388,-6.3595,-6.3481,-6.3424,-6.3137,-6.3079,-6.3079,-6.3079,-6.3079,-6.3079,-6.3079,-6.3079,-6.3079,-6.3079,-6.3079,-6.2869,-6.2241,-6.2181,-6.1912,-6.1253,-6.0625,-6.0206,-6.0176,-5.9518,-5.9099,-5.9099,-5.8501,-5.8112,-5.8112,-5.6885,-5.6218,-5.6218,-5.5538,-5.5179,-5.5119,-5.3862,-5.2905,-5.2247,-5.1588,-5.1289,0.0,0.0,0.0,0.0,0.0,0.0,0.0,0.0,0.0,0.0,0.0,0.0,0.0,-4.6871,-4.7434,-4.7588,-4.805,0.0,0.0,0.0,0.0,0.0,0.0,0.0,0.0,0.0,0.0,0.0,0.0,0.0,0.0,0.0,-6.3749,-6.3071,-6.2394,-6.2302,-6.2825,-6.2148,-6.1471,-6.0794,-6.0794,-6.0794,-6.0794,-6.0794,0.0,0.0,0.0,0.0,-6.0794,-6.0794,-6.0794,-6.0794,-6.0794,-6.0794,-6.0794,-6.0794,-6.1132,-6.1502,-6.1163,-6.1379,-6.184,-6.1994,-6.2733,-6.3571,-6.3779,-6.3933,-6.4125,-6.4678,-6.4579,-6.4382,-6.4326,-6.3963,-6.3595,-6.3538,-6.3367,-6.3194,-6.3137,-6.3079,-6.3079,-6.3079,-6.3079,-6.3079,-6.3079,-6.3079,-6.3079,-6.3079,-6.3079,-6.3019,-6.2869,-6.2839,-6.26,-6.1942,-6.1732,-6.1403,-6.0924,-5.9787,-5.9099,-5.9099,-5.8501,-5.8112,-5.8112,-5.6885,-5.6218,-5.6218,-5.5538,-5.494,-5.4431,-5.4132,-5.3623,-5.2935,-5.2276,-5.1977,0.0,0.0,0.0,0.0,0.0,0.0,0.0,0.0,0.0,0.0,0.0,0.0,0.0,0.0,0.0,-4.8019,-4.8112,0.0,0.0,0.0,0.0,0.0,0.0,0.0,0.0,0.0,0.0,0.0,0.0,0.0,0.0,0.0,-6.3195,-6.2825,-6.2148,-6.1994,-6.2364,-6.1686,-6.1163,-6.0794,-6.0794,-6.0794,-6.0794,-6.0794,0.0,0.0,0.0,0.0,-6.0794,-6.0794,-6.0794,-6.0794,-6.0794,-6.0794,-6.0824,-6.1163,-6.1286,-6.1379,-6.1625,-6.1963,-6.2333,-6.2641,-6.3225,-6.3848,-6.421,-6.4303,-6.4395,-6.4795,-6.4777,-6.4635,-6.4635,-6.4356,-6.4106,-6.3963,-6.3679,-6.3481,-6.3309,-6.3194,-6.3079,-6.3079,-6.3079,-6.3079,-6.3079,-6.3079,-6.3079,-6.3079,-6.3079,-6.3079,-6.3079,-6.3079,-6.2929,-6.26,-6.2271,-6.1942,-6.1583,-6.0625,-5.9907,-5.9578,-5.9219,-5.889,-5.859,-5.7603,-5.6795,-5.6248,-5.5538,-5.5029,-5.467,-5.4371,-5.4012,-5.3623,-5.2965,-5.2486,0.0,0.0,0.0,0.0,-4.6449,0.0,0.0,0.0,0.0,0.0,0.0,0.0,0.0,-4.7619,0.0,0.0,0.0,0.0,0.0,0.0,0.0,0.0,0.0,0.0,0.0,0.0,0.0,0.0,0.0,0.0,0.0,0.0,0.0,-6.2671,-6.2117,-6.1748,-6.1656,-6.1071,-6.0794,-6.0794,-6.0794,-6.0794,-6.0794,-6.0794,-6.0794,0.0,0.0,0.0,-6.0794,-6.0794,-6.0794,-6.0794,-6.0794,-6.0794,-6.0886,-6.1563,-6.144,-6.1132,-6.2394,-6.2887,-6.3071,-6.3656,-6.3903,-6.4087,-6.4703,-6.4888,-6.4888,-6.4888,-6.4888,-6.4888,-6.4888,-6.4832,-6.4777,-6.4412,-6.4132,-6.388,-6.3595,-6.3309,-6.3194,-6.3252,-6.3194,-6.3194,-6.3194,-6.3137,-6.3079,-6.3079,-6.3079,-6.3079,-6.3079,-6.3079,-6.3079,-6.3079,-6.257,-6.2241,-6.2241,-6.1732,-6.1134,-6.0446,-6.0206,-5.9727,-5.8979,-5.8411,-5.7543,-5.6346,-5.5688,-5.5329,-5.5329,-5.467,-5.4371,-5.4341,-5.3653,-5.3025,-4.5311,-4.5926,-4.6203,-4.5157,-4.5741,-4.6296,-4.5195,0.0,0.0,0.0,0.0,0.0,0.0,0.0,0.0,0.0,0.0,0.0,0.0,0.0,0.0,0.0,0.0,0.0,0.0,0.0,0.0,0.0,0.0,0.0,0.0,0.0,0.0,-6.1994,-6.1871,-6.1532,-6.0948,-6.0855,-6.0794,-6.0794,-6.0794,-6.0794,-6.0794,-6.0794,-6.0794,0.0,0.0,-6.0794,-6.0794,-6.0794,-6.0794,-6.0794,-6.0794,-6.0794,-6.0886,-6.1563,-6.1748,-6.1779,-6.2548,-6.3195,-6.3687,-6.3779,-6.4241,-6.4764,-6.4857,-6.4888,-6.4888,-6.4888,-6.4888,-6.4888,-6.4888,-6.4691,-6.4412,-6.4132,-6.3823,-6.3565,-6.3538,-6.3481,-6.3538,-6.3823,-6.3652,-6.3424,-6.3424,-6.3252,-6.3079,-6.3079,-6.3079,-6.3079,-6.3079,-6.3079,-6.3079,-6.3079,-6.2989,-6.2929,-6.2929,-6.2839,-6.248,-6.1822,-6.0715,-5.9548,-5.8321,-5.8171,-5.7752,-5.6974,-5.6346,-5.6017,-5.6017,-5.5359,-5.5029,-5.5029,-5.4371,-5.4012,-4.5064,-4.5526,-4.5895,-4.528,-4.6142,-4.6973,-4.6357,-4.6419,0.0,0.0,0.0,0.0,0.0,0.0,0.0,0.0,0.0,0.0,0.0,0.0,0.0,0.0,0.0,0.0,0.0,0.0,0.0,0.0,0.0,0.0,0.0,0.0,0.0,0.0,-6.144,-6.1101,-6.0794,-6.0794,-6.0794,-6.0794,-6.0794,-6.0794,-6.0794,-6.0794,-6.0794,-6.0794,0.0,-6.0794,-6.0794,-6.0794,-6.0794,-6.0794,-6.0794,-6.0794,-6.0824,-6.1163,-6.1963,-6.2887,-6.2825,-6.3256,-6.3903,-6.4272,-6.4641,-6.4888,-6.4888,-6.4888,-6.4888,-6.4888,-6.4888,-6.4888,-6.4888,-6.4777,-6.4666,-6.4499,-6.4244,-6.4019,-6.4019,-6.3736,-6.3538,-6.3709,-6.3481,-6.3309,-6.3309,-6.3194,-6.3079,-6.3079,-6.3079,-6.3079,-6.3079,-6.3079,-6.3079,-6.3079,-6.3079,-6.3079,-6.3079,-6.3079,-6.266,-6.1613,-6.0625,-5.9668,-5.868,-5.8321,-5.7992,-5.7663,-5.7004,-5.6496,-5.6218,-5.5867,-5.5538,-5.5179,-5.488,-5.4551,-4.4826,-4.5072,-4.5423,-4.5694,0.0,-4.765,-4.7804,-4.7558,0.0,0.0,0.0,0.0,0.0,0.0,0.0,0.0,0.0,0.0,0.0,0.0,0.0,0.0,0.0,0.0,0.0,0.0,0.0,0.0,0.0,0.0,0.0,0.0,0.0,0.0,-6.1163,-6.0794,-6.0794,-6.0794,-6.0794,-6.0794,-6.0794,-6.0794,-6.0794,-6.0794,-6.0794,-6.0794,-6.0794,-6.0794,-6.0794,-6.0794,-6.0794,-6.0794,-6.0794,-6.0886,-6.104,-6.1225,-6.2364,-6.3749,-6.3225,-6.3502,-6.418,-6.4734,-6.4888,-6.4888,-6.4888,-6.4888,-6.4888,-6.4888,-6.4888,-6.4888,-6.4888,-6.4888,-6.4888,-6.4777,-6.4579,-6.4382,-6.4326,-6.3963,-6.3652,-6.3652,-6.3424,-6.3194,-6.3194,-6.3137,-6.3079,-6.3079,-6.3079,-6.3079,-6.3079,-6.3079,-6.3079,-6.3079,-6.3079,-6.3079,-6.3079,-6.3079,-6.257,-6.1433,-6.0565,-5.9787,-5.9129,-5.862,-5.8351,-5.8351,-5.7693,-5.7094,-5.6615,-5.6466,-5.6137,-5.5628,-5.5478,-5.5149,-4.4978,-4.4978,-4.493,-4.5999,-4.6904,-4.7773,-4.8389,-4.9035,0.0,-5.0328,0.0,0.0,0.0,0.0,0.0,0.0,0.0,0.0,0.0,0.0,0.0,0.0,0.0,0.0,0.0,0.0,0.0,0.0,0.0,0.0,0.0,0.0,0.0,0.0,0.0,-6.0794,-6.0794,-6.0794,-6.0794,-6.0794,-6.0794,-6.0794,-6.0794,-6.0794,-6.0794,-6.0794,-6.0794,-6.0794,-6.0794,-6.0794,-6.0794,-6.0794,-6.0794,-6.1194,-6.1809,-6.2456,-6.3164,-6.381,-6.3725,-6.421,-6.4826,-6.4888,-6.4888,-6.4888,-6.4888,-6.4888,-6.4888,-6.4888,-6.4888,-6.4888,-6.4888,-6.4888,-6.4832,-6.4524,-6.4437,-6.4326,-6.4075,-6.3993,-6.3993,-6.3993,-6.3709,-6.3481,-6.3481,-6.3252,-6.3079,-6.3079,-6.3079,-6.3079,-6.3079,-6.3079,-6.3079,-6.3079,-6.3079,-6.3079,-6.3079,-6.3079,-6.278,-6.2061,-6.0805,-5.9787,-5.9129,-5.9069,-5.9039,-5.9039,-5.8381,-5.8022,-5.7992,-5.7334,-5.7004,-5.6944,-5.6376,-5.6128,-4.3418,-4.4118,-4.469,-4.5166,-4.6447,0.0,0.0,-5.0451,-5.1005,-5.1282,-5.199,0.0,0.0,0.0,0.0,0.0,0.0,0.0,0.0,0.0,0.0,0.0,0.0,0.0,0.0,0.0,0.0,0.0,0.0,0.0,0.0,0.0,0.0,0.0,0.0,-6.0609,-6.0178,-6.0178,-6.0178,-6.0178,-6.0609,-6.0794,-6.0794,-6.0794,-6.0794,-6.0794,-6.0794,-6.0794,-6.0794,-6.0794,-6.0794,-6.0794,-6.0794,-6.1471,-6.2425,-6.224,-6.3164,-6.4426,-6.3995,-6.4303,-6.4888,-6.4888,-6.4888,-6.4888,-6.4888,-6.4888,-6.4888,-6.4888,-6.4888,-6.4888,-6.4888,-6.4888,-6.4888,-6.4777,-6.4691,-6.4635,-6.43,-6.4132,-6.3936,-6.3766,-6.3481,-6.3252,-6.3252,-6.3194,-6.3079,-6.3079,-6.3079,-6.3079,-6.3079,-6.3079,-6.3079,-6.3079,-6.3079,-6.3079,-6.3079,-6.3079,-6.278,-6.2121,-6.1224,-6.0416,-5.9727,-5.9308,-5.9099,-5.9099,-5.886,-5.853,-5.8112,-5.7872,-5.7513,-5.7094,-5.6855,-5.6526,-4.2688,-4.3519,-4.4349,0.0,0.0,0.0,-5.0393,-5.1506,-5.2329,-5.3406,-5.3683,0.0,0.0,0.0,0.0,0.0,0.0,0.0,0.0,0.0,0.0,0.0,0.0,0.0,0.0,0.0,0.0,0.0,0.0,0.0,0.0,0.0,0.0,0.0,0.0,-6.0055,-5.9778,-5.9778,-5.9778,-5.9809,-6.0486,-6.0701,-6.0486,-6.0701,-6.0671,-6.0486,-6.0701,-6.0794,-6.0794,-6.0794,-6.0794,-6.0824,-6.1255,-6.1871,-6.2517,-6.2702,-6.3533,-6.4518,-6.4241,-6.4487,-6.4888,-6.4888,-6.4888,-6.4888,-6.4888,-6.4888,-6.4888,-6.4888,-6.4888,-6.4888,-6.4888,-6.4888,-6.4888,-6.4888,-6.4888,-6.4832,-6.4437,-6.4244,-6.4019,-6.3709,-6.3424,-6.3252,-6.3252,-6.3137,-6.3079,-6.3079,-6.3079,-6.3079,-6.3079,-6.3079,-6.3079,-6.3079,-6.3079,-6.3079,-6.3079,-6.3079,-6.2869,-6.2421,-6.1792,-6.1014,-6.0116,-5.9668,-5.9308,-5.9099,-5.9099,-5.889,-5.8441,-5.8441,-5.8201,-5.7723,-5.7304,-5.6855,-4.3129,-4.3418,-4.3835,0.0,0.0,0.0,-5.0713,-5.2109,-5.3652,-5.7069,0.0,0.0,0.0,0.0,0.0,0.0,0.0,0.0,0.0,0.0,0.0,0.0,0.0,0.0,0.0,0.0,0.0,0.0,0.0,0.0,0.0,0.0,0.0,0.0,0.0,0.0,-5.9747,-5.9778,-5.9778,-5.9778,-6.0455,-6.0424,-5.9809,-6.0486,-6.0424,-5.9839,-6.0517,-6.0794,-6.0794,-6.0794,-6.0794,-6.0948,-6.2271,-6.2394,-6.2056,-6.4118,-6.4426,-6.3933,-6.4641,-6.4888,-6.4888,-6.4888,-6.4888,-6.4888,-6.4888,-6.4888,-6.4888,-6.4888,-6.4888,-6.4888,-6.4888,-6.4888,-6.4888,-6.4888,-6.4888,-6.4832,-6.4437,-6.4382,-6.4326,-6.4049,-6.3709,-6.3538,-6.3538,-6.3309,-6.3079,-6.3079,-6.3079,-6.3079,-6.3079,-6.3079,-6.3079,-6.3079,-6.3079,-6.3079,-6.3079,-6.3079,-6.3079,-6.3079,-6.248,-6.1493,-6.0146,-6.0086,-5.9787,-5.9129,-5.9099,-5.9099,-5.9099,-5.9099,-5.9099,-5.9069,-5.7723,-5.7094,-4.0859,0.0,0.0,-4.3777,0.0,0.0,0.0,-5.0952,0.0,0.0,0.0,0.0,0.0,0.0,0.0,0.0,0.0,0.0,0.0,0.0,0.0,0.0,0.0,0.0,0.0,0.0,0.0,0.0,0.0,0.0,0.0,0.0,0.0,0.0,0.0,0.0,-5.8362,-5.8362,-5.8362,-5.8362,-5.907,-5.9532,-5.9809,-6.0486,-6.0701,-6.0517,-6.0701,-6.0794,-6.0794,-6.0794,-6.0794,-6.0824,-6.1255,-6.1871,-6.2579,-6.3225,-6.3933,-6.4611,-6.4826,-6.4888,-6.4888,-6.4888,-6.4888,-6.4888,-6.4888,-6.4888,-6.4888,-6.4888,-6.4888,-6.4888,-6.4888,-6.4888,-6.4888,-6.4888,-6.4888,-6.4832,-6.4437,-6.4382,-6.4214,-6.3766,-6.3595,-6.3481,-6.3252,-6.3137,-6.3079,-6.3079,-6.3079,-6.3079,-6.3079,-6.3079,-6.3079,-6.3079,-6.3079,-6.3079,-6.3079,-6.3079,-6.3079,-6.3079,-6.2899,-6.2181,-6.0864,-6.0356,-5.9787,-5.9129,-5.9099,-5.9099,-5.9099,-5.9099,-5.9099,-5.9069,-5.8231,-5.7573,-4.0602,0.0,0.0,-4.4301,-4.6056,-4.7884,-4.9502,0.0,0.0,0.0,0.0,0.0,0.0,0.0,0.0,0.0,0.0,0.0,0.0,0.0,0.0,0.0,0.0,0.0,0.0,0.0,0.0,0.0,0.0,0.0,0.0,0.0,0.0,0.0,0.0,0.0,-5.7826,-5.7826,-5.7826,-5.7826,-5.8454,-5.9008,-5.9408,-6.0363,-6.064,-6.0424,-6.0671,-6.0794,-6.0794,-6.0794,-6.0794,-6.0824,-6.1101,-6.1686,-6.2487,-6.301,-6.3749,-6.4518,-6.4795,-6.4888,-6.4888,-6.4888,-6.4888,-6.4888,-6.4888,-6.4888,-6.4888,-6.4888,-6.4888,-6.4888,-6.4888,-6.4888,-6.4888,-6.4888,-6.4888,-6.4832,-6.4635,-6.4579,-6.4468,-6.4162,-6.3963,-6.3793,-6.3538,-6.3367,-6.3252,-6.3137,-6.3079,-6.3079,-6.3079,-6.3079,-6.3079,-6.3079,-6.3079,-6.3079,-6.3079,-6.3079,-6.3079,-6.3079,-6.3079,-6.26,-6.1553,-6.0864,-6.0057,-5.9129,-5.9099,-5.9099,-5.9099,-5.9099,-5.9099,-5.9099,-5.8441,-5.7752,-4.155,0.0,0.0,-4.5756,-4.6852,0.0,0.0,0.0,0.0,0.0,0.0,0.0,0.0,0.0,0.0,0.0,0.0,0.0,0.0,0.0,0.0,0.0,0.0,0.0,0.0,0.0,0.0,0.0,0.0,0.0,0.0,0.0,0.0,0.0,0.0,0.0,-5.7734,-5.7734,-5.7734,0.0,-5.8362,-5.8701,-5.8731,-6.0086,-6.0393,-5.9932,-6.0547,-6.0794,-6.0794,-6.0794,-6.0794,-6.0855,-6.1532,-6.184,-6.2056,-6.3349,-6.3872,-6.4026,-6.4672,-6.4888,-6.4888,-6.4888,-6.4888,-6.4888,-6.4888,-6.4888,-6.4888,-6.4888,-6.4888,-6.4888,-6.4888,-6.4888,-6.4888,-6.4888,-6.4888,-6.4888,-6.4888,-6.4888,-6.4888,-6.4832,-6.4635,-6.43,-6.3993,-6.3709,-6.3424,-6.3137,-6.3079,-6.3079,-6.3079,-6.3079,-6.3079,-6.3079,-6.3079,-6.3079,-6.3079,-6.3079,-6.3079,-6.3079,-6.3079,-6.278,-6.2121,-6.1523,-6.0595,-5.9308,-5.9219,-5.9189,-5.9189,-5.9129,-5.9099,-5.9099,-5.8441,-5.7752,0.0,-4.1352,0.0,0.0,-4.6484,0.0,0.0,0.0,0.0,0.0,0.0,0.0,0.0,0.0,0.0,0.0,0.0,0.0,0.0,0.0,0.0,0.0,0.0,0.0,0.0,0.0,0.0,0.0,0.0,0.0,0.0,0.0,0.0,0.0,0.0,-5.6871,-5.7025,-5.7025,-5.7025,0.0,-5.7703,-5.8042,-5.8073,-5.9378,-6.0209,-6.0578,-6.0732,-6.0794,-6.0794,-6.0794,-6.0794,-6.0855,-6.1532,-6.2148,-6.2702,-6.3533,-6.418,-6.4703,-6.4826,-6.4888,-6.4888,-6.4888,-6.4888,-6.4888,-6.4888,-6.4888,-6.4888,-6.4888,-6.4888,-6.4888,-6.4888,-6.4888,-6.4888,-6.4888,-6.4888,-6.4888,-6.4888,-6.4888,-6.4832,-6.4579,-6.4437,-6.4214,-6.3709,-6.3538,-6.3424,-6.3137,-6.3079,-6.3079,-6.3079,-6.3079,-6.3079,-6.3079,-6.3079,-6.3079,-6.3079,-6.3079,-6.3079,-6.3079,-6.3079,-6.278,-6.2121,-6.1972,-6.1493,-6.0715,-6.0146,-5.9877,-5.9877,-5.9368,-5.9099,-5.9099,-5.8441,-5.7752,0.0,0.0,0.0,-4.5483,0.0,0.0,0.0,0.0,0.0,0.0,0.0,0.0,0.0,0.0,0.0,0.0,0.0,0.0,0.0,0.0,0.0,0.0,0.0,0.0,0.0,0.0,0.0,0.0,0.0,0.0,0.0,0.0,0.0,0.0,-5.681,-5.681,-5.681,-5.681,-5.681,-5.681,-5.7179,-5.7672,-5.83,-5.9316,-5.9993,-6.0332,-6.0671,-6.0609,-6.0332,-6.0671,-6.0609,-6.0393,-6.1071,-6.1532,-6.1963,-6.2979,-6.3564,-6.3995,-6.4672,-6.4888,-6.4888,-6.4888,-6.4888,-6.4888,-6.4888,-6.4888,-6.4888,-6.4888,-6.4888,-6.4888,-6.4888,-6.4888,-6.4888,-6.4888,-6.4888,-6.4888,-6.4888,-6.4888,-6.4832,-6.4635,-6.4635,-6.4412,-6.388,-6.3481,-6.3252,-6.3137,-6.3079,-6.3079,-6.3079,-6.3079,-6.3079,-6.3079,-6.3079,-6.3079,-6.3079,-6.3079,-6.3079,-6.3079,-6.3079,-6.2929,-6.257,-6.257,-6.2121,-6.1134,-6.0775,-6.0416,-6.0086,-5.9727,-5.9398,-5.9099,-5.874,-5.8231,0.0,0.0,-4.2923,-4.6845,0.0,0.0,0.0,0.0,0.0,0.0,0.0,0.0,0.0,0.0,0.0,0.0,0.0,0.0,0.0,0.0,0.0,0.0,0.0,0.0,0.0,0.0,0.0,0.0,0.0,0.0,0.0,0.0,-5.681,-5.681,-5.681,-5.681,-5.681,-5.681,-5.681,-5.681,-5.681,-5.7395,-5.8454,-5.9255,-5.9747,-5.9993,-6.0547,-6.0486,-6.0024,-6.0578,-6.0455,-6.0024,-6.0701,-6.104,-6.1286,-6.2548,-6.3071,-6.3349,-6.4487,-6.4888,-6.4888,-6.4888,-6.4888,-6.4888,-6.4888,-6.4888,-6.4888,-6.4888,-6.4888,-6.4888,-6.4888,-6.4888,-6.4888,-6.4888,-6.4888,-6.4888,-6.4888,-6.4888,-6.4888,-6.4888,-6.4832,-6.4666,-6.4106,-6.3538,-6.3137,-6.3137,-6.3079,-6.3079,-6.3079,-6.3079,-6.3079,-6.3079,-6.3079,-6.3079,-6.3079,-6.3079,-6.3079,-6.3079,-6.3079,-6.3079,-6.3079,-6.3079,-6.257,-6.1463,-6.1343,-6.1014,-6.0416,-6.0206,-5.9787,-5.9279,-5.9159,-5.874,0.0,0.0,-4.3333,0.0,0.0,0.0,0.0,0.0,0.0,0.0,0.0,0.0,0.0,0.0,0.0,0.0,0.0,0.0,0.0,0.0,0.0,0.0,0.0,0.0,0.0,0.0,0.0,0.0,0.0,0.0,0.0,-5.681,-5.681,-5.681,-5.681,-5.681,-5.681,-5.681,-5.681,-5.681,-5.681,-5.6902,-5.7118,-5.8331,-5.9562,-6.0671,-6.0763,-6.0763,-6.0671,-6.0763,-6.0763,-6.0732,-6.1409,-6.2025,-6.2641,-6.341,-6.4087,-6.4641,-6.4826,-6.4888,-6.4888,-6.4888,-6.4888,-6.4888,-6.4888,-6.4888,-6.4888,-6.4888,-6.4888,-6.4888,-6.4888,-6.4888,-6.4888,-6.4888,-6.4888,-6.4888,-6.4888,-6.4888,-6.4888,-6.4888,-6.4635,-6.4356,-6.4049,-6.3709,-6.3367,-6.3137,-6.3079,-6.3079,-6.3079,-6.3079,-6.3079,-6.3079,-6.3079,-6.3079,-6.3079,-6.3079,-6.3079,-6.3079,-6.3079,-6.3079,-6.3079,-6.3079,-6.2989,-6.281,-6.2241,-6.1912,-6.1822,-6.0655,-6.0027,-5.9937,-5.9368,-5.874,-3.9551,-4.0769,0.0,0.0,0.0,0.0,0.0,0.0,0.0,0.0,0.0,0.0,0.0,0.0,0.0,0.0,0.0,0.0,0.0,0.0,0.0,0.0,0.0,0.0,0.0,0.0,0.0,0.0,0.0,0.0,-5.681,-5.681,-5.681,-5.681,-5.681,-5.681,-5.681,-5.681,-5.681,-5.681,-5.7179,-5.7364,-5.7426,-5.8731,-5.947,-5.9716,-6.0455,-6.0578,-6.027,-6.064,-6.0794,-6.0855,-6.1532,-6.221,-6.2887,-6.3564,-6.4026,-6.4364,-6.4764,-6.4888,-6.4888,-6.4888,-6.4888,-6.4888,-6.4888,-6.4888,-6.4888,-6.4888,-6.4888,-6.4888,-6.4888,-6.4888,-6.4888,-6.4888,-6.4888,-6.5011,-6.538,-6.5165,-6.5011,-6.538,-6.5494,-6.5334,-6.4854,-6.4395,-6.3873,-6.3427,-6.3194,-6.3079,-6.3079,-6.3079,-6.3079,-6.3079,-6.3079,-6.3079,-6.3079,-6.3079,-6.3079,-6.3079,-6.3079,-6.3079,-6.3079,-6.3079,-6.3079,-6.3079,-6.278,-6.248,-6.2091,-6.1493,-6.0805,-6.0086,-5.9787,-5.9308,0.0,0.0,0.0,0.0,0.0,0.0,0.0,0.0,0.0,0.0,0.0,0.0,0.0,0.0,0.0,0.0,0.0,0.0,0.0,0.0,0.0,0.0,0.0,0.0,0.0,0.0,0.0,0.0,0.0,0.0,-5.6532,-5.6532,-5.6625,-5.681,-5.6625,-5.6625,-5.681,-5.681,-5.681,-5.681,-5.7333,-5.758,-5.7611,-5.8916,-5.9255,-5.8854,-6.0024,-6.0363,-6.0086,-6.0393,-6.064,-6.0855,-6.1532,-6.221,-6.2887,-6.3564,-6.3933,-6.418,-6.4703,-6.4888,-6.4888,-6.4888,-6.4888,-6.4888,-6.4888,-6.4888,-6.4888,-6.4888,-6.4888,-6.4888,-6.4888,-6.4888,-6.4888,-6.4888,-6.4888,-6.5072,-6.575,-6.5657,-6.5509,-6.5945,-6.6265,-6.6189,-6.5555,-6.5062,-6.4503,-6.3755,-6.3492,-6.3258,-6.3109,-6.3079,-6.3079,-6.3079,-6.3079,-6.3079,-6.3079,-6.3079,-6.3079,-6.3079,-6.3079,-6.3079,-6.3079,-6.3079,-6.3079,-6.3079,-6.3079,-6.2839,-6.2331,-6.2181,-6.1583,-6.0595,-6.0236,-5.9817,0.0,0.0,0.0,0.0,0.0,0.0,0.0,0.0,0.0,0.0,0.0,0.0,0.0,0.0,0.0,0.0,0.0,0.0,0.0,0.0,0.0,0.0,0.0,0.0,0.0,0.0,0.0,0.0,0.0,0.0,-5.5776,-5.5745,-5.6053,-5.6779,-5.6115,-5.6084,-5.681,-5.681,-5.681,-5.681,-5.684,-5.6871,-5.6902,-5.8258,-5.8824,-5.8824,-5.9532,-6.0178,-6.0701,-6.0086,-6.0209,-6.0855,-6.1532,-6.221,-6.2887,-6.3564,-6.4241,-6.4857,-6.4888,-6.4888,-6.4888,-6.4888,-6.4888,-6.4888,-6.4888,-6.4888,-6.4888,-6.4888,-6.4888,-6.4888,-6.4888,-6.4888,-6.4888,-6.4888,-6.4888,-6.5072,-6.575,-6.6396,-6.6713,-6.6457,-6.643,-6.6199,-6.5585,-6.5437,-6.5109,-6.4095,-6.3947,-6.3737,-6.3139,-6.3079,-6.3079,-6.3079,-6.3079,-6.3079,-6.3079,-6.3079,-6.3079,-6.3079,-6.3079,-6.3079,-6.3079,-6.3079,-6.3079,-6.3079,-6.3079,-6.3049,-6.3019,-6.2391,-6.2061,-6.1972,-6.0685,-6.0057,0.0,0.0,0.0,0.0,0.0,0.0,0.0,0.0,0.0,0.0,0.0,0.0,0.0,0.0,0.0,0.0,0.0,0.0,0.0,0.0,0.0,0.0,0.0,0.0,0.0,0.0,0.0,0.0,0.0,0.0,-5.5099,-5.5068,-5.5376,-5.6053,-5.5838,-5.6023,-5.681,-5.681,-5.681,-5.681,-5.681,-5.681,-5.6871,-5.8227,-5.8793,-5.8793,-5.9039,-5.9532,-6.0178,-6.0363,-6.0578,-6.0917,-6.2025,-6.2856,-6.3564,-6.4241,-6.4672,-6.4888,-6.4888,-6.4888,-6.4888,-6.4888,-6.4888,-6.4888,-6.4888,-6.4888,-6.4888,-6.4888,-6.4888,-6.4888,-6.4888,-6.4888,-6.5011,-6.5442,-6.6011,-6.6572,-6.6817,-6.7208,-6.745,-6.713,-6.7408,-6.7444,-6.6546,-6.6249,-6.571,-6.4479,-6.4123,-6.3767,-6.3169,-6.3079,-6.3079,-6.3079,-6.3079,-6.3079,-6.3079,-6.3079,-6.3079,-6.3079,-6.3079,-6.3079,-6.3079,-6.3079,-6.3079,-6.3079,-6.3079,-6.3079,-6.3079,-6.2839,-6.251,-6.2091,-6.1613,-6.0924,0.0,0.0,0.0,0.0,0.0,0.0,0.0,0.0,0.0,0.0,0.0,0.0,0.0,0.0,0.0,0.0,0.0,0.0,0.0,0.0,0.0,0.0,0.0,0.0,0.0,0.0,0.0,0.0,0.0,0.0,-5.4345,-5.456,-5.4914,-5.5345,-5.5807,-5.6224,-5.644,-5.6686,-5.681,-5.681,-5.681,-5.6933,-5.7179,-5.827,-5.8916,-5.9131,-5.9347,-5.9716,-6.0116,-6.0116,-6.0517,-6.1255,-6.2364,-6.3225,-6.3903,-6.4641,-6.4888,-6.4888,-6.4888,-6.4888,-6.4888,-6.4888,-6.4888,-6.4888,-6.4888,-6.4888,-6.4888,-6.4888,-6.4888,-6.4949,-6.5165,-6.5411,-6.5688,-6.615,-6.6844,-6.7408,-6.7408,-6.765,-6.7834,-6.7509,-6.7815,-6.7847,-6.7034,-6.6794,-6.6282,-6.517,-6.4603,-6.4126,-6.3468,-6.3199,-6.3079,-6.3079,-6.3079,-6.3079,-6.3079,-6.3079,-6.3079,-6.3079,-6.3079,-6.3079,-6.3079,-6.3079,-6.3079,-6.3079,-6.3079,-6.3079,-6.3079,-6.3079,-6.2839,-6.2421,-6.2181,-6.1493,0.0,0.0,0.0,0.0,0.0,0.0,0.0,0.0,0.0,0.0,0.0,0.0,0.0,0.0,0.0,0.0,0.0,0.0,0.0,0.0,0.0,0.0,0.0,0.0,0.0,0.0,0.0,0.0,0.0,-5.4345,-5.3714,-5.4314,-5.4683,-5.4714,-5.6053,-5.644,-5.5745,-5.644,-5.6779,-5.681,-5.684,-5.7179,-5.7857,-5.8485,-5.9162,-5.9809,-6.0486,-6.0763,-6.0671,-5.9378,-5.9993,-6.184,-6.2548,-6.3225,-6.3903,-6.4641,-6.4888,-6.4888,-6.4888,-6.4888,-6.4888,-6.4888,-6.4888,-6.4888,-6.4888,-6.4888,-6.4888,-6.4888,-6.4888,-6.5042,-6.5719,-6.6396,-6.6919,-6.695,-6.7212,-6.7408,-6.7439,-6.7722,-6.791,-6.7548,-6.7487,-6.7426,-6.706,-6.6999,-6.6759,-6.6101,-6.5473,-6.4814,-6.4096,-6.3468,-6.3109,-6.3079,-6.3079,-6.3079,-6.3079,-6.3079,-6.3079,-6.3079,-6.3079,-6.3079,-6.3079,-6.3079,-6.3079,-6.3079,-6.3079,-6.3079,-6.3079,-6.3079,-6.3079,-6.3049,-6.2391,-6.1762,-4.0264,0.0,0.0,0.0,0.0,0.0,0.0,0.0,0.0,0.0,0.0,0.0,0.0,0.0,0.0,0.0,0.0,0.0,0.0,0.0,0.0,0.0,0.0,0.0,0.0,0.0,0.0,0.0,-5.3437,-5.3191,-5.3006,-5.4037,-5.4898,-5.5407,-5.5807,-5.6146,-5.6502,-5.6146,-5.6238,-5.681,-5.7303,-5.7641,-5.7857,-5.8978,-5.9347,-5.9101,-5.9778,-6.0086,-6.0086,-6.0178,-6.0578,-6.1194,-6.2364,-6.3225,-6.3903,-6.4641,-6.4888,-6.4888,-6.4888,-6.4888,-6.4888,-6.4888,-6.4888,-6.4888,-6.4888,-6.4888,-6.4888,-6.4888,-6.4888,-6.5042,-6.5719,-6.6396,-6.6985,-6.7185,-6.7535,-6.7786,-6.7546,-6.7336,-6.7304,-6.7487,-6.7487,-6.7426,-6.706,-6.6999,-6.6759,-6.6101,-6.5862,-6.5323,-6.4156,-6.3857,-6.3558,-6.3139,-6.3079,-6.3079,-6.3079,-6.3079,-6.3079,-6.3079,-6.3079,-6.3079,-6.3079,-6.3079,-6.3079,-6.3079,-6.3079,-6.3079,-6.3079,-6.3079,-6.3079,-6.3049,-6.2391,-6.2241,0.0,0.0,0.0,0.0,0.0,0.0,0.0,-4.4308,0.0,0.0,0.0,0.0,0.0,0.0,0.0,0.0,0.0,0.0,0.0,0.0,0.0,0.0,0.0,0.0,0.0,0.0,0.0,0.0,-5.2944,-5.2821,-5.3129,-5.3853,-5.4483,-5.4853,-5.513,-5.5345,-5.5499,-5.5622,-5.5899,-5.6378,-5.7056,-5.7703,-5.8258,-5.9008,-5.947,-5.9655,-6.0055,-6.0209,-6.027,-6.0948,-6.1379,-6.1717,-6.2517,-6.341,-6.4334,-6.4734,-6.4888,-6.4888,-6.4888,-6.4888,-6.4888,-6.4888,-6.4888,-6.4888,-6.4888,-6.4888,-6.4888,-6.4888,-6.5103,-6.5355,-6.5612,-6.641,-6.7123,-6.7199,-6.7513,-6.7729,-6.7548,-6.7243,-6.706,-6.7243,-6.7304,-6.7243,-6.706,-6.6999,-6.6849,-6.649,-6.5951,-6.5323,-6.4545,-6.3947,-6.3468,-6.3109,-6.3318,-6.3348,-6.3109,-6.3318,-6.3348,-6.3079,-6.3079,-6.3079,-6.3079,-6.3079,-6.3079,-6.3079,-6.3079,-6.3079,-6.3079,-6.3079,-6.3079,-6.3079,-6.269,-6.272,0.0,0.0,0.0,0.0,0.0,0.0,-4.5311,-4.4899,-4.4398,0.0,0.0,0.0,0.0,0.0,0.0,0.0,0.0,0.0,0.0,0.0,0.0,0.0,0.0,0.0,0.0,0.0,-5.2606,-5.2606,-5.2667,-5.3006,-5.3683,-5.376,-5.3791,-5.3791,-5.4437,-5.4498,-5.396,-5.5099,-5.5745,-5.5807,-5.6656,-5.7672,-5.8793,-5.8947,-5.9624,-6.0701,-6.0855,-6.0886,-6.0855,-6.1594,-6.2271,-6.2825,-6.2887,-6.3749,-6.4888,-6.4888,-6.4888,-6.4888,-6.4888,-6.4888,-6.4888,-6.4888,-6.4888,-6.4888,-6.4888,-6.4888,-6.4888,-6.4888,-6.538,-6.5791,-6.557,-6.643,-6.7291,-6.7118,-6.7275,-6.7487,-6.7487,-6.7243,-6.6999,-6.6999,-6.6999,-6.6999,-6.6999,-6.6999,-6.6999,-6.6999,-6.5922,-6.5054,-6.5054,-6.3947,-6.3139,-6.3079,-6.3558,-6.3677,-6.3139,-6.3588,-6.3647,-6.3109,-6.3079,-6.3079,-6.3079,-6.3079,-6.3079,-6.3079,-6.3079,-6.3079,-6.3079,-6.3079,-6.3079,-6.3079,-6.3079,-6.3079,0.0,0.0,0.0,0.0,0.0,0.0,-4.4627,-4.4569,-4.4669,0.0,0.0,0.0,0.0,0.0,0.0,0.0,0.0,0.0,0.0,0.0,0.0,0.0,0.0,0.0,0.0,0.0,-5.1898,-5.1898,-5.2421,-5.3006,-5.3683,-5.4191,-5.4468,-5.4468,-5.5161,-5.5438,-5.5315,-5.5561,-5.5992,-5.6625,-5.7857,-5.8516,-5.8824,-5.9901,-6.024,-6.0055,-6.1132,-6.1317,-6.0886,-6.2117,-6.2702,-6.2856,-6.341,-6.4149,-6.4888,-6.4888,-6.4888,-6.4888,-6.4888,-6.4888,-6.4888,-6.4888,-6.4888,-6.4888,-6.4888,-6.4888,-6.4888,-6.4888,-6.5213,-6.5631,-6.6094,-6.6564,-6.7059,-6.7336,-6.7457,-6.7426,-6.7182,-6.706,-6.6999,-6.6999,-6.6999,-6.6999,-6.6999,-6.6999,-6.6999,-6.6999,-6.6311,-6.5622,-6.5114,-6.4306,-6.3617,-6.3139,-6.3199,-6.3199,-6.3079,-6.3199,-6.3199,-6.3079,-6.3079,-6.3079,-6.3079,-6.3079,-6.3079,-6.3079,-6.3079,-6.3079,-6.3079,-6.3079,-6.3079,-6.3079,-6.3079,-6.3079,0.0,0.0,0.0,-4.68,0.0,0.0,0.0,-4.4877,-4.4618,0.0,0.0,0.0,0.0,0.0,0.0,0.0,0.0,0.0,0.0,0.0,0.0,0.0,0.0,0.0,0.0,0.0,-5.1344,-5.1682,-5.2329,-5.2852,-5.3191,-5.3868,-5.4191,-5.4191,-5.4853,-5.5222,-5.5222,-5.553,-5.6053,-5.681,-5.7857,-5.8639,-5.9316,-5.9993,-6.0301,-6.0332,-6.1379,-6.1625,-6.1409,-6.2764,-6.3318,-6.3349,-6.3687,-6.4272,-6.4888,-6.4888,-6.4888,-6.4888,-6.4888,-6.4888,-6.4888,-6.4888,-6.4888,-6.4888,-6.4888,-6.4777,-6.4635,-6.4635,-6.5014,-6.5425,-6.5447,-6.6179,-6.688,-6.6764,-6.7003,-6.7243,-6.706,-6.6999,-6.6999,-6.6999,-6.6999,-6.6999,-6.6999,-6.6999,-6.6999,-6.6999,-6.643,-6.5892,-6.5562,-6.4934,-6.4246,-6.3617,-6.3857,-6.3917,-6.3558,-6.3528,-6.3528,-6.3528,-6.3258,-6.3079,-6.3079,-6.3079,-6.3079,-6.3079,-6.3079,-6.3079,-6.3079,-6.3079,-6.3079,-6.3079,-6.3079,-6.3079,0.0,0.0,0.0,0.0,0.0,-4.6429,0.0,0.0,0.0,0.0,0.0,0.0,0.0,0.0,0.0,0.0,0.0,0.0,0.0,0.0,0.0,0.0,0.0,0.0,0.0,0.0,-5.0913,-5.1467,-5.2267,-5.2637,-5.2513,-5.3283,-5.3714,-5.3714,-5.4514,-5.4914,-5.4914,-5.5561,-5.6317,-5.7025,-5.7703,-5.8608,-5.9809,-6.0055,-6.0393,-6.0855,-6.1779,-6.2117,-6.2117,-6.3472,-6.4026,-6.4026,-6.4026,-6.4395,-6.4888,-6.4888,-6.4888,-6.4888,-6.4888,-6.4888,-6.4888,-6.4888,-6.4832,-6.4777,-6.4777,-6.4727,-6.4565,-6.4509,-6.5089,-6.5559,-6.5011,-6.5887,-6.6822,-6.6312,-6.661,-6.6999,-6.6999,-6.6999,-6.6999,-6.6999,-6.6999,-6.6999,-6.6999,-6.6999,-6.6999,-6.6999,-6.643,-6.6011,-6.6011,-6.5443,-6.4814,-6.4246,-6.4695,-6.4814,-6.4246,-6.4066,-6.4006,-6.4006,-6.3408,-6.3079,-6.3079,-6.3079,-6.3079,-6.3079,-6.3079,-6.3079,-6.3079,-6.3079,-6.3079,-6.3079,-6.3079,-6.3079,0.0,0.0,0.0,0.0,-4.7249,0.0,0.0,0.0,0.0,0.0,0.0,0.0,0.0,0.0,0.0,0.0,0.0,0.0,0.0,0.0,0.0,0.0,0.0,0.0,0.0,0.0,0.0,-5.082,-5.199,-5.2452,-5.1867,-5.3037,-5.3714,-5.3714,-5.4945,-5.5592,-5.5592,-5.6317,-5.7025,-5.7703,-5.8381,-5.907,-5.9839,-6.104,-6.1286,-6.0886,-6.2794,-6.3256,-6.2794,-6.421,-6.4764,-6.4764,-6.4764,-6.4826,-6.4888,-6.4888,-6.4888,-6.4888,-6.4888,-6.4888,-6.4888,-6.4888,-6.4691,-6.4437,-6.4437,-6.4866,-6.5211,-6.4927,-6.5781,-6.6636,-6.637,-6.6643,-6.7001,-6.6879,-6.6939,-6.6999,-6.6999,-6.6999,-6.6999,-6.6999,-6.6999,-6.6999,-6.6999,-6.6999,-6.6999,-6.6999,-6.643,-6.6011,-6.6011,-6.5443,-6.4994,-6.4875,-6.4934,-6.4994,-6.4904,-6.4366,-6.4006,-6.4006,-6.3408,-6.3079,-6.3079,-6.3079,-6.3079,-6.3079,-6.3079,-6.3079,-6.3079,-6.3079,-6.3079,-6.3079,-6.3079,-6.3079,0.0,0.0,0.0,0.0,0.0,0.0,0.0,0.0,-4.6399,0.0,0.0,0.0,0.0,0.0,0.0,0.0,0.0,0.0,0.0,0.0,0.0,0.0,0.0,0.0,0.0,0.0,0.0,0.0,0.0,-5.2021,-5.1713,-5.2606,-5.3498,-5.4268,-5.5191,-5.5899,-5.6347,-5.7056,-5.7734,-5.8362,-5.9039,-5.9716,-6.0393,-6.0948,-6.1286,-6.144,-6.2702,-6.3287,-6.3472,-6.4487,-6.4888,-6.4888,-6.4888,-6.4888,-6.4888,-6.4888,-6.4888,-6.4888,-6.4888,-6.4888,-6.4888,-6.4635,-6.4524,-6.4382,-6.4244,-6.4232,-6.4274,-6.4159,-6.5039,-6.6008,-6.5741,-6.6463,-6.7243,-6.706,-6.6999,-6.6999,-6.6999,-6.6999,-6.6999,-6.6999,-6.6999,-6.6999,-6.6999,-6.6999,-6.6999,-6.6999,-6.6759,-6.658,-6.658,-6.634,-6.6011,-6.5652,-6.5263,-6.5024,-6.5024,-6.4395,-6.4006,-6.4006,-6.3408,-6.3079,-6.3079,-6.3079,-6.3079,-6.3079,-6.3079,-6.3079,-6.3079,-6.3079,-6.3079,-6.3079,-6.3079,-6.3079,-4.7967,0.0,0.0,0.0,0.0,0.0,0.0,0.0,0.0,0.0,0.0,0.0,0.0,0.0,0.0,0.0,0.0,0.0,0.0,0.0,0.0,0.0,0.0,0.0,0.0,0.0,0.0,0.0,-5.1036,0.0,-5.1436,-5.2236,-5.3345,-5.4652,-5.5345,-5.6115,-5.7087,-5.7395,-5.8073,-5.907,-5.9378,-5.9963,-6.0824,-6.1194,-6.1502,-6.1871,-6.2918,-6.3564,-6.3872,-6.4611,-6.4888,-6.4888,-6.4888,-6.4888,-6.4888,-6.4888,-6.4888,-6.4888,-6.4888,-6.4832,-6.4721,-6.4412,-6.4244,-6.4132,-6.3936,-6.383,-6.3722,-6.3665,-6.4686,-6.571,-6.5353,-6.6312,-6.7304,-6.706,-6.6999,-6.6999,-6.6999,-6.6999,-6.6999,-6.6999,-6.6999,-6.6999,-6.6999,-6.6999,-6.6999,-6.6999,-6.6999,-6.6999,-6.6999,-6.6999,-6.6819,-6.634,-6.5862,-6.5503,-6.5323,-6.4665,-6.4126,-6.3767,-6.3318,-6.3079,-6.3079,-6.3079,-6.3079,-6.3079,-6.3079,-6.3079,-6.3079,-6.3079,-6.3079,-6.3079,-6.3079,-6.3079,0.0,0.0,0.0,-4.8416,0.0,0.0,0.0,0.0,-4.8237,0.0,0.0,0.0,0.0,0.0,0.0,0.0,0.0,0.0,0.0,0.0,0.0,0.0,0.0,0.0,0.0,0.0,0.0,-5.0759,-5.1313,-5.1405,-5.0759,-5.199,-5.3345,-5.4652,-5.5345,-5.6361,-5.7765,-5.7179,-5.7857,-5.9747,-5.9131,-5.9501,-6.0855,-6.2148,-6.2394,-6.1933,-6.3933,-6.4457,-6.3872,-6.4611,-6.4888,-6.4888,-6.4888,-6.4888,-6.4888,-6.4888,-6.4888,-6.4888,-6.4888,-6.4691,-6.4382,-6.4075,-6.3823,-6.3538,-6.3538,-6.396,-6.4385,-6.4093,-6.5171,-6.6402,-6.6042,-6.649,-6.6999,-6.6999,-6.6999,-6.6999,-6.6999,-6.6999,-6.6999,-6.6999,-6.6999,-6.6999,-6.6999,-6.6999,-6.6999,-6.6999,-6.6999,-6.6999,-6.6999,-6.6999,-6.6969,-6.6969,-6.6939,-6.667,-6.6041,-6.5383,-6.4455,-6.3199,-6.3079,-6.3079,-6.3079,-6.3079,-6.3079,-6.3079,-6.3079,-6.3079,-6.3079,-6.3079,-6.3079,-6.3079,-6.3079,-6.3079,0.0,0.0,-5.0391,-4.9733,0.0,0.0,0.0,0.0,0.0,0.0,0.0,0.0,0.0,0.0,0.0,0.0,0.0,0.0,0.0,0.0,0.0,0.0,0.0,0.0,0.0,0.0,0.0,-4.9424,-4.9959,-5.0451,0.0,-5.1128,-5.2421,-5.4621,-5.4945,-5.5715,-5.7148,-5.7795,-5.8504,-5.9131,-5.9809,-6.0578,-6.1471,-6.1471,-6.2086,-6.3164,-6.341,-6.3903,-6.4549,-6.4795,-6.4888,-6.4888,-6.4888,-6.4777,-6.4579,-6.4579,-6.4579,-6.4524,-6.4387,-6.4218,-6.4075,-6.3766,-6.3595,-6.3481,-6.3309,-6.3672,-6.4182,-6.4065,-6.5023,-6.6132,-6.6011,-6.649,-6.6999,-6.6999,-6.6999,-6.6999,-6.6999,-6.6999,-6.6999,-6.6999,-6.6999,-6.6999,-6.6999,-6.6999,-6.6999,-6.6999,-6.6999,-6.6999,-6.6999,-6.6999,-6.6999,-6.6999,-6.661,-6.6071,-6.5413,-6.4366,-6.3707,-6.3677,-6.3318,-6.3079,-6.3079,-6.3079,-6.3079,-6.3079,-6.3079,-6.3079,-6.3079,-6.3079,-6.3079,-6.3079,-6.3079,-6.3079,-5.1289,-5.1588,0.0,0.0,-5.0554,0.0,-4.9224,0.0,0.0,0.0,0.0,0.0,0.0,0.0,0.0,0.0,0.0,0.0,0.0,0.0,0.0,0.0,0.0,0.0,0.0,0.0,-5.1161,-4.9455,-4.9558,-4.9989,0.0,0.0,-5.2175,-5.4591,-5.4945,-5.5838,-5.7518,-5.8116,-5.8793,-5.9501,-6.0147,-6.0794,-6.144,-6.1502,-6.224,-6.3472,-6.3533,-6.4057,-6.4888,-6.4888,-6.4832,-6.4721,-6.4721,-6.4524,-6.43,-6.4382,-6.4326,-6.4244,-6.3906,-6.3823,-6.3766,-6.3481,-6.3517,-6.364,-6.3466,-6.3857,-6.4425,-6.4635,-6.5323,-6.6071,-6.6281,-6.667,-6.6999,-6.6999,-6.6999,-6.6999,-6.6999,-6.6999,-6.6999,-6.6999,-6.6999,-6.6999,-6.6999,-6.6999,-6.6999,-6.6999,-6.6999,-6.6999,-6.6999,-6.6999,-6.6999,-6.6999,-6.661,-6.6011,-6.5114,-6.4036,-6.3468,-6.3647,-6.3288,-6.3079,-6.3079,-6.3079,-6.3408,-6.4096,-6.3438,-6.3408,-6.4126,-6.3408,-6.3079,-6.3079,-6.3079,-6.3079]},{"header":{"parameterUnit":"m.s-1","parameterCategory":1,"la1":30.6,"la2":29.2853,"lo1":-89.7004,"lo2":-87.6739,"dx":0.0162,"dy":0.0183,"nx":112,"ny":82,"refTime":"2023-01-26T06:00:00:Z","depth":0,"parameterNumber":3,"parameterNumberName":"V-component_of_WINDS"},"data":[0.0,0.0,0.0,0.0,0.0,0.0,0.0,0.0,0.0,0.0,0.0,0.0,0.0,0.0,0.0,0.0,0.0,0.0,0.0,0.0,0.0,0.0,0.0,0.0,0.0,0.0,0.0,0.0,0.0,0.0,0.0,0.0,0.0,0.0,0.0,0.0,0.0,0.0,0.0,0.0,0.0,0.0,0.0,0.0,0.0,0.0,0.0,0.0,0.0,0.0,0.0,0.0,0.0,0.0,0.0,0.0,0.0,0.0,0.0,0.0,0.0,0.0,0.0,0.0,0.0,0.0,0.0,0.0,0.0,0.0,0.0,0.0,0.0,0.0,0.0,0.0,0.0,0.0,0.0,0.0,0.0,0.0,0.0,0.0,0.0,0.0,0.0,0.0,0.0,0.0,0.0,4.2865,4.5801,4.7026,4.5648,4.6064,4.4361,3.9623,0.0,0.0,0.0,0.0,0.0,0.0,0.0,0.0,0.0,0.0,0.0,0.0,0.0,0.0,0.0,0.0,0.0,0.0,0.0,0.0,0.0,0.0,0.0,0.0,0.0,0.0,0.0,0.0,0.0,0.0,0.0,0.0,0.0,0.0,0.0,0.0,0.0,0.0,0.0,0.0,0.0,0.0,0.0,0.0,0.0,0.0,0.0,0.0,0.0,0.0,0.0,0.0,0.0,0.0,0.0,0.0,0.0,0.0,0.0,0.0,0.0,0.0,0.0,0.0,0.0,0.0,0.0,0.0,0.0,0.0,0.0,0.0,0.0,0.0,0.0,0.0,0.0,0.0,0.0,0.0,0.0,0.0,0.0,0.0,0.0,0.0,0.0,0.0,0.0,0.0,0.0,0.0,0.0,0.0,0.0,0.0,0.0,0.0,0.0,0.0,0.0,0.0,0.0,0.0,4.136,4.436,4.6313,4.7074,4.6237,4.5161,4.3407,4.086,0.0,0.0,0.0,0.0,0.0,0.0,0.0,0.0,0.0,0.0,0.0,0.0,0.0,0.0,0.0,0.0,0.0,0.0,0.0,0.0,0.0,0.0,0.0,0.0,0.0,0.0,0.0,0.0,0.0,0.0,0.0,0.0,0.0,0.0,0.0,0.0,0.0,0.0,0.0,0.0,0.0,0.0,0.0,0.0,0.0,0.0,0.0,0.0,0.0,0.0,0.0,0.0,0.0,0.0,0.0,0.0,0.0,0.0,0.0,0.0,0.0,0.0,0.0,0.0,0.0,0.0,0.0,0.0,0.0,0.0,0.0,0.0,0.0,0.0,0.0,0.0,0.0,0.0,0.0,0.0,0.0,0.0,0.0,0.0,0.0,0.0,0.0,0.0,0.0,0.0,0.0,0.0,0.0,0.0,0.0,0.0,0.0,0.0,0.0,0.0,0.0,0.0,0.0,4.0613,4.2232,4.4079,4.5727,4.6553,4.6185,4.4507,4.278,4.1103,3.9632,0.0,0.0,0.0,0.0,0.0,0.0,0.0,0.0,0.0,0.0,0.0,0.0,0.0,0.0,0.0,0.0,0.0,0.0,0.0,0.0,0.0,0.0,0.0,0.0,0.0,0.0,0.0,0.0,0.0,0.0,0.0,0.0,0.0,0.0,0.0,0.0,0.0,0.0,0.0,0.0,0.0,0.0,0.0,0.0,0.0,0.0,0.0,0.0,0.0,0.0,0.0,0.0,0.0,0.0,0.0,0.0,0.0,0.0,0.0,0.0,0.0,0.0,0.0,0.0,0.0,0.0,0.0,0.0,0.0,0.0,0.0,0.0,0.0,0.0,0.0,0.0,0.0,0.0,0.0,0.0,0.0,0.0,0.0,0.0,0.0,0.0,0.0,0.0,0.0,0.0,0.0,0.0,0.0,0.0,0.0,0.0,0.0,0.0,0.0,0.0,0.0,0.0,4.1541,4.3035,4.3764,4.5308,4.6131,4.5735,4.3956,4.23,4.0963,3.8975,0.0,0.0,0.0,0.0,0.0,0.0,0.0,0.0,0.0,0.0,0.0,0.0,0.0,0.0,0.0,0.0,0.0,0.0,0.0,0.0,0.0,0.0,0.0,0.0,0.0,0.0,0.0,0.0,0.0,0.0,0.0,0.0,0.0,0.0,0.0,0.0,0.0,0.0,0.0,0.0,0.0,0.0,0.0,0.0,0.0,0.0,0.0,0.0,0.0,0.0,0.0,0.0,0.0,0.0,0.0,0.0,0.0,0.0,0.0,0.0,0.0,0.0,0.0,0.0,0.0,0.0,0.0,0.0,0.0,0.0,0.0,0.0,0.0,0.0,0.0,0.0,0.0,0.0,0.0,0.0,0.0,0.0,0.0,0.0,0.0,0.0,0.0,0.0,0.0,0.0,0.0,0.0,0.0,0.0,0.0,0.0,0.0,0.0,0.0,0.0,0.0,0.0,4.2572,4.3797,4.4522,4.5978,4.631,4.4917,4.3393,4.1958,4.0634,3.9161,0.0,0.0,0.0,0.0,0.0,0.0,0.0,0.0,0.0,0.0,0.0,0.0,0.0,0.0,0.0,0.0,0.0,0.0,0.0,0.0,0.0,0.0,0.0,0.0,0.0,0.0,0.0,0.0,0.0,0.0,0.0,0.0,0.0,0.0,0.0,0.0,0.0,0.0,0.0,0.0,0.0,0.0,0.0,0.0,0.0,0.0,0.0,0.0,0.0,0.0,0.0,0.0,0.0,0.0,0.0,0.0,0.0,0.0,0.0,0.0,0.0,0.0,0.0,0.0,0.0,0.0,0.0,0.0,0.0,0.0,0.0,0.0,0.0,0.0,0.0,0.0,0.0,0.0,0.0,0.0,0.0,0.0,0.0,0.0,0.0,0.0,0.0,0.0,0.0,0.0,0.0,0.0,0.0,0.0,0.0,0.0,0.0,0.0,0.0,0.0,0.0,0.0,4.164,4.2671,0.0,4.4522,4.4622,4.4059,4.2638,4.1465,4.0606,0.0,0.0,0.0,0.0,0.0,0.0,0.0,0.0,0.0,0.0,0.0,0.0,0.0,0.0,0.0,0.0,0.0,0.0,0.0,0.0,0.0,0.0,0.0,0.0,0.0,0.0,0.0,0.0,0.0,0.0,0.0,0.0,0.0,0.0,0.0,0.0,0.0,0.0,0.0,0.0,0.0,0.0,0.0,0.0,0.0,0.0,0.0,0.0,0.0,0.0,0.0,0.0,0.0,0.0,0.0,0.0,0.0,0.0,0.0,0.0,0.0,0.0,0.0,0.0,0.0,0.0,0.0,0.0,0.0,0.0,0.0,0.0,0.0,0.0,0.0,0.0,0.0,0.0,0.0,0.0,0.0,0.0,0.0,0.0,0.0,0.0,0.0,0.0,0.0,0.0,0.0,0.0,0.0,0.0,0.0,0.0,0.0,0.0,0.0,0.0,0.0,0.0,4.0525,4.1309,4.2208,0.0,4.3797,4.3731,4.3267,4.2109,4.1138,4.0552,0.0,0.0,0.0,0.0,0.0,0.0,0.0,0.0,0.0,0.0,0.0,0.0,0.0,0.0,0.0,0.0,0.0,0.0,0.0,0.0,0.0,0.0,0.0,0.0,0.0,0.0,0.0,0.0,0.0,0.0,0.0,0.0,0.0,0.0,0.0,0.0,0.0,0.0,0.0,0.0,0.0,0.0,0.0,0.0,0.0,0.0,0.0,0.0,0.0,0.0,0.0,0.0,0.0,0.0,0.0,0.0,0.0,0.0,0.0,0.0,0.0,0.0,0.0,0.0,0.0,0.0,0.0,0.0,0.0,0.0,0.0,0.0,0.0,0.0,0.0,0.0,0.0,0.0,0.0,0.0,0.0,0.0,0.0,0.0,0.0,0.0,0.0,0.0,0.0,0.0,0.0,0.0,0.0,0.0,0.0,0.0,0.0,0.0,0.0,0.0,0.0,0.0,4.1125,4.2042,4.2771,4.3532,4.4257,4.4092,4.2634,4.1811,4.111,0.0,0.0,0.0,0.0,0.0,0.0,0.0,0.0,0.0,0.0,0.0,0.0,0.0,0.0,0.0,0.0,0.0,0.0,0.0,0.0,0.0,0.0,0.0,0.0,0.0,0.0,0.0,0.0,0.0,0.0,0.0,0.0,0.0,0.0,0.0,0.0,0.0,0.0,0.0,0.0,0.0,0.0,0.0,0.0,0.0,0.0,0.0,0.0,0.0,0.0,0.0,0.0,0.0,0.0,0.0,0.0,0.0,0.0,0.0,0.0,0.0,0.0,0.0,0.0,0.0,0.0,0.0,0.0,0.0,0.0,0.0,0.0,0.0,0.0,0.0,0.0,0.0,0.0,0.0,0.0,0.0,0.0,0.0,0.0,0.0,0.0,0.0,0.0,0.0,0.0,0.0,0.0,0.0,0.0,0.0,0.0,0.0,0.0,0.0,0.0,0.0,0.0,0.0,4.1146,4.1719,4.2717,4.4922,4.4887,4.4092,4.2634,4.1811,4.0878,3.9713,0.0,0.0,0.0,0.0,0.0,0.0,0.0,0.0,0.0,0.0,0.0,0.0,0.0,0.0,0.0,0.0,0.0,0.0,0.0,0.0,0.0,0.0,0.0,0.0,0.0,0.0,0.0,0.0,0.0,0.0,0.0,0.0,0.0,0.0,0.0,0.0,0.0,0.0,0.0,0.0,0.0,0.0,0.0,0.0,0.0,0.0,0.0,0.0,0.0,0.0,0.0,0.0,0.0,0.0,0.0,0.0,0.0,0.0,0.0,0.0,0.0,0.0,0.0,0.0,0.0,0.0,0.0,0.0,0.0,0.0,0.0,0.0,0.0,0.0,0.0,0.0,0.0,0.0,0.0,0.0,0.0,0.0,0.0,0.0,0.0,0.0,0.0,0.0,0.0,0.0,0.0,0.0,0.0,0.0,0.0,0.0,0.0,0.0,0.0,0.0,0.0,0.0,4.0702,4.1394,4.2575,4.5077,4.4964,4.4224,4.3035,4.1976,4.0912,3.9812,0.0,0.0,0.0,0.0,0.0,0.0,0.0,0.0,0.0,0.0,0.0,0.0,0.0,0.0,0.0,0.0,0.0,0.0,0.0,0.0,0.0,0.0,0.0,0.0,0.0,0.0,0.0,0.0,0.0,0.0,0.0,0.0,0.0,0.0,0.0,0.0,0.0,0.0,0.0,0.0,0.0,0.0,0.0,0.0,0.0,0.0,0.0,0.0,0.0,0.0,0.0,0.0,0.0,0.0,0.0,0.0,0.0,0.0,0.0,0.0,0.0,0.0,0.0,0.0,0.0,0.0,0.0,0.0,0.0,0.0,0.0,0.0,0.0,0.0,0.0,0.0,0.0,0.0,0.0,0.0,0.0,0.0,0.0,0.0,0.0,0.0,0.0,0.0,0.0,0.0,0.0,0.0,0.0,0.0,0.0,0.0,0.0,0.0,0.0,0.0,0.0,0.0,3.9974,4.0958,4.2201,4.43,4.462,4.4365,4.3575,4.2278,4.121,4.0442,0.0,0.0,0.0,0.0,0.0,0.0,0.0,0.0,0.0,0.0,0.0,0.0,0.0,0.0,0.0,0.0,0.0,0.0,0.0,0.0,0.0,0.0,0.0,0.0,0.0,0.0,0.0,0.0,0.0,0.0,0.0,0.0,0.0,0.0,0.0,0.0,0.0,0.0,0.0,0.0,0.0,0.0,0.0,0.0,0.0,0.0,0.0,0.0,0.0,0.0,0.0,0.0,0.0,0.0,0.0,0.0,0.0,0.0,0.0,0.0,3.8928,0.0,0.0,0.0,0.0,0.0,0.0,0.0,0.0,0.0,0.0,0.0,0.0,0.0,0.0,0.0,0.0,0.0,0.0,0.0,0.0,0.0,0.0,0.0,0.0,0.0,0.0,0.0,0.0,0.0,0.0,0.0,0.0,0.0,0.0,0.0,0.0,0.0,0.0,0.0,0.0,0.0,3.9418,3.993,4.1009,4.3631,4.4429,4.4268,4.2934,4.2473,4.174,4.0475,0.0,0.0,0.0,0.0,0.0,0.0,0.0,0.0,0.0,0.0,0.0,0.0,0.0,0.0,0.0,0.0,0.0,0.0,0.0,0.0,0.0,0.0,0.0,0.0,0.0,0.0,0.0,0.0,0.0,0.0,0.0,0.0,0.0,0.0,0.0,0.0,0.0,0.0,0.0,0.0,0.0,0.0,0.0,0.0,0.0,0.0,0.0,0.0,0.0,0.0,0.0,0.0,0.0,0.0,0.0,0.0,0.0,0.0,0.0,0.0,0.0,4.0023,0.0,0.0,0.0,0.0,0.0,0.0,0.0,0.0,0.0,0.0,0.0,0.0,0.0,0.0,0.0,0.0,0.0,0.0,0.0,0.0,0.0,0.0,0.0,0.0,0.0,0.0,0.0,0.0,0.0,0.0,0.0,0.0,0.0,0.0,0.0,0.0,0.0,0.0,0.0,0.0,3.9195,3.9852,4.0845,4.2903,4.35,4.3552,4.3101,4.245,4.1586,4.0448,4.0048,0.0,0.0,0.0,0.0,0.0,0.0,0.0,0.0,0.0,0.0,0.0,0.0,0.0,0.0,0.0,0.0,0.0,0.0,0.0,0.0,0.0,0.0,0.0,0.0,0.0,0.0,0.0,0.0,0.0,0.0,0.0,0.0,0.0,0.0,0.0,0.0,0.0,0.0,0.0,0.0,0.0,0.0,0.0,0.0,0.0,0.0,0.0,0.0,0.0,0.0,0.0,0.0,0.0,4.1831,4.2237,4.276,4.276,4.3021,4.3398,4.1802,4.0942,4.0651,0.0,0.0,0.0,0.0,0.0,0.0,0.0,0.0,0.0,0.0,0.0,0.0,0.0,0.0,0.0,0.0,0.0,0.0,0.0,0.0,0.0,0.0,0.0,0.0,0.0,4.1384,4.0898,0.0,0.0,0.0,0.0,0.0,0.0,0.0,0.0,0.0,0.0,0.0,0.0,3.902,4.0016,4.0988,4.2027,4.2517,4.2871,4.3183,4.2364,4.1437,4.045,4.0386,3.9523,0.0,0.0,0.0,0.0,0.0,0.0,0.0,0.0,0.0,0.0,0.0,0.0,0.0,0.0,0.0,0.0,0.0,0.0,0.0,0.0,0.0,0.0,0.0,0.0,0.0,0.0,0.0,0.0,0.0,0.0,0.0,0.0,4.125,4.2005,0.0,0.0,0.0,0.0,0.0,0.0,0.0,0.0,0.0,0.0,0.0,0.0,0.0,0.0,4.1947,4.2963,4.3515,4.3631,4.4734,4.5285,4.5372,4.5372,4.543,4.5488,4.5227,0.0,4.2836,4.2117,0.0,0.0,0.0,0.0,0.0,0.0,0.0,0.0,0.0,0.0,0.0,0.0,0.0,0.0,0.0,0.0,0.0,0.0,0.0,0.0,0.0,0.0,4.0988,4.042,4.127,4.1944,0.0,4.0726,4.0696,4.0127,0.0,0.0,0.0,0.0,0.0,0.0,0.0,0.0,3.8482,3.9637,4.0484,4.0634,4.231,4.2932,4.1789,4.2636,4.2444,4.0513,4.0357,3.9692,3.8335,3.8423,0.0,0.0,0.0,0.0,0.0,0.0,0.0,0.0,0.0,0.0,0.0,0.0,0.0,0.0,0.0,0.0,0.0,0.0,0.0,0.0,0.0,0.0,0.0,0.0,0.0,0.0,0.0,0.0,0.0,4.0815,4.1773,4.2063,4.125,4.067,0.0,0.0,0.0,0.0,0.0,0.0,0.0,0.0,0.0,4.2673,4.305,4.3544,4.4211,4.5488,4.6127,4.6127,4.7056,4.7666,4.8043,4.8014,4.7811,4.7491,4.7491,4.6637,4.5141,4.3761,4.3011,4.2666,0.0,0.0,0.0,0.0,0.0,4.2425,4.2566,0.0,0.0,0.0,0.0,0.0,0.0,0.0,0.0,0.0,0.0,0.0,0.0,0.0,0.0,4.1897,4.2414,4.2781,4.2434,4.2682,4.2521,0.0,3.9858,3.92,3.8512,0.0,0.0,0.0,0.0,0.0,3.9409,4.0038,4.0546,4.0905,4.1784,4.2213,4.2001,4.254,4.2173,4.0519,4.0709,3.9966,3.7916,3.8216,3.8367,0.0,0.0,0.0,0.0,0.0,0.0,0.0,0.0,0.0,0.0,0.0,0.0,0.0,0.0,0.0,0.0,0.0,0.0,0.0,0.0,0.0,0.0,0.0,0.0,0.0,0.0,0.0,0.0,4.1105,4.1918,4.2063,4.1657,4.1279,0.0,0.0,0.0,0.0,0.0,0.0,4.2034,4.2382,4.3369,4.514,4.5634,4.6185,4.6853,4.7956,4.8537,4.8537,4.9175,4.9678,5.022,5.0191,4.9814,4.9233,4.9233,4.8508,4.7126,4.543,4.437,4.3725,4.3123,4.2896,4.3042,4.3608,4.3549,4.3154,4.3549,4.3952,4.4086,4.3272,0.0,4.3913,4.3259,0.0,0.0,0.0,0.0,4.1756,4.1492,0.0,4.2671,4.3,4.3329,4.3499,4.3319,4.3678,4.3389,0.0,4.0397,3.9858,3.8841,0.0,0.0,0.0,0.0,3.9888,4.0576,4.1085,4.1474,4.1662,4.1773,4.2013,4.2381,4.2546,4.2075,4.0733,4.1106,4.0355,3.8008,3.8225,3.8243,3.7921,0.0,0.0,0.0,0.0,0.0,0.0,0.0,0.0,0.0,0.0,0.0,0.0,0.0,0.0,0.0,0.0,0.0,0.0,0.0,0.0,0.0,0.0,0.0,0.0,0.0,0.0,0.0,0.0,0.0,4.2005,4.2063,0.0,0.0,0.0,0.0,4.1047,4.276,4.4066,4.4676,4.5866,4.7097,4.8402,4.846,4.8827,4.9514,5.0211,5.054,5.054,5.1178,5.1497,5.1527,5.1527,5.1178,5.0618,5.0618,4.9843,4.8489,4.7184,4.6043,4.504,4.4469,4.3982,4.3679,4.4115,4.4235,4.4294,4.4676,4.4836,4.472,4.4138,4.3656,4.324,4.2638,4.2566,0.0,0.0,4.2892,4.2823,4.2423,4.2791,4.315,4.259,4.3359,4.4107,4.3439,4.3319,4.2931,0.0,4.1841,4.1632,3.9679,0.0,4.0307,4.0307,4.1893,4.2632,4.1474,4.297,4.3658,4.247,4.2851,4.3,4.244,4.295,4.274,4.1414,4.137,4.077,3.9379,3.8732,3.8724,3.937,3.7516,0.0,0.0,0.0,0.0,0.0,0.0,0.0,0.0,0.0,0.0,0.0,0.0,0.0,0.0,0.0,0.0,0.0,0.0,0.0,0.0,0.0,0.0,0.0,0.0,0.0,0.0,0.0,0.0,4.4472,4.4908,0.0,4.4821,4.4414,4.4356,4.4763,4.5808,4.6708,4.7317,4.7811,4.8653,4.993,5.0365,5.0685,5.0917,5.1962,5.231,5.1955,5.2543,5.2833,5.2833,5.2833,5.2484,5.1926,5.1468,5.0801,4.9901,4.903,4.7712,4.6159,4.5593,4.523,4.5157,4.571,4.5418,4.4778,4.533,4.5389,4.5142,4.5068,4.492,4.4683,4.4007,4.3843,4.3796,4.3343,4.3602,4.395,4.3702,4.4353,4.5054,4.5275,4.5448,4.5382,4.4736,4.4945,4.4616,4.247,4.1901,4.1692,4.1392,4.1145,4.1175,4.1632,4.1893,4.2073,4.2051,4.268,4.303,4.3,4.314,4.3379,4.3599,4.3449,4.311,4.2701,4.1863,4.0965,4.0098,3.899,3.8532,3.881,3.7661,3.7301,0.0,0.0,0.0,0.0,0.0,0.0,0.0,0.0,0.0,0.0,0.0,0.0,0.0,0.0,0.0,0.0,0.0,0.0,0.0,0.0,0.0,0.0,0.0,0.0,0.0,0.0,4.5779,4.6446,4.7462,4.8043,4.7811,4.7608,4.7666,4.8101,4.8914,4.9669,5.0307,5.0336,5.083,5.1933,5.2165,5.2252,5.2252,5.3094,5.3297,5.2891,5.3326,5.35,5.35,5.35,5.3181,5.2594,5.1904,5.1265,5.0676,5.0008,4.8943,4.7724,4.6853,4.6388,4.6243,4.6633,4.6417,4.5924,4.6359,4.5943,4.5215,4.5303,4.5229,4.4965,4.4526,4.4379,4.4291,4.3796,4.4203,4.4787,4.4774,4.5459,4.6296,4.6769,4.6648,4.6215,4.5657,4.596,4.5739,4.3577,4.2742,4.2312,4.1995,4.1786,4.1718,4.2204,4.2294,4.2384,4.2671,4.288,4.309,4.326,4.329,4.3469,4.3917,4.3559,4.324,4.306,4.2013,4.1085,4.0427,3.9529,3.905,3.905,3.8422,3.7853,3.7404,0.0,0.0,0.0,0.0,0.0,0.0,0.0,0.0,0.0,0.0,0.0,0.0,0.0,0.0,0.0,0.0,0.0,0.0,0.0,0.0,0.0,0.0,0.0,4.3224,4.5343,4.723,4.7898,4.964,5.054,4.9872,5.0423,5.0801,5.0801,5.2013,5.292,5.353,5.3559,5.3849,5.4487,5.3878,5.353,5.35,5.35,5.35,5.35,5.35,5.35,5.35,5.35,5.3181,5.2623,5.1933,5.1294,5.0705,4.9988,4.9698,4.9601,4.8304,4.7462,4.6865,4.6865,4.7288,4.7811,4.7753,4.6534,4.4966,4.4966,4.456,4.4066,4.4066,4.4066,4.4109,4.4325,4.4806,4.5347,4.5594,4.6109,4.6624,4.6903,4.6727,4.6491,4.6132,4.6328,4.6167,4.4886,4.4525,4.3728,4.1594,4.1674,4.2021,4.2021,4.3119,0.0,4.3339,4.3858,4.4007,4.3349,4.329,4.329,4.3319,4.329,4.303,4.247,4.1782,4.1055,4.0427,4.0367,4.0367,4.0367,3.9738,3.8781,3.7494,0.0,0.0,0.0,0.0,0.0,0.0,0.0,0.0,0.0,0.0,0.0,0.0,0.0,0.0,0.0,0.0,0.0,0.0,0.0,0.0,0.0,0.0,4.6679,4.6505,4.8682,5.0714,5.1817,5.2833,5.3384,5.321,5.3355,5.3471,5.3471,5.4197,5.4691,5.4865,5.4894,5.4778,5.4517,5.4342,5.3994,5.35,5.35,5.35,5.35,5.35,5.35,5.35,5.35,5.3413,5.321,5.2572,5.1962,5.1323,5.0656,5.0153,4.9688,4.934,4.903,4.8885,4.8885,4.8711,4.8333,4.7404,4.7056,4.6911,4.6446,4.6185,4.604,4.604,4.604,4.604,4.6085,4.6596,4.709,4.7182,4.7787,4.8278,4.793,4.8257,4.8378,4.7332,4.7523,4.7566,4.6241,4.6329,4.6002,4.398,4.3005,4.2651,4.3164,0.0,0.0,4.2879,4.2998,4.3138,4.309,4.3061,4.3349,4.3947,4.318,4.2761,0.0,4.1564,4.0576,4.0397,3.9948,3.9679,3.9679,3.9463,3.9469,0.0,0.0,0.0,0.0,0.0,0.0,0.0,0.0,0.0,0.0,0.0,0.0,0.0,0.0,0.0,0.0,0.0,0.0,0.0,0.0,0.0,0.0,4.8159,5.0075,5.0859,5.2049,5.3297,5.4575,5.5533,5.6084,5.6084,5.6084,5.6084,5.6084,5.6171,5.62,5.62,5.5968,5.5678,5.5329,5.5039,5.4691,5.4313,5.4052,5.3936,5.3936,5.3646,5.35,5.35,5.35,5.35,0.0,5.2833,5.2223,5.1556,5.0946,5.0328,0.0,0.0,0.0,0.0,0.0,4.9117,4.8217,4.7491,4.7288,4.7288,4.665,4.6417,4.6417,4.6417,4.6417,4.6417,4.6417,4.6882,4.7375,4.7375,4.8137,4.8862,4.8623,4.908,4.9333,4.84,4.8365,4.8231,4.6868,0.0,0.0,4.4951,4.4187,4.3877,4.4272,4.3801,4.339,0.0,4.3484,4.3525,4.3649,4.369,4.379,4.4032,4.3348,0.0,0.0,0.0,4.0821,4.0591,4.0434,0.0,0.0,0.0,4.0584,0.0,0.0,0.0,0.0,3.8781,3.8811,0.0,0.0,0.0,0.0,0.0,0.0,0.0,0.0,0.0,0.0,0.0,0.0,0.0,0.0,0.0,0.0,5.0996,5.3675,5.5591,5.5387,5.5474,5.6607,5.7739,5.8377,5.8319,5.829,5.8261,5.8203,5.7652,5.7303,5.7303,0.0,0.0,0.0,0.0,5.5416,5.5184,5.4749,5.4487,5.44,5.3791,5.35,5.35,5.35,5.35,5.3471,5.292,5.231,5.1672,5.112,5.0502,4.9834,4.9698,4.9717,4.9717,4.9717,4.8972,0.0,0.0,0.0,0.0,4.6388,4.6156,4.6098,4.6185,4.6156,4.6098,4.6098,4.6563,4.6981,4.6923,4.7764,4.8729,4.8822,4.9164,4.9388,4.8909,4.8708,4.8275,4.7097,4.6475,4.5924,4.5314,4.5171,4.5055,4.5055,4.4631,0.0,4.4507,4.4549,4.4549,4.4562,0.0,0.0,4.3867,4.3691,4.3183,4.213,4.1765,4.1362,4.084,4.1303,4.144,4.1071,4.1576,4.1713,4.1398,4.1398,4.1496,4.1556,4.0846,4.0816,0.0,0.0,0.0,0.0,0.0,0.0,0.0,0.0,0.0,0.0,0.0,0.0,0.0,0.0,0.0,5.1287,5.3907,5.6345,5.829,5.8464,5.8464,5.8726,5.8958,5.89,5.8348,5.829,5.8087,5.7536,5.739,5.7303,5.7303,5.7187,0.0,5.5649,5.5997,5.5474,5.3907,5.4313,5.4255,5.3704,0.0,0.0,5.35,5.35,5.35,5.35,5.3384,5.2978,5.2368,5.2304,5.1577,5.0423,4.9872,4.9717,4.9717,4.9717,4.9524,4.9233,4.8711,4.8449,4.8286,4.8217,4.784,4.7521,4.8014,4.7811,0.0,4.7404,4.7869,4.8246,4.7724,4.8159,4.8449,4.748,4.7742,4.8003,4.7364,4.7654,4.7898,4.7637,4.7491,4.7375,4.723,4.5562,4.4226,4.4226,4.4153,4.4065,4.4108,4.4108,4.4194,4.4336,4.4336,4.4363,4.4415,4.3472,4.2806,4.2611,4.1499,4.0851,4.0733,4.0851,4.0851,4.0772,4.089,4.1165,4.1656,4.1656,4.1922,4.2435,4.159,4.1265,0.0,0.0,0.0,0.0,0.0,0.0,0.0,0.0,0.0,0.0,0.0,4.5488,0.0,0.0,5.1875,5.411,5.6374,5.829,5.9568,6.0032,6.0119,5.98,5.948,5.9306,5.9248,5.8668,5.829,5.829,5.7681,5.7303,5.7303,5.7303,5.7013,5.6374,5.6694,5.6374,5.5416,5.5445,5.5126,5.4458,5.4168,5.3849,5.35,5.35,5.35,5.35,5.35,5.3152,5.2565,5.1926,5.1287,5.0598,4.993,4.9717,4.9717,4.9717,4.9717,4.9582,4.8943,4.8663,4.8682,4.8362,4.8043,4.784,4.8159,4.8043,4.7782,4.7782,4.8014,4.8188,4.7869,4.8246,4.8478,4.7521,4.7782,4.8072,4.7433,4.7317,4.7404,4.7724,4.7259,4.694,4.7259,4.5982,4.5053,4.5372,4.514,4.4937,4.4937,4.4937,4.4981,4.5113,4.5084,4.5011,4.4791,4.3969,4.3441,4.3387,4.2825,4.2327,4.1854,4.1854,4.1748,4.1546,4.1546,4.1773,4.2216,4.2216,4.2364,4.2688,4.2278,4.203,0.0,0.0,0.0,0.0,0.0,0.0,0.0,0.0,4.4124,4.5547,4.6853,4.8508,5.0975,5.2978,5.4865,5.6665,5.8493,5.9829,6.0322,6.0845,6.0961,6.0264,5.9771,5.9626,5.9974,5.8987,5.8464,5.8871,5.7913,5.7303,5.7303,5.7303,5.7245,5.7129,5.7245,5.7187,5.6926,5.6461,5.5881,5.5242,5.4604,5.4023,5.35,5.35,5.35,5.35,5.35,5.321,5.271,5.1527,5.0975,5.0801,5.0133,4.9785,4.9717,4.9717,4.9717,4.9611,4.9088,4.8914,4.8827,4.8304,4.8159,4.8159,4.8159,4.8072,4.7956,4.7956,4.7956,4.7909,4.772,4.8191,4.8547,4.7835,4.8104,4.8391,4.7898,4.7375,4.7172,4.7695,4.694,4.6417,4.694,4.6592,4.633,4.6621,4.6214,4.5895,4.5895,4.5895,4.5895,4.5895,4.5895,4.5605,4.4937,4.4588,4.4311,4.4051,4.4151,4.3961,4.3195,4.3195,4.3047,4.2731,4.2585,4.2609,4.2743,4.2625,4.2566,4.2566,4.2607,4.2648,4.5663,4.4124,4.3282,4.3689,4.3369,4.3427,0.0,0.0,4.694,4.8798,5.0191,5.1701,5.3704,5.562,5.7332,5.8755,6.0119,6.1019,6.1077,6.1164,6.0961,6.0264,6.0148,5.9916,5.9451,5.8726,5.8087,5.7565,5.739,5.7303,5.7303,5.7303,5.7042,5.652,5.7013,5.6752,5.562,5.5562,5.5213,5.4604,5.3936,5.3588,5.35,5.35,5.35,5.35,5.35,5.3471,5.3355,5.2659,5.202,5.1439,5.0801,5.0191,4.9717,4.9717,4.9717,4.9717,4.9582,4.9582,4.9553,4.9543,4.9514,4.9514,4.9514,4.9059,4.8624,4.8624,4.8624,4.8355,4.7404,4.7929,4.8442,4.7433,4.7549,4.7869,4.7782,4.7724,4.7695,4.7782,4.7666,4.7579,4.7666,4.7608,4.7201,4.6156,4.5924,4.5895,4.5895,4.5895,4.5895,4.5895,4.5895,4.5605,4.4937,4.4865,4.4603,4.4037,4.4022,4.3993,4.3892,4.3892,4.3863,4.3819,4.3238,4.2918,4.296,4.2436,4.2175,4.2175,4.2351,4.2555,4.485,4.424,4.4153,0.0,4.514,4.6185,4.7753,4.8885,5.0162,5.2107,5.353,5.501,5.6955,5.8232,5.9306,0.0,6.0845,6.1193,6.1193,6.0874,6.0235,5.9219,5.8755,5.8726,5.9248,5.8348,5.7768,5.7884,5.6795,5.6537,5.7247,5.6594,5.6423,5.687,5.7158,5.6705,5.5396,5.5396,5.5082,5.4484,5.3829,5.3345,5.3029,5.2605,5.2434,5.2487,5.3184,5.3102,5.2377,5.1779,5.0982,5.0034,4.9367,4.8949,4.8798,4.9486,4.9248,4.8703,4.8703,4.8274,4.774,4.774,4.774,4.7796,4.8136,4.808,4.7889,4.82,4.8084,4.7703,4.7291,4.722,4.7197,4.6688,4.6699,4.6773,4.6389,4.6333,4.6467,4.6801,4.6606,4.6556,4.7225,4.6779,4.6278,4.6033,4.6244,4.6301,4.5924,4.5895,4.5895,4.5895,4.5895,4.5779,4.5488,4.5459,4.5372,4.5111,4.5082,4.5082,4.5082,4.4705,4.4501,4.4501,4.3892,4.3573,4.3573,4.3311,4.3195,4.3195,4.2873,4.2794,4.4035,0.0,0.0,4.575,4.7143,4.8798,5.0627,5.1875,5.3268,5.5387,5.6578,5.7739,5.951,6.0032,6.0409,6.1077,6.1193,6.1135,6.0961,6.0206,5.9132,5.7681,5.6528,5.6216,5.711,5.6765,5.6964,5.7971,5.6392,5.5818,5.6708,5.6222,5.5992,5.6222,5.6594,5.6165,5.4856,5.4689,5.4383,5.3937,5.3268,5.2684,5.21,5.1488,5.1182,5.1237,5.2164,5.1974,5.1154,5.057,4.9803,4.8923,4.8272,4.7974,4.8083,4.877,4.8477,4.7814,4.8122,4.7477,4.6591,4.6906,4.691,4.6863,4.7324,4.7406,4.7487,4.792,4.7731,4.7352,4.7028,4.684,4.6676,4.6303,4.6463,4.6568,4.6162,4.6054,4.6189,4.6595,4.6352,4.6325,4.7109,4.6569,4.611,4.6326,4.6645,4.6519,4.5598,4.5217,4.5155,4.5429,4.5429,4.5595,4.5866,4.5895,4.5895,4.5895,4.5895,4.5776,4.5475,4.4969,4.4576,4.435,4.3706,4.3393,4.3393,4.3222,4.3165,4.3136,4.268,4.2408,0.0,0.0,4.5488,4.7985,4.9146,5.0481,5.3646,5.4865,5.6026,5.861,5.919,5.9597,6.0903,6.0613,6.0409,6.1077,6.1193,6.0961,6.0322,5.9161,5.7652,5.5736,5.3534,5.2115,0.0,5.3529,5.5367,5.7162,5.6136,5.5412,5.547,5.6594,5.6107,5.3664,5.4797,5.4856,5.3571,5.2886,5.2588,5.2561,5.1932,5.1336,5.0712,5.0173,4.9958,4.9958,4.9958,4.9958,4.993,4.9277,4.9033,4.8923,4.8272,4.7974,4.7975,4.7459,4.7242,4.7402,4.8375,4.8061,4.7349,4.8402,4.837,4.792,4.7947,4.7947,4.7947,4.7974,4.7974,4.7729,4.6622,4.7123,4.7647,4.6567,4.7152,4.792,4.7893,4.7893,4.7893,4.792,4.792,4.792,4.7947,4.792,4.7704,4.7055,4.6974,4.6377,4.4668,4.3547,4.3273,4.4266,4.4359,4.4759,4.5821,4.5895,4.5895,4.5895,4.5895,4.5429,4.4406,4.4331,4.3862,4.2909,4.2188,4.1889,4.1889,4.13,4.0982,4.0982,4.0955,4.0955,0.0,0.0,4.8682,5.1265,5.3036,5.4778,5.7158,5.8145,5.8842,5.9713,5.8871,5.7743,5.7081,5.6966,5.6764,5.5858,5.7278,5.8192,5.7149,5.6576,5.5353,5.274,5.1708,0.0,0.0,0.0,0.0,5.4074,5.3006,5.2836,5.4057,5.3697,5.3456,5.351,5.3904,5.3544,5.2201,5.1927,5.1821,5.1821,5.1266,5.0287,4.8964,4.915,4.9017,4.8789,4.9562,4.9448,4.8705,4.8519,4.7922,4.7191,4.6953,4.6875,4.685,4.6669,4.636,4.6099,4.6059,4.5574,4.4978,4.5366,4.5589,4.5794,4.6206,4.6309,4.6386,4.6772,4.6618,4.6251,4.5872,4.5738,4.5762,4.577,4.6046,4.6309,4.6309,4.6309,4.6309,4.6309,4.6309,4.6437,4.6798,4.6566,4.6103,4.551,4.5975,4.6191,4.5597,4.4918,4.4583,4.4934,4.4601,4.4337,4.4386,4.4359,4.424,4.3871,4.3843,4.3701,4.3321,4.3321,4.3177,4.2792,4.2575,4.2466,4.2466,4.2229,4.2147,4.2147,4.1714,4.1477,0.0,4.902,5.1672,5.4226,5.5637,5.6795,5.8488,5.8506,5.8184,5.84,5.6651,5.4799,5.3951,5.338,5.2765,5.2111,5.3423,5.4425,5.4194,5.3549,5.2457,5.0745,4.9778,4.8825,0.0,0.0,0.0,5.1859,5.1209,5.1207,5.2432,5.2341,5.2201,5.2103,5.257,5.2139,5.0853,5.0853,5.075,5.0544,4.9976,4.9048,4.7725,4.788,4.7751,4.7475,4.8268,4.8152,4.7475,4.7475,4.6968,4.6301,4.6301,4.6301,4.6276,4.6075,4.5799,4.5498,4.5555,4.5032,4.445,4.4827,4.5092,4.5296,4.5673,4.5773,4.5849,4.62,4.605,4.5773,4.5773,4.5497,4.5372,4.5949,4.5924,4.5824,4.6024,4.5924,4.5849,4.6024,4.6075,4.625,4.6778,4.6426,4.5824,4.5045,4.5464,4.5678,4.5046,4.4362,4.4044,4.4408,4.4113,4.3865,4.3864,4.3886,4.3643,4.3145,4.3118,4.2814,4.2257,4.2257,4.2061,4.1667,4.1667,4.1667,4.1667,4.1667,4.1667,4.1667,4.1221,4.1037,4.8607,5.1499,5.4235,5.6698,5.6849,5.6641,5.7734,5.6154,5.4594,5.4973,5.2842,5.1012,0.0,0.0,4.8844,4.9938,4.9912,5.0212,5.1642,5.039,4.9409,0.0,0.0,0.0,0.0,0.0,0.0,5.0543,0.0,5.0584,5.0611,5.2364,5.2192,4.9654,5.079,5.0853,4.959,4.959,4.9314,4.8711,4.8234,4.7682,4.7043,4.6627,4.6401,4.6376,4.6326,4.6326,4.6351,4.6326,4.6301,4.6301,4.6301,4.6301,4.625,4.5723,4.5522,4.57,4.6676,4.6385,4.5649,4.6682,4.6685,4.6301,4.6301,4.6301,4.6301,4.6301,4.6326,4.6351,4.6351,4.6376,4.6527,4.7054,4.6778,4.6527,4.7054,4.6753,4.6552,4.7079,4.7118,4.733,4.7832,4.7506,4.6803,4.5723,4.5573,4.497,4.3288,4.2133,4.1831,4.2866,4.2918,4.3283,4.4205,4.4307,4.4064,4.3521,4.3467,4.2778,4.13,4.1198,4.0744,3.9774,3.9697,3.9697,3.9697,3.9697,3.9697,3.9697,3.9697,3.9697,5.2225,5.4337,5.5874,5.7489,5.8123,5.7976,5.6438,5.5788,5.4837,5.2586,4.9831,4.7403,0.0,0.0,0.0,4.6212,4.9186,0.0,5.0879,5.0768,0.0,4.9168,0.0,4.7633,4.6391,4.691,0.0,0.0,4.8855,4.9444,4.985,5.0704,5.0703,4.9615,4.9886,4.995,4.959,4.959,4.9113,4.8134,4.8837,4.846,4.7093,4.738,4.7506,4.7456,4.6652,4.6552,4.6903,4.6476,4.6301,4.6301,4.6301,4.6301,4.6301,4.615,4.61,4.616,4.6433,4.6061,4.5531,4.5826,4.6087,4.6301,4.6301,4.6301,4.6301,4.6301,4.6602,4.6928,4.6928,4.7205,4.7531,4.7682,4.7606,4.7531,4.7682,4.7606,4.7531,4.7682,4.7707,4.7757,4.7883,4.7807,4.7481,4.6803,4.6702,4.61,4.4418,4.3589,4.3274,4.3554,4.3229,4.2907,4.2744,4.2772,4.2541,4.1925,4.1874,4.1717,4.1273,4.0868,4.0536,4.03,3.9898,3.9697,3.9697,3.9697,3.9697,3.9697,3.9697,3.9697,5.4316,5.5664,5.6559,5.8149,5.7744,5.626,5.3904,5.2675,5.1206,4.8423,4.5927,0.0,0.0,0.0,0.0,0.0,0.0,0.0,4.9178,4.9389,4.9464,0.0,4.949,0.0,4.7857,4.851,4.8887,0.0,4.8686,4.9012,4.9565,4.9891,5.0017,4.9967,4.9715,4.959,4.959,4.959,4.9163,4.8284,4.8937,4.8611,4.7481,4.7782,4.7908,4.7883,0.0,4.7054,4.7043,4.6803,4.6527,4.6301,4.6301,4.6301,4.6301,4.6301,4.6301,4.6301,4.6301,4.5949,4.5522,4.5773,4.605,4.6351,4.6602,4.6677,4.6728,4.6954,4.723,4.7481,4.7481,4.7682,4.7983,4.8234,4.8083,4.7983,4.8234,4.8083,4.7983,4.8234,4.8485,4.856,4.8335,4.8284,4.8033,4.7193,4.7068,4.6702,4.5522,4.4669,4.3966,4.3489,4.3162,4.2861,4.259,4.2564,4.2283,4.1731,4.1681,4.1605,4.13,4.1,4.0824,4.0824,4.0325,4.0049,4.0049,3.9798,3.9697,3.9697,3.9697,3.9697,5.5455,5.6115,5.6387,5.8139,5.6212,5.3295,5.0923,4.8548,4.6146,4.3767,0.0,4.0738,4.0298,4.0031,4.028,4.1455,0.0,4.4061,4.7645,4.772,4.8196,5.0262,5.0438,5.0278,4.9736,5.0187,5.0528,5.0478,4.964,4.9314,4.9791,4.9891,5.0067,5.0419,4.9967,4.9665,4.959,4.959,4.9314,4.8761,4.8837,4.8586,4.8033,4.8033,4.8058,4.8109,0.0,0.0,4.7168,4.6957,4.6631,4.618,4.618,4.624,4.624,4.6301,4.6301,4.6301,4.6301,4.605,4.5773,4.6175,4.6301,4.6426,4.6979,4.7118,4.733,4.7782,4.7958,4.8033,4.8033,4.8083,4.8259,4.8761,4.851,4.8259,4.8761,4.8485,4.8309,4.8887,4.9314,4.9464,4.9063,4.8937,4.856,4.7606,4.7456,4.723,4.6602,4.5472,4.4367,4.3413,4.3237,4.3187,4.3187,4.3187,4.2986,4.2564,4.2464,4.2158,4.1626,4.153,4.1401,4.1401,4.0902,4.0626,4.0626,4.0149,3.9873,3.9798,3.9798,3.9772,5.6215,5.5965,5.5261,5.5631,5.4208,5.2033,4.9062,4.6868,0.0,0.0,3.9699,3.8693,3.907,4.0257,4.1595,4.3129,0.0,0.0,0.0,0.0,4.9621,0.0,0.0,0.0,0.0,0.0,0.0,0.0,0.0,5.0896,5.0996,5.1423,5.1272,5.0444,5.0318,5.0067,4.959,4.959,4.9314,4.8786,4.9238,4.9163,4.8611,4.8611,4.8862,4.9213,0.0,0.0,4.7359,4.64,4.5795,4.5514,4.5757,4.5878,4.5939,4.618,4.6301,4.6301,4.6301,4.6552,4.6778,4.6426,4.6301,4.6426,4.6979,4.7431,4.7782,4.7883,4.8259,4.8611,4.8611,4.8962,4.9314,4.9439,4.9364,4.9314,4.9439,4.9364,4.9464,5.0017,4.9841,4.9715,5.0067,4.9741,4.9389,4.9188,4.9163,4.8786,4.7757,4.6276,4.5271,4.507,4.4618,4.4342,4.4342,4.4342,4.4292,4.4192,4.3765,4.3489,4.3388,4.2484,4.2062,4.2062,4.148,4.115,4.115,4.105,4.0774,4.0375,4.0375,4.0124,5.5564,5.5136,5.444,5.4872,5.2751,4.9822,4.6824,0.0,0.0,0.0,3.8366,3.799,3.799,3.9422,0.0,0.0,0.0,0.0,0.0,0.0,0.0,0.0,0.0,0.0,0.0,0.0,0.0,0.0,0.0,5.1594,5.1724,5.1747,5.1305,5.0181,4.9958,4.9578,4.9097,4.9267,4.9142,4.87,4.9142,4.9142,4.87,4.87,4.8849,4.9047,4.8213,0.0,4.7576,4.6994,4.6389,4.5773,4.6192,4.6303,4.6289,4.6686,4.6847,4.6847,4.6847,4.6847,4.6822,4.6847,4.697,4.7255,4.7807,4.8159,4.841,4.8711,4.8987,4.9138,4.8837,4.9188,4.959,4.959,5.0042,5.0469,5.0469,5.0469,5.0469,5.0419,5.0193,5.0017,4.9992,4.9766,4.959,4.959,4.959,4.9389,4.8862,4.7857,4.6853,4.5999,4.5673,4.5397,4.5095,4.507,4.4945,4.4644,4.4367,4.4242,4.4242,4.3438,4.3011,4.3011,4.2183,4.1756,4.1756,4.1178,4.0777,4.0501,4.0224,3.9948,5.438,5.4108,5.3684,5.4257,5.1368,4.7757,4.5196,4.2635,0.0,0.0,3.7437,3.7563,3.7188,3.8266,3.9343,0.0,4.096,0.0,0.0,0.0,0.0,0.0,0.0,0.0,0.0,0.0,0.0,0.0,0.0,0.0,5.2029,5.1675,5.0999,5.0132,4.9742,4.9222,4.8748,4.8985,4.8936,4.86,4.8902,4.8837,4.86,4.86,4.86,4.8576,4.8453,0.0,0.0,4.7488,4.6886,4.6088,4.6592,4.6683,4.6612,4.7095,4.7269,4.7269,4.7269,4.7109,4.6935,4.7356,4.7658,4.8008,4.8611,4.8862,4.9038,4.9464,4.9525,4.945,4.9213,4.9375,4.9726,4.9916,5.0645,5.1272,5.1272,5.1272,5.1172,5.0845,5.067,5.0494,5.0193,5.0042,4.9916,4.9791,4.9766,4.9715,4.9615,4.9213,4.846,4.7154,4.6803,4.6426,4.5874,4.5849,4.5598,4.502,4.4869,4.4794,4.4794,4.4166,4.379,4.379,4.2891,4.2389,4.2389,4.1455,4.0978,4.0852,4.0425,4.0149,5.3059,5.3192,5.2854,5.2438,4.978,4.6828,4.5045,0.0,0.0,3.7437,3.6883,3.6611,3.6796,3.7166,3.7941,0.0,0.0,4.1403,0.0,0.0,0.0,0.0,0.0,0.0,0.0,0.0,0.0,0.0,0.0,0.0,0.0,5.1324,5.1004,5.093,5.037,4.9854,4.9222,4.9288,4.9043,4.86,4.8666,4.8666,4.86,4.86,4.86,4.8576,0.0,0.0,0.0,4.6713,4.6254,4.5926,4.6294,4.6397,4.6499,4.6802,4.6953,4.6953,4.6953,4.7224,4.7617,4.7666,4.7767,4.8008,4.8611,4.9113,4.954,4.959,4.9396,4.9302,5.0077,5.0031,5.0074,5.093,5.1197,5.1272,5.1272,5.1272,5.1423,5.1875,5.1548,5.1348,5.18,5.1448,5.0946,5.0419,5.0343,5.0167,4.9665,4.9565,4.9464,4.9314,4.8385,4.7556,4.7029,4.6918,4.6753,4.62,4.5673,4.5422,4.5422,4.4367,4.379,4.379,4.3212,4.2911,4.2911,4.2811,4.2484,4.2062,4.2011,4.1656,5.1805,5.2432,5.2556,5.1986,4.864,4.5211,4.407,0.0,3.7491,3.686,3.6438,3.6221,3.6276,3.6526,3.6998,3.7827,0.0,0.0,0.0,0.0,0.0,0.0,0.0,0.0,0.0,0.0,0.0,0.0,0.0,0.0,0.0,5.0376,5.0392,5.0641,4.9923,4.9398,4.9179,4.9041,4.8798,4.8379,4.8328,4.8116,4.7918,4.7918,4.7918,4.7894,0.0,0.0,0.0,4.7165,4.681,4.6439,4.6882,4.7005,4.6956,4.7402,4.7588,4.7588,4.7588,4.7735,4.7906,4.7906,4.8305,4.8818,4.9041,4.9041,4.9091,4.9735,4.9975,5.0108,5.0074,5.0431,5.0938,5.1649,5.2026,5.2277,5.2277,5.2277,5.2226,5.2126,5.1925,5.1749,5.1624,5.1423,5.1096,5.0494,5.072,5.0619,4.9715,4.9891,4.9967,4.9615,4.9188,4.8711,4.8159,4.7807,4.738,4.6853,4.6276,4.5974,4.5974,4.5221,4.4819,4.4819,4.394,4.3463,4.3463,4.2811,4.2414,4.2213,4.1831,4.1555,4.9949,5.1294,5.2161,5.1377,4.7908,4.4432,0.0,0.0,3.6823,3.6461,3.6146,3.586,3.586,3.616,3.6456,0.0,0.0,3.799,0.0,0.0,0.0,0.0,0.0,0.0,0.0,0.0,0.0,0.0,0.0,0.0,0.0,4.9648,4.9834,5.0443,4.9728,4.9229,4.9084,4.8971,4.8633,4.805,4.7931,4.7696,4.7497,4.7497,4.7497,4.7497,0.0,0.0,0.0,4.7497,4.7281,4.6968,4.7353,4.7413,4.732,4.7683,4.7828,4.7828,4.7828,4.7925,4.807,4.807,4.8415,4.8858,4.9151,4.9138,4.9215,4.9885,5.0475,5.0861,5.0513,5.108,5.1875,5.2251,5.2653,5.2929,5.2929,5.2929,5.2804,5.2427,5.2352,5.2226,5.1825,5.1774,5.1574,5.0996,5.1272,5.1122,4.9992,5.0167,5.0193,4.9665,4.959,4.9364,4.8812,4.841,4.7933,4.7405,4.6853,4.6552,4.6552,4.5874,4.5497,4.5497,4.4543,4.4041,4.4041,4.3112,4.269,4.269,4.2082,4.1731,4.7166,4.9554,5.1575,5.0493,4.774,4.4825,0.0,0.0,3.7048,3.6488,3.6003,3.562,3.562,3.6063,3.6406,3.6416,3.7049,0.0,0.0,0.0,0.0,0.0,0.0,0.0,0.0,0.0,0.0,0.0,0.0,0.0,0.0,4.9373,4.9589,5.0648,5.0143,4.9614,4.9084,4.9084,4.8555,4.7521,4.7497,4.7497,4.7497,4.7497,4.7497,0.0,0.0,0.0,0.0,4.7497,4.7497,4.7497,4.7497,4.7497,4.7497,4.7497,4.7497,4.7497,4.7497,4.7834,4.8291,4.8291,4.793,4.7714,4.8748,4.9538,5.0081,5.0106,5.0746,5.1507,5.16,5.2229,5.2904,5.2929,5.2929,5.2929,5.2929,5.2929,5.2929,5.2929,5.2929,5.2929,5.2904,5.2904,5.2729,5.2176,5.2101,5.1699,5.0544,5.0419,5.0193,4.9665,4.959,4.9364,4.8812,4.8761,4.851,4.7933,4.7405,4.7068,4.7068,4.6075,4.5497,4.5497,4.492,4.4618,4.4618,4.4066,4.379,4.3765,4.3212,4.2715,4.3563,4.484,4.5629,4.5537,4.3406,4.1177,4.044,0.0,3.6822,3.6455,3.6407,3.6307,3.5941,3.6158,3.642,3.6386,3.6895,0.0,0.0,0.0,0.0,0.0,0.0,0.0,0.0,0.0,0.0,0.0,0.0,0.0,0.0,4.971,4.995,5.0672,5.0167,4.9782,4.9614,4.9253,4.8724,4.8026,4.7666,4.7497,4.7497,4.7497,0.0,0.0,0.0,0.0,0.0,4.7497,4.7497,4.7497,4.7497,4.7497,4.7497,4.7497,4.7497,4.7497,4.7497,4.7617,4.7762,4.7762,4.7882,4.8171,4.8868,4.8956,4.9179,5.0478,5.1264,5.1758,5.2035,5.2504,5.2929,5.2929,5.2929,5.2929,5.2929,5.2929,5.2929,5.2929,5.2929,5.2929,5.2929,5.2929,5.2729,5.2176,5.2427,5.2277,5.1147,5.1348,5.1197,5.0268,5.0167,4.9941,4.9389,4.8987,4.8686,4.851,4.7631,4.7068,4.7068,4.6426,4.605,4.605,4.5497,4.5221,4.5221,4.4267,4.3614,4.3237,4.3062,4.2886,0.0,4.1924,4.2879,4.3057,4.1489,0.0,0.0,0.0,3.6814,3.6211,3.6405,3.6495,3.6061,3.6201,3.6459,3.6675,3.6988,0.0,0.0,0.0,0.0,0.0,0.0,0.0,0.0,0.0,0.0,0.0,0.0,0.0,0.0,0.0,5.0239,5.0383,4.9854,4.9565,4.9565,4.9036,4.8507,4.7978,4.7666,4.7497,4.7497,4.7497,0.0,0.0,0.0,0.0,0.0,4.7497,4.7497,4.7497,4.7497,4.7497,4.7497,4.7497,4.7497,4.7521,4.7738,4.781,4.7834,4.8026,4.8315,4.8676,4.9205,4.9301,4.9466,5.0804,5.1376,5.1656,5.2099,5.2308,5.2515,5.2654,5.2723,5.2723,5.2861,5.2929,5.2929,5.2929,5.2929,5.2929,5.2929,5.2929,5.2804,5.2477,5.2703,5.2603,5.1699,5.19,5.1749,5.0845,5.0544,5.0268,4.9941,4.9389,4.9088,4.9088,4.8259,4.7757,4.7757,4.7029,4.6627,4.6627,4.6075,4.5799,4.5799,4.4669,4.384,4.3288,4.3062,4.2986,0.0,0.0,0.0,0.0,0.0,0.0,0.0,0.0,0.0,3.5795,3.6061,3.6293,3.606,3.6249,3.6627,3.7108,3.7228,0.0,0.0,0.0,0.0,0.0,0.0,0.0,0.0,0.0,0.0,0.0,0.0,0.0,0.0,0.0,5.0383,4.983,4.9301,4.9036,4.9084,4.8555,4.8026,4.7497,4.7497,4.7497,4.7497,4.7497,0.0,0.0,0.0,0.0,0.0,4.7497,4.7497,4.7497,4.7497,4.7497,4.7497,4.7497,4.7521,4.7617,4.8074,4.8267,4.8363,4.8868,4.906,4.9229,4.971,5.0239,5.0718,5.1071,5.1141,5.1282,5.1656,5.182,5.196,5.2308,5.2446,5.2515,5.2861,5.2929,5.2929,5.2929,5.2929,5.2929,5.2929,5.2929,5.2929,5.2929,5.2929,5.2754,5.2226,5.2176,5.195,5.1398,5.087,5.0519,5.0494,4.9941,4.959,4.959,4.9088,4.8761,4.8761,4.7732,4.7068,4.7068,4.6602,4.6301,4.625,4.5196,4.4392,4.384,4.3288,4.3037,0.0,0.0,0.0,0.0,0.0,0.0,0.0,0.0,0.0,0.0,0.0,0.0,0.0,3.6702,3.706,3.718,3.7541,0.0,0.0,0.0,0.0,0.0,0.0,0.0,0.0,0.0,0.0,0.0,0.0,0.0,0.0,0.0,4.9806,4.9277,4.8748,4.8676,4.9084,4.8555,4.8026,4.7497,4.7497,4.7497,4.7497,4.7497,0.0,0.0,0.0,0.0,4.7497,4.7497,4.7497,4.7497,4.7497,4.7497,4.7497,4.7497,4.7762,4.805,4.7786,4.7954,4.8315,4.8435,4.9012,4.9779,4.983,4.995,5.0213,5.0646,5.1025,5.1211,5.1282,5.1796,5.2308,5.2377,5.2585,5.2792,5.2861,5.2929,5.2929,5.2929,5.2929,5.2929,5.2929,5.2929,5.2929,5.2929,5.2929,5.2879,5.2754,5.2729,5.2528,5.1975,5.18,5.1523,5.1122,5.0167,4.959,4.959,4.9088,4.8761,4.8761,4.7732,4.7068,4.7068,4.6602,4.61,4.5673,4.5422,4.4995,4.4418,4.3865,4.3614,0.0,0.0,0.0,0.0,0.0,0.0,0.0,0.0,0.0,0.0,0.0,0.0,0.0,0.0,0.0,3.7517,3.7589,0.0,0.0,0.0,0.0,0.0,0.0,0.0,0.0,0.0,0.0,0.0,0.0,0.0,0.0,0.0,4.9373,4.9084,4.8555,4.8435,4.8724,4.8195,4.7786,4.7497,4.7497,4.7497,4.7497,4.7497,0.0,0.0,0.0,0.0,4.7497,4.7497,4.7497,4.7497,4.7497,4.7497,4.7521,4.7786,4.7882,4.7954,4.8147,4.8411,4.87,4.894,4.9397,4.9996,5.0167,5.0239,5.0311,5.0624,5.0837,5.0954,5.0954,5.1306,5.1681,5.1796,5.2144,5.2446,5.2654,5.2792,5.2929,5.2929,5.2929,5.2929,5.2929,5.2929,5.2929,5.2929,5.2929,5.2929,5.2929,5.2929,5.2804,5.2528,5.2251,5.1975,5.1674,5.087,5.0268,4.9992,4.969,4.9414,4.9163,4.8335,4.7657,4.7093,4.6602,4.6175,4.5874,4.5623,4.5321,4.4995,4.4443,4.4041,0.0,0.0,0.0,0.0,3.629,0.0,0.0,0.0,0.0,0.0,0.0,0.0,0.0,3.7204,0.0,0.0,0.0,0.0,0.0,0.0,0.0,0.0,0.0,0.0,0.0,0.0,0.0,0.0,0.0,0.0,0.0,0.0,0.0,4.8964,4.8531,4.8243,4.8171,4.7714,4.7497,4.7497,4.7497,4.7497,4.7497,4.7497,4.7497,0.0,0.0,0.0,4.7497,4.7497,4.7497,4.7497,4.7497,4.7497,4.7569,4.8098,4.8002,4.7762,4.8748,4.9133,4.9277,4.9734,4.9926,5.007,5.0551,5.0696,5.0696,5.0696,5.0696,5.0696,5.0696,5.0767,5.0837,5.1236,5.1586,5.196,5.2308,5.2654,5.2792,5.2723,5.2792,5.2792,5.2792,5.2861,5.2929,5.2929,5.2929,5.2929,5.2929,5.2929,5.2929,5.2929,5.2503,5.2226,5.2226,5.18,5.1297,5.072,5.0519,5.0117,4.949,4.9012,4.8284,4.728,4.6728,4.6426,4.6426,4.5874,4.5623,4.5598,4.502,4.4493,3.54,3.5881,3.6098,3.528,3.5737,3.617,3.5231,0.0,0.0,0.0,0.0,0.0,0.0,0.0,0.0,0.0,0.0,0.0,0.0,0.0,0.0,0.0,0.0,0.0,0.0,0.0,0.0,0.0,0.0,0.0,0.0,0.0,0.0,4.8435,4.8339,4.8074,4.7617,4.7545,4.7497,4.7497,4.7497,4.7497,4.7497,4.7497,4.7497,0.0,0.0,4.7497,4.7497,4.7497,4.7497,4.7497,4.7497,4.7497,4.7569,4.8098,4.8243,4.8267,4.8868,4.9373,4.9758,4.983,5.0191,5.06,5.0672,5.0696,5.0696,5.0696,5.0696,5.0696,5.0696,5.0884,5.1236,5.1586,5.203,5.2283,5.2377,5.2446,5.2377,5.203,5.2238,5.2515,5.2515,5.2723,5.2929,5.2929,5.2929,5.2929,5.2929,5.2929,5.2929,5.2929,5.2854,5.2804,5.2804,5.2729,5.2427,5.1875,5.0946,4.9967,4.8937,4.8812,4.846,4.7807,4.728,4.7004,4.7004,4.6451,4.6175,4.6175,4.5623,4.5321,3.5208,3.5569,3.5857,3.5376,3.605,3.6699,3.6218,3.6266,0.0,0.0,0.0,0.0,0.0,0.0,0.0,0.0,0.0,0.0,0.0,0.0,0.0,0.0,0.0,0.0,0.0,0.0,0.0,0.0,0.0,0.0,0.0,0.0,0.0,0.0,4.8002,4.7738,4.7497,4.7497,4.7497,4.7497,4.7497,4.7497,4.7497,4.7497,4.7497,4.7497,0.0,4.7497,4.7497,4.7497,4.7497,4.7497,4.7497,4.7497,4.7521,4.7786,4.8411,4.9133,4.9084,4.9421,4.9926,5.0215,5.0503,5.0696,5.0696,5.0696,5.0696,5.0696,5.0696,5.0696,5.0696,5.0837,5.0978,5.119,5.1446,5.1726,5.1726,5.2074,5.2377,5.2169,5.2446,5.2654,5.2654,5.2792,5.2929,5.2929,5.2929,5.2929,5.2929,5.2929,5.2929,5.2929,5.2929,5.2929,5.2929,5.2929,5.2578,5.1699,5.087,5.0067,4.9238,4.8937,4.8661,4.8385,4.7832,4.7405,4.7068,4.6878,4.6602,4.6301,4.605,4.5773,3.5259,3.5452,3.5889,3.5861,0.0,3.7228,3.7348,3.7156,0.0,0.0,0.0,0.0,0.0,0.0,0.0,0.0,0.0,0.0,0.0,0.0,0.0,0.0,0.0,0.0,0.0,0.0,0.0,0.0,0.0,0.0,0.0,0.0,0.0,0.0,4.7786,4.7497,4.7497,4.7497,4.7497,4.7497,4.7497,4.7497,4.7497,4.7497,4.7497,4.7497,4.7497,4.7497,4.7497,4.7497,4.7497,4.7497,4.7497,4.7569,4.769,4.7834,4.8724,4.9806,4.9397,4.9614,5.0143,5.0576,5.0696,5.0696,5.0696,5.0696,5.0696,5.0696,5.0696,5.0696,5.0696,5.0696,5.0696,5.0837,5.1025,5.1211,5.1282,5.1796,5.2238,5.2238,5.2515,5.2792,5.2792,5.2861,5.2929,5.2929,5.2929,5.2929,5.2929,5.2929,5.2929,5.2929,5.2929,5.2929,5.2929,5.2929,5.2503,5.1548,5.082,5.0167,4.9615,4.9188,4.8962,4.8962,4.841,4.7908,4.7506,4.738,4.7104,4.6677,4.6552,4.6276,3.626,3.626,3.6628,3.6671,3.6976,3.7324,3.7805,3.831,0.0,3.932,0.0,0.0,0.0,0.0,0.0,0.0,0.0,0.0,0.0,0.0,0.0,0.0,0.0,0.0,0.0,0.0,0.0,0.0,0.0,0.0,0.0,0.0,0.0,0.0,0.0,4.7497,4.7497,4.7497,4.7497,4.7497,4.7497,4.7497,4.7497,4.7497,4.7497,4.7497,4.7497,4.7497,4.7497,4.7497,4.7497,4.7497,4.7497,4.781,4.8291,4.8796,4.9349,4.9854,4.99,5.0167,5.0648,5.0696,5.0696,5.0696,5.0696,5.0696,5.0696,5.0696,5.0696,5.0696,5.0696,5.0696,5.0767,5.1095,5.1141,5.1282,5.1656,5.182,5.182,5.182,5.2169,5.2446,5.2446,5.2723,5.2929,5.2929,5.2929,5.2929,5.2929,5.2929,5.2929,5.2929,5.2929,5.2929,5.2929,5.2929,5.2678,5.2076,5.1021,5.0167,4.9615,4.9565,4.954,4.954,4.8987,4.8686,4.8661,4.8109,4.7832,4.7782,4.7305,4.6993,3.6919,3.6693,3.6921,3.7815,3.7612,0.0,0.0,3.9417,3.985,4.0066,4.0619,0.0,0.0,0.0,0.0,0.0,0.0,0.0,0.0,0.0,0.0,0.0,0.0,0.0,0.0,0.0,0.0,0.0,0.0,0.0,0.0,0.0,0.0,0.0,0.0,4.7353,4.7016,4.7016,4.7016,4.7016,4.7353,4.7497,4.7497,4.7497,4.7497,4.7497,4.7497,4.7497,4.7497,4.7497,4.7497,4.7497,4.7497,4.8026,4.8772,4.8628,4.9349,5.0335,4.9998,5.0239,5.0696,5.0696,5.0696,5.0696,5.0696,5.0696,5.0696,5.0696,5.0696,5.0696,5.0696,5.0696,5.0696,5.0837,5.0884,5.0954,5.1376,5.1586,5.189,5.2099,5.2446,5.2723,5.2723,5.2792,5.2929,5.2929,5.2929,5.2929,5.2929,5.2929,5.2929,5.2929,5.2929,5.2929,5.2929,5.2929,5.2678,5.2126,5.1373,5.0695,5.0117,4.9766,4.959,4.959,4.9389,4.9113,4.8761,4.856,4.8259,4.7908,4.7707,4.7431,3.7108,3.6679,3.6721,0.0,0.0,0.0,3.9995,4.0604,4.0884,4.1725,4.1942,0.0,0.0,0.0,0.0,0.0,0.0,0.0,0.0,0.0,0.0,0.0,0.0,0.0,0.0,0.0,0.0,0.0,0.0,0.0,0.0,0.0,0.0,0.0,0.0,4.692,4.6704,4.6704,4.6704,4.6728,4.7257,4.7425,4.7257,4.7425,4.7401,4.7257,4.7425,4.7497,4.7497,4.7497,4.7497,4.7521,4.7858,4.8339,4.8844,4.8988,4.9638,5.0407,5.0191,5.0383,5.0696,5.0696,5.0696,5.0696,5.0696,5.0696,5.0696,5.0696,5.0696,5.0696,5.0696,5.0696,5.0696,5.0696,5.0696,5.0767,5.1141,5.1446,5.1726,5.2169,5.2515,5.2723,5.2723,5.2861,5.2929,5.2929,5.2929,5.2929,5.2929,5.2929,5.2929,5.2929,5.2929,5.2929,5.2929,5.2929,5.2754,5.2377,5.185,5.1197,5.0444,5.0067,4.9766,4.959,4.959,4.9414,4.9038,4.9038,4.8837,4.8435,4.8083,4.7707,3.6836,3.6191,3.6055,0.0,0.0,0.0,4.1712,4.1915,4.1918,4.4587,0.0,0.0,0.0,0.0,0.0,0.0,0.0,0.0,0.0,0.0,0.0,0.0,0.0,0.0,0.0,0.0,0.0,0.0,0.0,0.0,0.0,0.0,0.0,0.0,0.0,0.0,4.668,4.6704,4.6704,4.6704,4.7233,4.7209,4.6728,4.7257,4.7209,4.6752,4.7281,4.7497,4.7497,4.7497,4.7497,4.7617,4.8652,4.8748,4.8483,5.0095,5.0335,4.995,5.0503,5.0696,5.0696,5.0696,5.0696,5.0696,5.0696,5.0696,5.0696,5.0696,5.0696,5.0696,5.0696,5.0696,5.0696,5.0696,5.0696,5.0767,5.1141,5.1211,5.1282,5.1751,5.2169,5.2377,5.2377,5.2654,5.2929,5.2929,5.2929,5.2929,5.2929,5.2929,5.2929,5.2929,5.2929,5.2929,5.2929,5.2929,5.2929,5.2929,5.2427,5.1599,5.0469,5.0419,5.0167,4.9615,4.959,4.959,4.959,4.959,4.959,4.9565,4.8435,4.7908,3.9114,0.0,0.0,3.9938,0.0,0.0,0.0,4.3134,0.0,0.0,0.0,0.0,0.0,0.0,0.0,0.0,0.0,0.0,0.0,0.0,0.0,0.0,0.0,0.0,0.0,0.0,0.0,0.0,0.0,0.0,0.0,0.0,0.0,0.0,0.0,0.0,4.5597,4.5597,4.5597,4.5597,4.615,4.6511,4.6728,4.7257,4.7425,4.7281,4.7425,4.7497,4.7497,4.7497,4.7497,4.7521,4.7858,4.8339,4.8892,4.9397,4.995,5.0479,5.0648,5.0696,5.0696,5.0696,5.0696,5.0696,5.0696,5.0696,5.0696,5.0696,5.0696,5.0696,5.0696,5.0696,5.0696,5.0696,5.0696,5.0767,5.1141,5.1211,5.1422,5.2099,5.2308,5.2446,5.2723,5.2861,5.2929,5.2929,5.2929,5.2929,5.2929,5.2929,5.2929,5.2929,5.2929,5.2929,5.2929,5.2929,5.2929,5.2929,5.2779,5.2176,5.1071,5.0645,5.0167,4.9615,4.959,4.959,4.959,4.959,4.959,4.9565,4.8862,4.8309,3.938,0.0,0.0,4.1041,4.1378,4.2085,4.4964,0.0,0.0,0.0,0.0,0.0,0.0,0.0,0.0,0.0,0.0,0.0,0.0,0.0,0.0,0.0,0.0,0.0,0.0,0.0,0.0,0.0,0.0,0.0,0.0,0.0,0.0,0.0,0.0,0.0,4.5077,4.5077,4.5077,4.5077,4.5669,4.6102,4.6415,4.7161,4.7377,4.7209,4.7401,4.7497,4.7497,4.7497,4.7497,4.7521,4.7738,4.8195,4.882,4.9229,4.9806,5.0407,5.0624,5.0696,5.0696,5.0696,5.0696,5.0696,5.0696,5.0696,5.0696,5.0696,5.0696,5.0696,5.0696,5.0696,5.0696,5.0696,5.0696,5.0767,5.0954,5.1025,5.1165,5.1611,5.1796,5.2005,5.2377,5.2585,5.2723,5.2861,5.2929,5.2929,5.2929,5.2929,5.2929,5.2929,5.2929,5.2929,5.2929,5.2929,5.2929,5.2929,5.2929,5.2528,5.1649,5.1071,5.0393,4.9615,4.959,4.959,4.959,4.959,4.959,4.959,4.9038,4.846,3.8493,0.0,0.0,4.0482,4.1542,0.0,0.0,0.0,0.0,0.0,0.0,0.0,0.0,0.0,0.0,0.0,0.0,0.0,0.0,0.0,0.0,0.0,0.0,0.0,0.0,0.0,0.0,0.0,0.0,0.0,0.0,0.0,0.0,0.0,0.0,0.0,4.5005,4.5005,4.5005,0.0,4.5597,4.5862,4.5886,4.6944,4.7185,4.6824,4.7305,4.7497,4.7497,4.7497,4.7497,4.7545,4.8074,4.8315,4.8483,4.9493,4.9902,5.0022,5.0527,5.0696,5.0696,5.0696,5.0696,5.0696,5.0696,5.0696,5.0696,5.0696,5.0696,5.0696,5.0696,5.0696,5.0696,5.0696,5.0696,5.0696,5.0696,5.0696,5.0696,5.0767,5.0954,5.1376,5.182,5.2169,5.2515,5.2861,5.2929,5.2929,5.2929,5.2929,5.2929,5.2929,5.2929,5.2929,5.2929,5.2929,5.2929,5.2929,5.2929,5.2678,5.2126,5.1624,5.0845,4.9766,4.969,4.9665,4.9665,4.9615,4.959,4.959,4.9038,4.846,0.0,4.0903,0.0,0.0,4.588,0.0,0.0,0.0,0.0,0.0,0.0,0.0,0.0,0.0,0.0,0.0,0.0,0.0,0.0,0.0,0.0,0.0,0.0,0.0,0.0,0.0,0.0,0.0,0.0,0.0,0.0,0.0,0.0,0.0,0.0,4.4333,4.4453,4.4453,4.4453,0.0,4.4981,4.5245,4.5269,4.6391,4.704,4.7329,4.7449,4.7497,4.7497,4.7497,4.7497,4.7545,4.8074,4.8555,4.8988,4.9638,5.0143,5.0551,5.0648,5.0696,5.0696,5.0696,5.0696,5.0696,5.0696,5.0696,5.0696,5.0696,5.0696,5.0696,5.0696,5.0696,5.0696,5.0696,5.0696,5.0696,5.0696,5.0696,5.0767,5.1025,5.1141,5.1422,5.2169,5.2377,5.2515,5.2861,5.2929,5.2929,5.2929,5.2929,5.2929,5.2929,5.2929,5.2929,5.2929,5.2929,5.2929,5.2929,5.2929,5.2678,5.2126,5.2,5.1599,5.0946,5.0469,5.0243,5.0243,4.9816,4.959,4.959,4.9038,4.846,0.0,0.0,0.0,4.4892,0.0,0.0,0.0,0.0,0.0,0.0,0.0,0.0,0.0,0.0,0.0,0.0,0.0,0.0,0.0,0.0,0.0,0.0,0.0,0.0,0.0,0.0,0.0,0.0,0.0,0.0,0.0,0.0,0.0,0.0,4.4285,4.4285,4.4285,4.4285,4.4285,4.4285,4.4573,4.4957,4.5549,4.6343,4.6872,4.7136,4.7401,4.7353,4.7136,4.7401,4.7353,4.7185,4.7714,4.8074,4.8411,4.9205,4.9662,4.9998,5.0527,5.0696,5.0696,5.0696,5.0696,5.0696,5.0696,5.0696,5.0696,5.0696,5.0696,5.0696,5.0696,5.0696,5.0696,5.0696,5.0696,5.0696,5.0696,5.0696,5.0767,5.0954,5.0954,5.1236,5.196,5.2446,5.2723,5.2861,5.2929,5.2929,5.2929,5.2929,5.2929,5.2929,5.2929,5.2929,5.2929,5.2929,5.2929,5.2929,5.2929,5.2804,5.2503,5.2503,5.2126,5.1297,5.0996,5.0695,5.0419,5.0117,4.9841,4.959,4.9289,4.8862,0.0,0.0,4.2923,4.5734,0.0,0.0,0.0,0.0,0.0,0.0,0.0,0.0,0.0,0.0,0.0,0.0,0.0,0.0,0.0,0.0,0.0,0.0,0.0,0.0,0.0,0.0,0.0,0.0,0.0,0.0,0.0,0.0,4.4285,4.4285,4.4285,4.4285,4.4285,4.4285,4.4285,4.4285,4.4285,4.4741,4.5669,4.6295,4.668,4.6872,4.7305,4.7257,4.6896,4.7329,4.7233,4.6896,4.7425,4.769,4.7882,4.8868,4.9277,4.9493,5.0383,5.0696,5.0696,5.0696,5.0696,5.0696,5.0696,5.0696,5.0696,5.0696,5.0696,5.0696,5.0696,5.0696,5.0696,5.0696,5.0696,5.0696,5.0696,5.0696,5.0696,5.0696,5.0767,5.0978,5.1681,5.2377,5.2861,5.2861,5.2929,5.2929,5.2929,5.2929,5.2929,5.2929,5.2929,5.2929,5.2929,5.2929,5.2929,5.2929,5.2929,5.2929,5.2929,5.2929,5.2503,5.1574,5.1473,5.1197,5.0695,5.0519,5.0167,4.9741,4.964,4.9289,0.0,0.0,4.4386,0.0,0.0,0.0,0.0,0.0,0.0,0.0,0.0,0.0,0.0,0.0,0.0,0.0,0.0,0.0,0.0,0.0,0.0,0.0,0.0,0.0,0.0,0.0,0.0,0.0,0.0,0.0,0.0,4.4285,4.4285,4.4285,4.4285,4.4285,4.4285,4.4285,4.4285,4.4285,4.4285,4.4357,4.4525,4.5573,4.6535,4.7401,4.7473,4.7473,4.7401,4.7473,4.7473,4.7449,4.7978,4.8459,4.894,4.9541,5.007,5.0503,5.0648,5.0696,5.0696,5.0696,5.0696,5.0696,5.0696,5.0696,5.0696,5.0696,5.0696,5.0696,5.0696,5.0696,5.0696,5.0696,5.0696,5.0696,5.0696,5.0696,5.0696,5.0696,5.0954,5.1306,5.1751,5.2169,5.2585,5.2861,5.2929,5.2929,5.2929,5.2929,5.2929,5.2929,5.2929,5.2929,5.2929,5.2929,5.2929,5.2929,5.2929,5.2929,5.2929,5.2929,5.2854,5.2703,5.2226,5.195,5.1875,5.0896,5.0368,5.0293,4.9816,4.9289,4.1952,4.2681,0.0,0.0,0.0,0.0,0.0,0.0,0.0,0.0,0.0,0.0,0.0,0.0,0.0,0.0,0.0,0.0,0.0,0.0,0.0,0.0,0.0,0.0,0.0,0.0,0.0,0.0,0.0,0.0,4.4285,4.4285,4.4285,4.4285,4.4285,4.4285,4.4285,4.4285,4.4285,4.4285,4.4573,4.4717,4.4765,4.5886,4.6463,4.6655,4.7233,4.7329,4.7088,4.7377,4.7497,4.7545,4.8074,4.8603,4.9133,4.9662,5.0022,5.0287,5.06,5.0696,5.0696,5.0696,5.0696,5.0696,5.0696,5.0696,5.0696,5.0696,5.0696,5.0696,5.0696,5.0696,5.0696,5.0696,5.0696,5.0792,5.1081,5.0912,5.0792,5.1081,5.1631,5.2085,5.1935,5.2379,5.277,5.2634,5.2792,5.2929,5.2929,5.2929,5.2929,5.2929,5.2929,5.2929,5.2929,5.2929,5.2929,5.2929,5.2929,5.2929,5.2929,5.2929,5.2929,5.2929,5.2678,5.2427,5.2101,5.1599,5.1021,5.0419,5.0167,4.9766,0.0,0.0,0.0,0.0,0.0,0.0,0.0,0.0,0.0,0.0,0.0,0.0,0.0,0.0,0.0,0.0,0.0,0.0,0.0,0.0,0.0,0.0,0.0,0.0,0.0,0.0,0.0,0.0,0.0,0.0,4.4069,4.4069,4.4141,4.4285,4.4141,4.4141,4.4285,4.4285,4.4285,4.4285,4.4693,4.4885,4.4909,4.603,4.6295,4.5982,4.6896,4.7161,4.6944,4.7185,4.7377,4.7545,4.8074,4.8603,4.9133,4.9662,4.995,5.0143,5.0551,5.0696,5.0696,5.0696,5.0696,5.0696,5.0696,5.0696,5.0696,5.0696,5.0696,5.0696,5.0696,5.0696,5.0696,5.0696,5.0696,5.084,5.1369,5.1297,5.1296,5.1754,5.2357,5.2767,5.2496,5.2921,5.3172,5.2789,5.2923,5.308,5.2955,5.2929,5.2929,5.2929,5.2929,5.2929,5.2929,5.2929,5.2929,5.2929,5.2929,5.2929,5.2929,5.2929,5.2929,5.2929,5.2929,5.2729,5.2302,5.2176,5.1674,5.0845,5.0544,5.0193,0.0,0.0,0.0,0.0,0.0,0.0,0.0,0.0,0.0,0.0,0.0,0.0,0.0,0.0,0.0,0.0,0.0,0.0,0.0,0.0,0.0,0.0,0.0,0.0,0.0,0.0,0.0,0.0,0.0,0.0,4.3577,4.3553,4.3794,4.4261,4.3842,4.3818,4.4285,4.4285,4.4285,4.4285,4.4309,4.4333,4.4357,4.5414,4.5958,4.5958,4.6511,4.7016,4.7425,4.6944,4.704,4.7545,4.8074,4.8603,4.9133,4.9662,5.0191,5.0672,5.0696,5.0696,5.0696,5.0696,5.0696,5.0696,5.0696,5.0696,5.0696,5.0696,5.0696,5.0696,5.0696,5.0696,5.0696,5.0696,5.0696,5.084,5.1369,5.1874,5.2357,5.2744,5.2841,5.313,5.3824,5.3942,5.3911,5.3663,5.3658,5.3482,5.298,5.2929,5.2929,5.2929,5.2929,5.2929,5.2929,5.2929,5.2929,5.2929,5.2929,5.2929,5.2929,5.2929,5.2929,5.2929,5.2929,5.2904,5.2879,5.2352,5.2076,5.2,5.0921,5.0393,0.0,0.0,0.0,0.0,0.0,0.0,0.0,0.0,0.0,0.0,0.0,0.0,0.0,0.0,0.0,0.0,0.0,0.0,0.0,0.0,0.0,0.0,0.0,0.0,0.0,0.0,0.0,0.0,0.0,0.0,4.3048,4.3024,4.3265,4.3794,4.3625,4.377,4.4285,4.4285,4.4285,4.4285,4.4285,4.4285,4.4333,4.539,4.5934,4.5934,4.6126,4.6511,4.7016,4.7161,4.7329,4.7593,4.8459,4.9109,4.9662,5.0191,5.0527,5.0696,5.0696,5.0696,5.0696,5.0696,5.0696,5.0696,5.0696,5.0696,5.0696,5.0696,5.0696,5.0696,5.0696,5.0696,5.0792,5.1129,5.1922,5.2599,5.2793,5.2864,5.2935,5.3278,5.3619,5.3888,5.4129,5.4369,5.4287,5.3508,5.3568,5.3507,5.3005,5.2929,5.2929,5.2929,5.2929,5.2929,5.2929,5.2929,5.2929,5.2929,5.2929,5.2929,5.2929,5.2929,5.2929,5.2929,5.2929,5.2929,5.2929,5.2729,5.2452,5.2101,5.1699,5.1122,0.0,0.0,0.0,0.0,0.0,0.0,0.0,0.0,0.0,0.0,0.0,0.0,0.0,0.0,0.0,0.0,0.0,0.0,0.0,0.0,0.0,0.0,0.0,0.0,0.0,0.0,0.0,0.0,0.0,0.0,4.2554,4.2723,4.2904,4.3241,4.3601,4.3829,4.3997,4.4189,4.4285,4.4285,4.4285,4.4381,4.4573,4.5525,4.603,4.6199,4.6367,4.6655,4.6968,4.6968,4.7281,4.7858,4.8724,4.9397,4.9926,5.0503,5.0696,5.0696,5.0696,5.0696,5.0696,5.0696,5.0696,5.0696,5.0696,5.0696,5.0696,5.0696,5.0696,5.0744,5.0912,5.1105,5.1321,5.1682,5.2695,5.3619,5.3619,5.3691,5.3837,5.4181,5.4549,5.4819,5.4891,5.506,5.5004,5.4081,5.3969,5.3808,5.3256,5.303,5.2929,5.2929,5.2929,5.2929,5.2929,5.2929,5.2929,5.2929,5.2929,5.2929,5.2929,5.2929,5.2929,5.2929,5.2929,5.2929,5.2929,5.2929,5.2729,5.2377,5.2176,5.1599,0.0,0.0,0.0,0.0,0.0,0.0,0.0,0.0,0.0,0.0,0.0,0.0,0.0,0.0,0.0,0.0,0.0,0.0,0.0,0.0,0.0,0.0,0.0,0.0,0.0,0.0,0.0,0.0,0.0,4.2554,4.1966,4.253,4.2819,4.2843,4.3794,4.3997,4.3553,4.3997,4.4261,4.4285,4.4309,4.4573,4.5101,4.5694,4.6223,4.6728,4.7257,4.7473,4.7401,4.6391,4.6872,4.8315,4.8868,4.9397,4.9926,5.0503,5.0696,5.0696,5.0696,5.0696,5.0696,5.0696,5.0696,5.0696,5.0696,5.0696,5.0696,5.0696,5.0696,5.0816,5.1345,5.1874,5.2283,5.2307,5.2986,5.3619,5.3643,5.4353,5.5115,5.5558,5.5632,5.5705,5.6146,5.6219,5.6018,5.5465,5.4938,5.4386,5.3783,5.3256,5.2955,5.2929,5.2929,5.2929,5.2929,5.2929,5.2929,5.2929,5.2929,5.2929,5.2929,5.2929,5.2929,5.2929,5.2929,5.2929,5.2929,5.2929,5.2929,5.2904,5.2352,5.1825,4.2245,0.0,0.0,0.0,0.0,0.0,0.0,0.0,0.0,0.0,0.0,0.0,0.0,0.0,0.0,0.0,0.0,0.0,0.0,0.0,0.0,0.0,0.0,0.0,0.0,0.0,0.0,0.0,4.1749,4.1557,4.1413,4.2313,4.2988,4.3289,4.3601,4.3866,4.4045,4.3866,4.3938,4.4285,4.4669,4.4933,4.5101,4.6078,4.6367,4.6175,4.6704,4.6944,4.6944,4.7016,4.7329,4.781,4.8724,4.9397,4.9926,5.0503,5.0696,5.0696,5.0696,5.0696,5.0696,5.0696,5.0696,5.0696,5.0696,5.0696,5.0696,5.0696,5.0696,5.0816,5.1345,5.1874,5.2452,5.3083,5.3961,5.4647,5.4942,5.5508,5.5852,5.5632,5.5632,5.5705,5.6146,5.6219,5.6018,5.5465,5.5265,5.4813,5.3833,5.3582,5.3331,5.298,5.2929,5.2929,5.2929,5.2929,5.2929,5.2929,5.2929,5.2929,5.2929,5.2929,5.2929,5.2929,5.2929,5.2929,5.2929,5.2929,5.2929,5.2904,5.2352,5.2226,0.0,0.0,0.0,0.0,0.0,0.0,0.0,3.7014,0.0,0.0,0.0,0.0,0.0,0.0,0.0,0.0,0.0,0.0,0.0,0.0,0.0,0.0,0.0,0.0,0.0,0.0,0.0,0.0,4.1365,4.1268,4.1509,4.2169,4.2567,4.2856,4.3072,4.3241,4.3361,4.3457,4.3673,4.3949,4.4477,4.4981,4.5414,4.6102,4.6463,4.6607,4.692,4.704,4.7088,4.7617,4.7954,4.8219,4.8844,4.9541,5.0263,5.0576,5.0696,5.0696,5.0696,5.0696,5.0696,5.0696,5.0696,5.0696,5.0696,5.0696,5.0696,5.0696,5.0864,5.1176,5.1608,5.2236,5.3035,5.3693,5.4549,5.5337,5.5558,5.5926,5.6146,5.5926,5.5852,5.5926,5.6146,5.6219,5.6093,5.5792,5.534,5.4813,5.416,5.3658,5.3256,5.2955,5.313,5.3155,5.2955,5.313,5.3155,5.2929,5.2929,5.2929,5.2929,5.2929,5.2929,5.2929,5.2929,5.2929,5.2929,5.2929,5.2929,5.2929,5.2603,5.2628,0.0,0.0,0.0,0.0,0.0,0.0,3.7518,3.7342,3.7089,0.0,0.0,0.0,0.0,0.0,0.0,0.0,0.0,0.0,0.0,0.0,0.0,0.0,0.0,0.0,0.0,0.0,4.11,4.11,4.1148,4.1413,4.1942,4.2097,4.2121,4.2121,4.2627,4.2675,4.2158,4.3048,4.3553,4.3601,4.4165,4.4957,4.5934,4.6054,4.6583,4.7425,4.7545,4.7569,4.7545,4.8122,4.8652,4.9084,4.9133,4.9806,5.0696,5.0696,5.0696,5.0696,5.0696,5.0696,5.0696,5.0696,5.0696,5.0696,5.0696,5.0696,5.0696,5.0696,5.1081,5.1633,5.204,5.2841,5.3766,5.423,5.4966,5.5632,5.5632,5.5926,5.6219,5.6219,5.6219,5.6219,5.6219,5.6219,5.6219,5.6219,5.5315,5.4708,5.4587,5.3658,5.298,5.2929,5.3331,5.3432,5.298,5.3356,5.3406,5.2955,5.2929,5.2929,5.2929,5.2929,5.2929,5.2929,5.2929,5.2929,5.2929,5.2929,5.2929,5.2929,5.2929,5.2929,0.0,0.0,0.0,0.0,0.0,0.0,3.7364,3.7067,3.7069,0.0,0.0,0.0,0.0,0.0,0.0,0.0,0.0,0.0,0.0,0.0,0.0,0.0,0.0,0.0,0.0,0.0,4.0547,4.0547,4.0956,4.1413,4.1942,4.2434,4.2651,4.2651,4.3096,4.3313,4.3216,4.3409,4.3746,4.4141,4.5101,4.5718,4.5958,4.68,4.7064,4.692,4.7762,4.7906,4.7569,4.8531,4.8988,4.9109,4.9541,5.0119,5.0696,5.0696,5.0696,5.0696,5.0696,5.0696,5.0696,5.0696,5.0696,5.0696,5.0696,5.0696,5.0696,5.0696,5.1294,5.2088,5.2573,5.3423,5.4303,5.5138,5.5484,5.5705,5.5999,5.6146,5.6219,5.6219,5.6219,5.6219,5.6219,5.6219,5.6219,5.6219,5.5641,5.5064,5.4637,5.3959,5.3381,5.298,5.303,5.303,5.2929,5.303,5.303,5.2929,5.2929,5.2929,5.2929,5.2929,5.2929,5.2929,5.2929,5.2929,5.2929,5.2929,5.2929,5.2929,5.2929,5.2929,0.0,0.0,0.0,3.927,0.0,0.0,0.0,3.749,3.7191,0.0,0.0,0.0,0.0,0.0,0.0,0.0,0.0,0.0,0.0,0.0,0.0,0.0,0.0,0.0,0.0,0.0,4.0114,4.0379,4.0884,4.1293,4.1557,4.2086,4.2434,4.2434,4.2856,4.3144,4.3144,4.3385,4.3794,4.4285,4.5101,4.5814,4.6343,4.6872,4.7112,4.7136,4.7954,4.8147,4.7978,4.9036,4.9469,4.9493,4.9758,5.0215,5.0696,5.0696,5.0696,5.0696,5.0696,5.0696,5.0696,5.0696,5.0696,5.0696,5.0696,5.0837,5.0954,5.0954,5.1483,5.2158,5.288,5.359,5.44,5.5281,5.5726,5.5926,5.6146,5.6219,5.6219,5.6219,5.6219,5.6219,5.6219,5.6219,5.6219,5.6219,5.5742,5.529,5.5013,5.4486,5.3909,5.3381,5.3582,5.3632,5.3331,5.3306,5.3306,5.3306,5.308,5.2929,5.2929,5.2929,5.2929,5.2929,5.2929,5.2929,5.2929,5.2929,5.2929,5.2929,5.2929,5.2929,0.0,0.0,0.0,0.0,0.0,3.9045,0.0,0.0,0.0,0.0,0.0,0.0,0.0,0.0,0.0,0.0,0.0,0.0,0.0,0.0,0.0,0.0,0.0,0.0,0.0,0.0,3.9777,4.021,4.0836,4.1124,4.1028,4.1629,4.1966,4.1966,4.2591,4.2904,4.2904,4.3409,4.3901,4.4453,4.4981,4.579,4.6728,4.692,4.7185,4.7545,4.8267,4.8531,4.8531,4.9589,5.0022,5.0022,5.0022,5.0311,5.0696,5.0696,5.0696,5.0696,5.0696,5.0696,5.0696,5.0696,5.0767,5.0837,5.0837,5.1027,5.1357,5.1428,5.189,5.2617,5.3353,5.4072,5.4718,5.5396,5.5892,5.6219,5.6219,5.6219,5.6219,5.6219,5.6219,5.6219,5.6219,5.6219,5.6219,5.6219,5.5742,5.539,5.539,5.4913,5.4386,5.3909,5.4285,5.4386,5.3909,5.3758,5.3708,5.3708,5.3206,5.2929,5.2929,5.2929,5.2929,5.2929,5.2929,5.2929,5.2929,5.2929,5.2929,5.2929,5.2929,5.2929,0.0,0.0,0.0,0.0,3.9647,0.0,0.0,0.0,0.0,0.0,0.0,0.0,0.0,0.0,0.0,0.0,0.0,0.0,0.0,0.0,0.0,0.0,0.0,0.0,0.0,0.0,0.0,3.9705,4.0619,4.098,4.0523,4.1437,4.1966,4.1966,4.2928,4.3433,4.3433,4.3901,4.4453,4.4981,4.551,4.615,4.6752,4.769,4.7882,4.7569,4.906,4.9421,4.906,5.0167,5.06,5.06,5.06,5.0648,5.0696,5.0696,5.0696,5.0696,5.0696,5.0696,5.0696,5.0696,5.0884,5.1141,5.1141,5.1481,5.1988,5.2343,5.315,5.4081,5.4468,5.5304,5.5972,5.6118,5.6168,5.6219,5.6219,5.6219,5.6219,5.6219,5.6219,5.6219,5.6219,5.6219,5.6219,5.6219,5.5742,5.539,5.539,5.4913,5.4536,5.4557,5.4607,5.4536,5.4461,5.4009,5.3708,5.3708,5.3206,5.2929,5.2929,5.2929,5.2929,5.2929,5.2929,5.2929,5.2929,5.2929,5.2929,5.2929,5.2929,5.2929,0.0,0.0,0.0,0.0,0.0,0.0,0.0,0.0,3.902,0.0,0.0,0.0,0.0,0.0,0.0,0.0,0.0,0.0,0.0,0.0,0.0,0.0,0.0,0.0,0.0,0.0,0.0,0.0,0.0,4.0643,4.0403,4.11,4.1798,4.2399,4.312,4.3673,4.3925,4.4477,4.5005,4.5597,4.6126,4.6655,4.7185,4.7617,4.7882,4.8002,4.8988,4.9445,4.9589,5.0383,5.0696,5.0696,5.0696,5.0696,5.0696,5.0696,5.0696,5.0696,5.0696,5.0696,5.0696,5.0954,5.1095,5.1211,5.1446,5.1898,5.228,5.2421,5.3258,5.4171,5.4555,5.5276,5.5926,5.6146,5.6219,5.6219,5.6219,5.6219,5.6219,5.6219,5.6219,5.6219,5.6219,5.6219,5.6219,5.6219,5.6018,5.5867,5.5867,5.5666,5.539,5.5089,5.4762,5.4561,5.4561,5.4034,5.3708,5.3708,5.3206,5.2929,5.2929,5.2929,5.2929,5.2929,5.2929,5.2929,5.2929,5.2929,5.2929,5.2929,5.2929,5.2929,4.0249,0.0,0.0,0.0,0.0,0.0,0.0,0.0,0.0,0.0,0.0,0.0,0.0,0.0,0.0,0.0,0.0,0.0,0.0,0.0,0.0,0.0,0.0,0.0,0.0,0.0,0.0,0.0,3.9874,0.0,4.0186,4.0812,4.1677,4.2795,4.3241,4.3842,4.4501,4.4741,4.5269,4.615,4.6391,4.6848,4.7521,4.781,4.805,4.8339,4.9157,4.9662,4.9902,5.0479,5.0696,5.0696,5.0696,5.0696,5.0696,5.0696,5.0696,5.0696,5.0696,5.0767,5.0908,5.1236,5.1446,5.1586,5.189,5.2268,5.2645,5.2715,5.3441,5.4287,5.4716,5.5274,5.5852,5.6146,5.6219,5.6219,5.6219,5.6219,5.6219,5.6219,5.6219,5.6219,5.6219,5.6219,5.6219,5.6219,5.6219,5.6219,5.6219,5.6219,5.6068,5.5666,5.5265,5.4963,5.4813,5.426,5.3808,5.3507,5.313,5.2929,5.2929,5.2929,5.2929,5.2929,5.2929,5.2929,5.2929,5.2929,5.2929,5.2929,5.2929,5.2929,0.0,0.0,0.0,4.0626,0.0,0.0,0.0,0.0,4.0475,0.0,0.0,0.0,0.0,0.0,0.0,0.0,0.0,0.0,0.0,0.0,0.0,0.0,0.0,0.0,0.0,0.0,0.0,3.9657,4.009,4.0162,3.9657,4.0619,4.1677,4.2795,4.3241,4.4034,4.5029,4.4573,4.5101,4.668,4.6199,4.6487,4.7545,4.8555,4.8748,4.8387,4.995,5.0359,4.9902,5.0479,5.0696,5.0696,5.0696,5.0696,5.0696,5.0696,5.0696,5.0696,5.0696,5.0884,5.1211,5.1656,5.203,5.2377,5.2377,5.2725,5.3193,5.3543,5.4202,5.486,5.5293,5.5792,5.6219,5.6219,5.6219,5.6219,5.6219,5.6219,5.6219,5.6219,5.6219,5.6219,5.6219,5.6219,5.6219,5.6219,5.6219,5.6219,5.6219,5.6219,5.6194,5.6194,5.6168,5.5942,5.5415,5.4863,5.4084,5.303,5.2929,5.2929,5.2929,5.2929,5.2929,5.2929,5.2929,5.2929,5.2929,5.2929,5.2929,5.2929,5.2929,5.2929,0.0,0.0,4.2283,4.1731,0.0,0.0,0.0,0.0,0.0,0.0,0.0,0.0,0.0,0.0,0.0,0.0,0.0,0.0,0.0,0.0,0.0,0.0,0.0,0.0,0.0,0.0,0.0,3.8701,3.9032,3.9417,0.0,3.9946,4.0956,4.2771,4.2928,4.3529,4.4549,4.5053,4.5606,4.6199,4.6728,4.7329,4.8026,4.8026,4.8507,4.9349,4.9541,4.9926,5.0431,5.0624,5.0696,5.0696,5.0696,5.0837,5.1025,5.1025,5.1025,5.1095,5.133,5.1541,5.1656,5.2099,5.2308,5.2446,5.2654,5.3073,5.3498,5.3638,5.444,5.5246,5.539,5.5792,5.6219,5.6219,5.6219,5.6219,5.6219,5.6219,5.6219,5.6219,5.6219,5.6219,5.6219,5.6219,5.6219,5.6219,5.6219,5.6219,5.6219,5.6219,5.6219,5.6219,5.5892,5.544,5.4888,5.4009,5.3457,5.3432,5.313,5.2929,5.2929,5.2929,5.2929,5.2929,5.2929,5.2929,5.2929,5.2929,5.2929,5.2929,5.2929,5.2929,4.3037,4.3288,0.0,0.0,4.2514,0.0,4.1304,0.0,0.0,0.0,0.0,0.0,0.0,0.0,0.0,0.0,0.0,0.0,0.0,0.0,0.0,0.0,0.0,0.0,0.0,0.0,4.0787,3.8725,3.8719,3.9056,0.0,0.0,4.0763,4.2747,4.2928,4.3625,4.4837,4.5405,4.5934,4.6487,4.6992,4.7497,4.8002,4.805,4.8628,4.9589,4.9638,5.0046,5.0696,5.0696,5.0767,5.0908,5.0908,5.1095,5.1376,5.1211,5.1282,5.1446,5.1866,5.203,5.2099,5.2446,5.2709,5.2928,5.3136,5.3582,5.4059,5.4235,5.4813,5.544,5.5616,5.5942,5.6219,5.6219,5.6219,5.6219,5.6219,5.6219,5.6219,5.6219,5.6219,5.6219,5.6219,5.6219,5.6219,5.6219,5.6219,5.6219,5.6219,5.6219,5.6219,5.6219,5.5892,5.539,5.4637,5.3733,5.3256,5.3406,5.3105,5.2929,5.2929,5.2929,5.3206,5.3783,5.3231,5.3206,5.3808,5.3206,5.2929,5.2929,5.2929,5.2929]}]]